ftp/pub/palmer/observations_modified/2019/August/AR190828_BASE.txt

Download

Sample DateTime	Unit Id	WS Avg 2min	WD Avg 2min	WGS 10min	WGD 10min	Air Temp	Rel Humidity	Dew Point	Pyranometer	Quantum	Air Pressure	Snow Level	Rainfall	PW Current	Visibility	CBase 1	CBase 2	CBase 3	Vert Vis
2019/08/28  00:00:00  BASE  3.3516   107  4.47468  106  -0.0  80    -3.2  0     0     981.8    NA       0.0000   9999     0     0     0    
2019/08/28  00:01:00  BASE  3.95724  107  4.47468  106  -0.2  79    -3.4  0     0     981.7    NA       0.0000   9999     0     0     0    
2019/08/28  00:02:00  BASE  3.7632   107  4.47468  106  -0.4  79    -3.7  0     0     981.7    NA       0.0000   9999     0     0     0    
2019/08/28  00:03:00  BASE  3.71616  109  4.47468  106  -0.6  79    -3.8  0     0     981.7    NA       0.0000   9999     0     0     0    
2019/08/28  00:04:00  BASE  4.22184  113  5.02152  116  -0.8  79    -4.0  0     0     981.7    NA       0.0000   9999     0     0     0    
2019/08/28  00:05:00  BASE  4.42764  112  5.02152  116  -0.7  79    -3.8  0     0     981.7    NA       0.0000   9999     0     0     0    
2019/08/28  00:06:00  BASE  4.59816  107  5.2332   103  -0.7  79    -3.9  0     0     981.7    NA       0.0000   9999     0     0     0    
2019/08/28  00:07:00  BASE  4.69812  104  5.2332   103  -0.8  80    -3.8  0     0     981.7    NA       0.0000   9999     0     0     0    
2019/08/28  00:08:00  BASE  4.45116  101  5.2332   103  -0.7  80    -3.7  0     0     981.7    NA       0.0000   9999     0     0     0    
2019/08/28  00:09:00  BASE  4.35708  98   5.2332   103  -0.6  80    -3.7  0     0     981.7    NA       0.0000   9999     0     0     0    
2019/08/28  00:10:00  BASE  4.63344  99   5.41548  103  -0.7  80    -3.7  0     0     981.7    NA       0.0000   9999     0     0     0    
2019/08/28  00:11:00  BASE  5.01564  102  5.65656  101  -0.7  80    -3.7  0     0     981.7    NA       0.0000   9999     0     0     0    
2019/08/28  00:12:00  BASE  4.84512  101  5.65656  101  -0.7  80    -3.6  0     0     981.7    NA       0.0000   9999     0     0     0    
2019/08/28  00:13:00  BASE  4.78632  96   5.65656  101  -0.7  80    -3.6  0     0     981.8    NA       0.0000   9999     0     0     0    
2019/08/28  00:14:00  BASE  5.12148  97   5.65656  101  -0.8  80    -3.7  0     0     981.8    NA       0.0000   9999     0     0     0    
2019/08/28  00:15:00  BASE  5.01564  104  5.65656  101  -0.8  80    -3.8  0     0     981.8    NA       0.0000   9999     0     0     0    
2019/08/28  00:16:00  BASE  4.53348  110  5.65656  101  -0.8  81    -3.7  0     0     981.8    NA       0.0000   9999     0     0     0    
2019/08/28  00:17:00  BASE  3.89256  119  5.65656  101  -0.8  81    -3.7  0     0     981.7    NA       0.0000   9999     0     0     0    
2019/08/28  00:18:00  BASE  3.42804  127  5.65656  101  -0.7  81    -3.6  0     0     981.8    NA       0.0000   9999     0     0     0    
2019/08/28  00:19:00  BASE  3.381    127  5.65656  101  -0.6  81    -3.4  0     0     981.8    NA       0.0000   9999     0     0     0    
2019/08/28  00:20:00  BASE  3.40452  123  5.65656  101  -0.5  82    -3.2  0     0     981.8    NA       0.0000   9999     0     0     0    
2019/08/28  00:21:00  BASE  3.26928  118  5.50368  103  -0.4  82    -3.1  0     0     981.8    NA       0.0000   9999     0     0     0    
2019/08/28  00:22:00  BASE  3.26928  105  5.50368  103  -0.3  81    -3.1  0     0     981.8    NA       0.0000   9999     0     0     0    
2019/08/28  00:23:00  BASE  3.35748  96   5.50368  103  -0.3  81    -3.1  0     0     981.8    NA       0.0000   9999     0     0     0    
2019/08/28  00:24:00  BASE  3.48096  98   5.35668  102  -0.3  81    -3.2  0     0     981.8    NA       0.0000   9999     0     0     0    
2019/08/28  00:25:00  BASE  3.675    99   4.86864  114  -0.4  81    -3.3  0     0     981.8    NA       0.0000   9999     0     0     0    
2019/08/28  00:26:00  BASE  3.48684  101  4.116    96   -0.4  81    -3.2  0     0     981.8    NA       0.0000   9999     0     0     0    
2019/08/28  00:27:00  BASE  3.15756  104  4.116    96   -0.3  81    -3.2  0     0     981.8    NA       0.0000   9999     0     0     0    
2019/08/28  00:28:00  BASE  3.19284  102  4.116    96   -0.3  81    -3.2  0     0     981.8    NA       0.0000   9999     0     0     0    
2019/08/28  00:29:00  BASE  3.0576   100  4.116    96   -0.3  81    -3.2  0     0     981.8    NA       0.0000   9999     0     0     0    
2019/08/28  00:30:00  BASE  2.98704  96   4.116    96   -0.3  80    -3.2  0     0     981.8    NA       0.0000   9999     0     0     0    
2019/08/28  00:31:00  BASE  3.28692  89   4.116    96   -0.4  80    -3.4  0     0     981.7    NA       0.0000   9999     0     0     0    
2019/08/28  00:32:00  BASE  3.29868  88   4.116    96   -0.4  80    -3.5  0     0     981.7    NA       0.0000   9999     0     0     0    
2019/08/28  00:33:00  BASE  3.33984  90   4.263    90   -0.4  79    -3.6  0     0     981.7    NA       0.0000   9999     0     0     0    
2019/08/28  00:34:00  BASE  3.81612  93   4.41588  88   -0.5  79    -3.7  0     0     981.7    NA       0.0000   9999     0     0     0    
2019/08/28  00:35:00  BASE  4.09248  94   4.41588  88   -0.5  79    -3.7  0     0     981.7    NA       0.0000   9999     0     0     0    
2019/08/28  00:36:00  BASE  4.02192  94   4.41588  88   -0.4  79    -3.6  0     0     981.7    NA       0.0000   9999     0     0     0    
2019/08/28  00:37:00  BASE  4.18068  94   4.72164  96   -0.3  79    -3.5  0     0     981.6    NA       0.0000   9999     0     0     0    
2019/08/28  00:38:00  BASE  4.34532  95   4.75104  95   -0.3  79    -3.5  0     0     981.6    NA       0.0000   9999     0     0     0    
2019/08/28  00:39:00  BASE  4.40412  93   4.75104  95   -0.2  79    -3.3  0     0     981.7    NA       0.0000   9999     0     0     0    
2019/08/28  00:40:00  BASE  4.59228  90   4.93332  87   0.0   79    -3.2  0     0     981.6    NA       0.0000   9999     0     0     0    
2019/08/28  00:41:00  BASE  4.86864  87   5.35668  84   0.1   79    -3.2  0     0     981.6    NA       0.0000   9999     0     0     0    
2019/08/28  00:42:00  BASE  4.7334   87   5.35668  84   0.1   79    -3.2  0     0     981.6    NA       0.0000   9999     0     0     0    
2019/08/28  00:43:00  BASE  4.31592  86   5.35668  84   0.1   79    -3.2  0     0     981.6    NA       0.0000   9999     0     0     0    
2019/08/28  00:44:00  BASE  4.116    85   5.35668  84   0.1   78    -3.2  0     0     981.6    NA       0.0000   9999     0     0     0    
2019/08/28  00:45:00  BASE  4.29828  86   5.35668  84   0.1   78    -3.3  0     0     981.6    NA       0.0000   9999     0     0     0    
2019/08/28  00:46:00  BASE  4.42764  82   5.35668  84   0.1   78    -3.3  0     0     981.6    NA       0.0000   9999     0     0     0    
2019/08/28  00:47:00  BASE  4.19832  78   5.35668  84   0.1   78    -3.3  0     0     981.6    NA       0.0000   9999     0     0     0    
2019/08/28  00:48:00  BASE  4.4982   82   5.35668  84   0.0   78    -3.4  0     0     981.6    NA       0.0000   9999     0     0     0    
2019/08/28  00:49:00  BASE  4.98624  86   5.41548  86   -0.0  78    -3.5  0     0     981.6    NA       0.0000   9999     0     0     0    
2019/08/28  00:50:00  BASE  4.28064  88   5.41548  86   0.1   78    -3.4  0     0     981.6    NA       0.0000   9999     0     0     0    
2019/08/28  00:51:00  BASE  3.36924  84   5.41548  86   0.2   78    -3.2  0     0     981.6    NA       0.0000   9999     0     0     0    
2019/08/28  00:52:00  BASE  3.08112  78   5.41548  86   0.4   78    -3.1  0     0     981.6    NA       0.0000   9999     0     0     0    
2019/08/28  00:53:00  BASE  2.99292  74   5.41548  86   0.6   77    -3.0  0     0     981.6    NA       0.0000   9999     0     0     0    
2019/08/28  00:54:00  BASE  3.55152  80   5.41548  86   0.7   76    -2.9  0     0     981.6    NA       0.0000   9999     0     0     0    
2019/08/28  00:55:00  BASE  4.22772  90   5.41548  86   0.8   76    -3.0  0     0     981.6    NA       0.0000   9999     0     0     0    
2019/08/28  00:56:00  BASE  4.31592  91   5.41548  86   0.6   75    -3.3  0     0     981.6    NA       0.0000   9999     0     0     0    
2019/08/28  00:57:00  BASE  4.0278   92   5.41548  86   0.5   75    -3.4  0     0     981.6    NA       0.0000   9999     0     0     0    
2019/08/28  00:58:00  BASE  3.68676  95   5.41548  86   0.4   75    -3.5  0     0     981.6    NA       0.0000   9999     0     0     0    
2019/08/28  00:59:00  BASE  2.4402   111  4.62756  90   0.2   75    -3.7  0     0     981.6    NA       0.0000   9999     0     0     0    
2019/08/28  01:00:00  BASE  1.13484  104  4.62756  90   -0.0  75    -3.9  0     0     981.6    NA       0.0000   9999     0     0     0    
2019/08/28  01:01:00  BASE  0.67032  99   4.62756  90   -0.2  76    -4.0  0     0     981.6    NA       0.0000   9999     0     0     0    
2019/08/28  01:02:00  BASE  0.42336  115  4.62756  90   -0.4  76    -4.0  0     0     981.6    NA       0.0000   9999     0     0     0    
2019/08/28  01:03:00  BASE  0.75264  145  4.62756  90   -0.5  77    -4.0  0     0     981.6    NA       0.0000   9999     0     0     0    
2019/08/28  01:04:00  BASE  1.37004  155  4.62756  90   -0.5  78    -3.8  0     0     981.6    NA       0.0000   9999     0     0     0    
2019/08/28  01:05:00  BASE  2.1756   129  4.44528  88   -0.5  79    -3.8  0     0     981.6    NA       0.0000   9999     0     0     0    
2019/08/28  01:06:00  BASE  2.7048   118  4.263    89   -0.6  79    -3.7  0     0     981.6    NA       0.0000   9999     0     0     0    
2019/08/28  01:07:00  BASE  2.14032  118  3.81024  92   -0.7  79    -3.8  0     0     981.6    NA       0.0000   9999     0     0     0    
2019/08/28  01:08:00  BASE  1.33476  136  3.44568  122  -0.7  80    -3.8  0     0     981.6    NA       0.0000   9999     0     0     0    
2019/08/28  01:09:00  BASE  0.588    190  3.44568  122  -0.7  80    -3.8  0     0     981.6    NA       0.0000   9999     0     0     0    
2019/08/28  01:10:00  BASE  0.38808  206  3.44568  122  -0.8  81    -3.7  0     0     981.6    NA       0.0000   9999     0     0     0    
2019/08/28  01:11:00  BASE  1.19952  208  3.44568  122  -0.8  81    -3.6  0     0     981.6    NA       0.0000   9999     0     0     0    
2019/08/28  01:12:00  BASE  2.15208  235  3.44568  122  -0.8  82    -3.6  0     0     981.6    NA       0.0000   9999     0     0     0    
2019/08/28  01:13:00  BASE  2.92236  248  3.53976  254  -1.0  82    -3.6  0     0     981.6    NA       0.0000   9999     0     0     0    
2019/08/28  01:14:00  BASE  3.28692  250  3.75144  254  -1.1  83    -3.6  0     0     981.6    NA       0.0000   9999     0     0     0    
2019/08/28  01:15:00  BASE  3.087    252  3.75144  254  -1.2  84    -3.5  0     0     981.6    NA       0.0000   9999     0     0     0    
2019/08/28  01:16:00  BASE  2.499    254  3.75144  254  -1.3  85    -3.5  0     0     981.6    NA       0.0000   9999     0     0     0    
2019/08/28  01:17:00  BASE  2.0286   252  3.75144  254  -1.3  86    -3.3  0     0     981.6    NA       0.0000   9999     0     0     0    
2019/08/28  01:18:00  BASE  1.76988  238  3.75144  254  -1.3  88    -3.1  0     0     981.6    NA       0.0000   9999     0     0     0    
2019/08/28  01:19:00  BASE  1.75224  225  3.75144  254  -1.2  89    -2.9  0     0     981.6    NA       0.0000   9999     0     0     0    
2019/08/28  01:20:00  BASE  1.92864  219  3.75144  254  -1.2  89    -2.7  0     0     981.6    NA       0.0000   9999     0     0     0    
2019/08/28  01:21:00  BASE  1.92276  214  3.75144  254  -1.2  90    -2.6  0     0     981.6    NA       0.0000   9999     0     0     0    
2019/08/28  01:22:00  BASE  1.7052   212  3.75144  254  -1.3  91    -2.5  0     0     981.6    NA       0.0000   9999     0     0     0    
2019/08/28  01:23:00  BASE  1.56408  206  3.75144  254  -1.3  93    -2.3  0     0     981.7    NA       0.0000   9999     0     0     0    
2019/08/28  01:24:00  BASE  1.2054   197  3.1164   251  -1.4  94    -2.3  0     0     981.7    NA       0.0000   9999     0     0     0    
2019/08/28  01:25:00  BASE  0.91728  196  2.32848  255  -1.5  95    -2.2  0     0     981.7    NA       0.0000   9999     0     0     0    
2019/08/28  01:26:00  BASE  0.69384  198  2.0874   220  -1.6  97    -2.1  0     0     981.7    NA       0.0000   9999     0     0     0    
2019/08/28  01:27:00  BASE  0.35868  195  2.0874   220  -1.7  98    -2.0  0     0     981.7    NA       0.0000   9999     0     0     0    
2019/08/28  01:28:00  BASE  0.4998   187  2.0874   220  -1.7  98    -2.0  0     0     981.7    NA       0.0000   9999     0     0     0    
2019/08/28  01:29:00  BASE  0.34692  158  2.0874   220  -1.7  99    -1.8  0     0     981.7    NA       0.0000   9999     0     0     0    
2019/08/28  01:30:00  BASE  0        125  1.96392  214  -1.6  100   -1.7  0     0     981.7    NA       0.0000   9999     0     0     0    
2019/08/28  01:31:00  BASE  0        116  1.69344  210  -1.5  100   -1.6  0     0     981.7    NA       0.0000   9999     0     0     0    
2019/08/28  01:32:00  BASE  0        125  1.69344  210  -1.4  100   -1.4  0     0     981.7    NA       0.0000   9999     0     0     0    
2019/08/28  01:33:00  BASE  0        193  1.24068  202  -1.3  100   -1.3  0     0     981.7    NA       0.0000   9999     0     0     0    
2019/08/28  01:34:00  BASE  0        241  1.24068  202  -1.2  100   -1.2  0     0     981.7    NA       0.0000   9999     0     0     0    
2019/08/28  01:35:00  BASE  0        233  0.9702   203  -1.1  100   -1.1  0     0     981.7    NA       0.0000   9999     0     0     0    
2019/08/28  01:36:00  BASE  0        247  0.93492  193  -1.0  100   -1.0  0     0     981.7    NA       0.0000   9999     0     0     0    
2019/08/28  01:37:00  BASE  0        276  0.93492  193  -0.9  100   -0.9  0     0     981.7    NA       0.0000   9999     0     0     0    
2019/08/28  01:38:00  BASE  0.27636  292  0.75852  302  -0.8  100   -0.8  0     0     981.6    NA       0.0000   9999     0     0     0    
2019/08/28  01:39:00  BASE  0.65856  302  0.84672  308  -0.7  99    -0.8  0     0     981.6    NA       0.0000   9999     0     0     0    
2019/08/28  01:40:00  BASE  0.80556  311  0.87612  313  -0.6  99    -0.8  0     0     981.6    NA       0.0000   9999     0     0     0    
2019/08/28  01:41:00  BASE  0.90552  335  1.21128  17   -0.7  98    -1.0  0     0     981.6    NA       0.0000   9999     0     0     0    
2019/08/28  01:42:00  BASE  0.92904  355  1.21128  17   -0.7  97    -1.2  0     0     981.6    NA       0.0000   9999     0     0     0    
2019/08/28  01:43:00  BASE  0.9702   3    1.21128  10   -0.8  96    -1.4  0     0     981.6    NA       0.0000   9999     0     0     0    
2019/08/28  01:44:00  BASE  1.029    15   1.21128  36   -0.9  95    -1.7  0     0     981.6    NA       0.0000   9999     0     0     0    
2019/08/28  01:45:00  BASE  1.11132  22   1.42296  35   -1.1  94    -1.9  0     0     981.6    NA       0.0000   9999     0     0     0    
2019/08/28  01:46:00  BASE  1.32888  36   2.0874   53   -1.2  94    -2.0  0     0     981.6    NA       0.0000   9999     0     0     0    
2019/08/28  01:47:00  BASE  1.7052   54   2.24028  60   -1.3  94    -2.2  0     0     981.6    NA       0.0000   9999     0     0     0    
2019/08/28  01:48:00  BASE  1.9698   60   2.24028  60   -1.3  94    -2.2  0     0     981.6    NA       0.0000   9999     0     0     0    
2019/08/28  01:49:00  BASE  1.9698   59   2.24028  64   -1.4  94    -2.3  0     0     981.6    NA       0.0000   9999     0     0     0    
2019/08/28  01:50:00  BASE  1.77576  55   2.24028  64   -1.3  93    -2.3  0     0     981.6    NA       0.0000   9999     0     0     0    
2019/08/28  01:51:00  BASE  1.69344  48   2.24028  64   -1.3  93    -2.3  0     0     981.6    NA       0.0000   9999     0     0     0    
2019/08/28  01:52:01  BASE  1.9698   43   2.24028  44   -1.3  93    -2.3  0     0     981.6    NA       0.0000   9999     0     0     0    
2019/08/28  01:53:00  BASE  2.11092  42   2.24028  44   -1.3  93    -2.3  0     0     981.6    NA       0.0000   9999     0     0     0    
2019/08/28  01:54:00  BASE  1.90512  44   2.24028  44   -1.3  92    -2.3  0     0     981.6    NA       0.0000   9999     0     0     0    
2019/08/28  01:55:00  BASE  1.4994   55   2.24028  44   -1.3  92    -2.4  0     0     981.6    NA       0.0000   9999     0     0     0    
2019/08/28  01:56:00  BASE  1.0584   69   2.24028  44   -1.2  92    -2.4  0     0     981.6    NA       0.0000   9999     0     0     0    
2019/08/28  01:57:00  BASE  0.92316  82   2.24028  44   -1.2  91    -2.4  0     0     981.6    NA       0.0000   9999     0     0     0    
2019/08/28  01:58:00  BASE  0.93492  88   2.24028  44   -1.2  91    -2.4  0     0     981.6    NA       0.0000   9999     0     0     0    
2019/08/28  01:59:00  BASE  0.80556  82   2.24028  44   -1.1  91    -2.4  0     0     981.6    NA       0.0000   9999     0     0     0    
2019/08/28  02:00:00  BASE  0.35868  83   2.24028  44   -1.0  91    -2.3  0     0     981.5    NA       0.0000   9999     0     0     0    
2019/08/28  02:01:00  BASE  0.42336  99   2.24028  44   -1.0  91    -2.3  0     0     981.5    NA       0.0000   9999     0     0     0    
2019/08/28  02:02:00  BASE  0.69384  115  2.21088  37   -0.9  90    -2.2  0     0     981.5    NA       0.0000   9999     0     0     0    
2019/08/28  02:03:00  BASE  0.57036  114  1.90512  45   -0.8  90    -2.3  0     0     981.5    NA       0.0000   9999     0     0     0    
2019/08/28  02:04:00  BASE  0.7938   118  1.54056  58   -0.8  89    -2.4  0     0     981.5    NA       0.0000   9999     0     0     0    
2019/08/28  02:05:00  BASE  0.49392  126  1.1466   128  -0.8  89    -2.4  0     0     981.5    NA       0.0000   9999     0     0     0    
2019/08/28  02:06:00  BASE  0        104  1.1466   128  -0.8  88    -2.5  0     0     981.5    NA       0.0000   9999     0     0     0    
2019/08/28  02:07:00  BASE  0        83   1.1466   128  -0.7  88    -2.5  0     0     981.5    NA       0.0000   9999     0     0     0    
2019/08/28  02:08:00  BASE  0        80   1.1466   128  -0.6  87    -2.5  0     0     981.5    NA       0.0000   9999     0     0     0    
2019/08/28  02:09:00  BASE  0        81   1.1466   128  -0.5  87    -2.4  0     0     981.5    NA       0.0000   9999     0     0     0    
2019/08/28  02:10:00  BASE  0.02352  95   1.1466   128  -0.3  86    -2.4  0     0     981.5    NA       0.0000   9999     0     0     0    
2019/08/28  02:11:00  BASE  0.51156  109  1.42296  99   -0.3  85    -2.4  0     0     981.5    NA       0.0000   9999     0     0     0    
2019/08/28  02:12:00  BASE  1.12896  106  1.45236  100  -0.3  85    -2.6  0     0     981.5    NA       0.0000   9999     0     0     0    
2019/08/28  02:13:00  BASE  1.16424  100  1.45236  100  -0.3  84    -2.7  0     0     981.5    NA       0.0000   9999     0     0     0    
2019/08/28  02:14:00  BASE  1.22304  95   1.45236  94   -0.5  83    -3.0  0     0     981.5    NA       0.0000   9999     0     0     0    
2019/08/28  02:15:00  BASE  1.30536  83   1.48176  83   -0.6  83    -3.2  0     0     981.5    NA       0.0000   9999     0     0     0    
2019/08/28  02:16:00  BASE  1.28184  70   1.51116  73   -0.6  83    -3.2  0     0     981.5    NA       0.0000   9999     0     0     0    
2019/08/28  02:17:00  BASE  1.31124  67   1.81692  73   -0.6  82    -3.2  0     0     981.5    NA       0.0000   9999     0     0     0    
2019/08/28  02:18:00  BASE  1.38768  71   1.81692  73   -0.6  82    -3.4  0     0     981.5    NA       0.0000   9999     0     0     0    
2019/08/28  02:19:00  BASE  1.617    85   1.87572  104  -0.7  81    -3.5  0     0     981.5    NA       0.0000   9999     0     0     0    
2019/08/28  02:20:00  BASE  1.60524  98   1.87572  104  -0.8  81    -3.7  0     0     981.4    NA       0.0000   9999     0     0     0    
2019/08/28  02:21:00  BASE  1.44648  98   1.87572  104  -1.0  81    -4.0  0     0     981.4    NA       0.0000   9999     0     0     0    
2019/08/28  02:22:00  BASE  1.21128  102  1.87572  104  -1.3  81    -4.2  0     0     981.4    NA       0.0000   9999     0     0     0    
2019/08/28  02:23:00  BASE  0.62328  117  1.87572  104  -1.5  81    -4.3  0     0     981.4    NA       0.0000   9999     0     0     0    
2019/08/28  02:24:00  BASE  0.441    146  1.87572  104  -1.5  81    -4.3  0     0     981.4    NA       0.0000   9999     0     0     0    
2019/08/28  02:25:00  BASE  0.39396  149  1.87572  104  -1.5  82    -4.2  0     0     981.4    NA       0.0000   9999     0     0     0    
2019/08/28  02:26:00  BASE  0.57036  118  1.87572  104  -1.5  83    -4.0  0     0     981.4    NA       0.0000   9999     0     0     0    
2019/08/28  02:27:00  BASE  0.59388  87   1.87572  104  -1.3  83    -3.8  0     0     981.4    NA       0.0000   9999     0     0     0    
2019/08/28  02:28:00  BASE  0.45864  95   1.87572  104  -1.4  83    -3.9  0     0     981.4    NA       0.0000   9999     0     0     0    
2019/08/28  02:29:00  BASE  1.2054   131  2.48136  150  -1.4  83    -4.0  0     0     981.4    NA       0.0000   9999     0     0     0    
2019/08/28  02:30:00  BASE  2.0874   131  3.29868  128  -1.5  82    -4.1  0     0     981.4    NA       0.0000   9999     0     0     0    
2019/08/28  02:31:00  BASE  2.66364  119  3.29868  128  -1.6  82    -4.3  0     0     981.4    NA       0.0000   9999     0     0     0    
2019/08/28  02:32:00  BASE  3.06348  116  3.59856  113  -1.7  82    -4.3  0     0     981.4    NA       0.0000   9999     0     0     0    
2019/08/28  02:33:00  BASE  3.15756  117  3.59856  113  -1.6  82    -4.2  0     0     981.4    NA       0.0000   9999     0     0     0    
2019/08/28  02:34:00  BASE  3.02232  116  3.59856  113  -1.5  82    -4.1  0     0     981.4    NA       0.0000   9999     0     0     0    
2019/08/28  02:35:00  BASE  3.15168  116  3.59856  113  -1.4  82    -4.0  0     0     981.3    NA       0.0000   9999     0     0     0    
2019/08/28  02:36:00  BASE  3.21048  114  3.59856  113  -1.3  82    -4.0  0     0     981.2    NA       0.0000   9999     0     0     0    
2019/08/28  02:37:00  BASE  2.9106   109  3.59856  113  -1.3  82    -4.0  0     0     981.2    NA       0.0000   9999     0     0     0    
2019/08/28  02:38:00  BASE  2.5578   103  3.59856  113  -1.3  82    -4.1  0     0     981.2    NA       0.0000   9999     0     0     0    
2019/08/28  02:39:00  BASE  2.48136  85   3.59856  113  -1.4  81    -4.2  0     0     981.2    NA       0.0000   9999     0     0     0    
2019/08/28  02:40:00  BASE  2.0874   59   3.59856  113  -1.4  81    -4.2  0     0     981.2    NA       0.0000   9999     0     0     0    
2019/08/28  02:41:00  BASE  1.74048  37   3.59856  113  -1.4  81    -4.2  0     0     981.3    NA       0.0000   9999     0     0     0    
2019/08/28  02:42:00  BASE  1.59348  21   3.48096  111  -1.5  81    -4.3  0     0     981.4    NA       0.0000   9999     0     0     0    
2019/08/28  02:43:00  BASE  1.18776  16   3.48096  111  -1.6  81    -4.4  0     0     981.4    NA       0.0000   9999     0     0     0    
2019/08/28  02:44:00  BASE  0.9114   13   3.48096  111  -1.7  82    -4.4  0     0     981.4    NA       0.0000   9999     0     0     0    
2019/08/28  02:45:00  BASE  1.05252  30   3.44568  113  -1.7  82    -4.4  0     0     981.4    NA       0.0000   9999     0     0     0    
2019/08/28  02:46:00  BASE  1.22892  42   3.0576   112  -1.8  82    -4.4  0     0     981.4    NA       0.0000   9999     0     0     0    
2019/08/28  02:47:00  BASE  1.19364  18   2.81064  77   -1.7  83    -4.2  0     0     981.4    NA       0.0000   9999     0     0     0    
2019/08/28  02:48:00  BASE  1.39944  354  2.81064  77   -1.5  83    -4.0  0     0     981.4    NA       0.0000   9999     0     0     0    
2019/08/28  02:49:00  BASE  1.61112  345  2.0874   70   -1.5  83    -4.0  0     0     981.4    NA       0.0000   9999     0     0     0    
2019/08/28  02:50:00  BASE  1.59936  357  2.058    42   -1.5  83    -4.1  0     0     981.4    NA       0.0000   9999     0     0     0    
2019/08/28  02:51:00  BASE  1.66992  360  1.93452  6    -1.5  82    -4.1  0     0     981.5    NA       0.0000   9999     0     0     0    
2019/08/28  02:52:00  BASE  1.75812  356  1.93452  3    -1.5  82    -4.2  0     0     981.5    NA       0.0000   9999     0     0     0    
2019/08/28  02:53:00  BASE  1.66992  354  1.93452  3    -1.6  82    -4.3  0     0     981.5    NA       0.0000   9999     0     0     0    
2019/08/28  02:54:00  BASE  1.5876   347  1.93452  3    -1.6  82    -4.3  0     0     981.5    NA       0.0000   9999     0     0     0    
2019/08/28  02:55:00  BASE  1.53468  339  1.93452  3    -1.6  82    -4.3  0     0     981.5    NA       0.0000   9999     0     0     0    
2019/08/28  02:56:00  BASE  1.33476  338  1.93452  3    -1.5  82    -4.2  0     0     981.5    NA       0.0000   9999     0     0     0    
2019/08/28  02:57:00  BASE  1.12308  338  1.93452  3    -1.5  81    -4.2  0     0     981.5    NA       0.0000   9999     0     0     0    
2019/08/28  02:58:00  BASE  0.96432  331  1.93452  3    -1.4  81    -4.3  0     0     981.5    NA       0.0000   9999     0     0     0    
2019/08/28  02:59:00  BASE  0.8232   325  1.93452  3    -1.3  81    -4.2  0     0     981.5    NA       0.0000   9999     0     0     0    
2019/08/28  03:00:00  BASE  0.78204  335  1.93452  3    -1.2  80    -4.3  0     0     981.4    NA       0.0000   9999     0     0     0    
2019/08/28  03:01:00  BASE  0.82908  359  1.93452  3    -1.2  79    -4.4  0     0     981.4    NA       0.0000   9999     0     0     0    
2019/08/28  03:02:00  BASE  0.60564  8    1.81692  338  -1.2  78    -4.4  0     0     981.4    NA       0.0000   9999     0     0     0    
2019/08/28  03:03:00  BASE  0.18228  8    1.81692  338  -1.1  78    -4.4  0     0     981.4    NA       0.0000   9999     0     0     0    
2019/08/28  03:04:00  BASE  0.0294   21   1.54056  340  -1.1  77    -4.6  0     0     981.4    NA       0.0000   9999     0     0     0    
2019/08/28  03:05:00  BASE  0.0294   96   1.35828  338  -1.2  77    -4.7  0     0     981.4    NA       0.0000   9999     0     0     0    
2019/08/28  03:06:00  BASE  0        201  1.29948  341  -1.2  77    -4.7  0     0     981.3    NA       0.0000   9999     0     0     0    
2019/08/28  03:07:00  BASE  0        260  1.18188  8    -1.2  77    -4.7  0     0     981.2    NA       0.0000   9999     0     0     0    
2019/08/28  03:08:00  BASE  0.28224  287  1.24068  313  -1.3  77    -4.9  0     0     981.2    NA       0.0000   9999     0     0     0    
2019/08/28  03:09:00  BASE  0.8526   318  1.42296  345  -1.4  77    -4.9  0     0     981.2    NA       0.0000   9999     0     0     0    
2019/08/28  03:10:00  BASE  1.21716  335  1.51116  338  -1.4  77    -4.8  0     0     981.3    NA       0.0000   9999     0     0     0    
2019/08/28  03:11:00  BASE  1.41708  342  1.60524  345  -1.4  78    -4.8  0     0     981.3    NA       0.0000   9999     0     0     0    
2019/08/28  03:12:00  BASE  1.48176  346  1.60524  345  -1.4  78    -4.8  0     0     981.4    NA       0.0000   9999     0     0     0    
2019/08/28  03:13:00  BASE  1.4994   353  1.60524  1    -1.4  78    -4.7  0     0     981.4    NA       0.0000   9999     0     0     0    
2019/08/28  03:14:00  BASE  1.5288   1    1.60524  1    -1.4  78    -4.7  0     0     981.4    NA       0.0000   9999     0     0     0    
2019/08/28  03:15:00  BASE  1.34064  6    1.60524  1    -1.5  78    -4.8  0     0     981.4    NA       0.0000   9999     0     0     0    
2019/08/28  03:16:00  BASE  1.09368  15   1.60524  1    -1.6  78    -4.9  0     0     981.4    NA       0.0000   9999     0     0     0    
2019/08/28  03:17:00  BASE  0.91728  21   1.60524  1    -1.7  79    -4.9  0     0     981.4    NA       0.0000   9999     0     0     0    
2019/08/28  03:18:00  BASE  0.89964  15   1.60524  1    -1.8  79    -5.0  0     0     981.4    NA       0.0000   9999     0     0     0    
2019/08/28  03:19:00  BASE  1.09368  6    1.60524  1    -1.9  80    -5.0  0     0     981.4    NA       0.0000   9999     0     0     0    
2019/08/28  03:20:00  BASE  1.32888  6    1.60524  1    -1.9  80    -4.8  0     0     981.4    NA       0.0000   9999     0     0     0    
2019/08/28  03:21:00  BASE  1.61112  12   1.93452  16   -1.8  81    -4.7  0     0     981.4    NA       0.0000   9999     0     0     0    
2019/08/28  03:22:00  BASE  1.92864  17   2.32848  14   -1.9  81    -4.8  0     0     981.3    NA       0.0000   9999     0     0     0    
2019/08/28  03:23:00  BASE  2.26968  18   2.75184  12   -1.9  81    -4.7  0     0     981.4    NA       0.0000   9999     0     0     0    
2019/08/28  03:24:00  BASE  2.31084  21   2.75184  12   -1.8  81    -4.7  0     0     981.4    NA       0.0000   9999     0     0     0    
2019/08/28  03:25:00  BASE  2.28144  20   2.75184  12   -1.9  80    -4.8  0     0     981.4    NA       0.0000   9999     0     0     0    
2019/08/28  03:26:00  BASE  2.25792  13   2.75184  12   -1.8  80    -4.8  0     0     981.4    NA       0.0000   9999     0     0     0    
2019/08/28  03:27:00  BASE  1.74636  5    2.75184  12   -1.7  80    -4.7  0     0     981.4    NA       0.0000   9999     0     0     0    
2019/08/28  03:28:00  BASE  1.2936   358  2.75184  12   -1.5  80    -4.6  0     0     981.4    NA       0.0000   9999     5640  0     0    
2019/08/28  03:29:00  BASE  1.2642   343  2.75184  12   -1.3  79    -4.6  0     0     981.3    NA       0.0000   9999     5540  0     0    
2019/08/28  03:30:00  BASE  1.4994   335  2.75184  12   -1.1  78    -4.5  0     0     981.2    NA       0.0000   9999     5510  0     0    
2019/08/28  03:31:00  BASE  1.90512  344  2.75184  12   -1.1  77    -4.6  0     0     981.2    NA       0.0000   9999     5580  0     0    
2019/08/28  03:32:00  BASE  2.34612  356  2.75184  12   -1.2  76    -4.9  0     0     981.2    NA       0.0000   9999     5410  0     0    
2019/08/28  03:33:00  BASE  2.53428  5    2.69304  360  -1.4  76    -5.1  0     0     981.2    NA       0.0000   9999     5350  0     0    
2019/08/28  03:34:00  BASE  2.39316  6    2.69304  360  -1.7  77    -5.3  0     0     981.2    NA       0.0000   9999     5220  0     0    
2019/08/28  03:35:00  BASE  2.06388  15   2.69304  360  -2.1  78    -5.5  0     0     981.2    NA       0.0000   9999     5120  0     0    
2019/08/28  03:36:00  BASE  1.8228   35   2.69304  360  -2.4  79    -5.5  0     0     981.2    NA       0.0000   9999     5180  0     0    
2019/08/28  03:37:00  BASE  1.84044  46   2.69304  360  -2.6  81    -5.4  0     0     981.2    NA       0.0000   9999     5250  0     0    
2019/08/28  03:38:00  BASE  1.79928  45   2.69304  360  -2.7  83    -5.2  0     0     981.2    NA       0.0000   9999     5050  0     0    
2019/08/28  03:39:00  BASE  1.7052   44   2.69304  360  -2.6  85    -4.8  0     0     981.2    NA       0.0000   9999     5120  0     0    
2019/08/28  03:40:00  BASE  1.68756  43   2.69304  360  -2.4  86    -4.5  0     0     981.2    NA       0.0000   9999     5090  0     0    
2019/08/28  03:41:00  BASE  2.09916  43   3.02232  46   -2.2  86    -4.3  0     0     981.2    NA       0.0000   9999     5020  0     0    
2019/08/28  03:42:00  BASE  2.74596  47   3.1752   48   -2.1  85    -4.2  0     0     981.2    NA       0.0000   9999     5050  0     0    
2019/08/28  03:43:00  BASE  2.95764  46   3.1752   48   -2.0  84    -4.3  0     0     981.2    NA       0.0000   9999     4990  0     0    
2019/08/28  03:44:00  BASE  2.9694   42   3.29868  42   -1.9  83    -4.4  0     0     981.2    NA       0.0000   9999     4990  0     0    
2019/08/28  03:45:00  BASE  2.9988   37   3.35748  34   -1.9  82    -4.5  0     0     981.2    NA       0.0000   9999     5120  0     0    
2019/08/28  03:46:00  BASE  2.56368  33   3.35748  34   -1.9  82    -4.6  0     0     981.2    NA       0.0000   9999     5050  0     0    
2019/08/28  03:47:00  BASE  1.89924  30   3.35748  34   -1.8  81    -4.5  0     0     981.2    NA       0.0000   9999     5090  0     0    
2019/08/28  03:48:00  BASE  1.54644  26   3.35748  34   -1.6  81    -4.4  0     0     981.2    NA       0.0000   9999     5180  0     0    
2019/08/28  03:49:00  BASE  1.02312  22   3.35748  34   -1.6  81    -4.4  0     0     981.2    NA       0.0000   9999     5220  0     0    
2019/08/28  03:50:00  BASE  0.31752  18   3.35748  34   -1.5  80    -4.4  0     0     981.2    NA       0.0000   9999     5150  0     0    
2019/08/28  03:51:00  BASE  0        29   3.35748  34   -1.4  80    -4.4  0     0     981.2    NA       0.0000   9999     5250  0     0    
2019/08/28  03:52:00  BASE  0        65   3.35748  34   -1.3  79    -4.4  0     0     981.2    NA       0.0000   9999     5050  0     0    
2019/08/28  03:53:00  BASE  0.4998   68   3.35748  34   -1.2  79    -4.4  0     0     981.2    NA       0.0000   9999     5090  0     0    
2019/08/28  03:54:00  BASE  1.25244  42   3.35748  34   -1.2  78    -4.5  0     0     981.2    NA       0.0000   9999     5020  0     0    
2019/08/28  03:55:00  BASE  1.3524   24   2.54016  32   -1.1  78    -4.5  0     0     981.2    NA       0.0000   9999     5120  0     0    
2019/08/28  03:56:00  BASE  0.74088  13   1.90512  27   -1.1  78    -4.5  0     0     981.2    NA       0.0000   9999     5220  0     0    
2019/08/28  03:57:00  BASE  0.14112  0    1.78752  34   -1.0  77    -4.5  0     0     981.2    NA       0.0000   9999     5320  0     0    
2019/08/28  03:58:00  BASE  0        351  1.78752  34   -1.0  77    -4.6  0     0     981.2    NA       0.0000   9999     5150  0     0    
2019/08/28  03:59:00  BASE  0        319  1.78752  34   -1.0  77    -4.6  0     0     981.2    NA       0.0000   9999     5120  0     0    
2019/08/28  04:00:00  BASE  0        284  1.78752  34   -1.1  76    -4.7  0     0     981.2    NA       0.0000   9999     5250  0     0    
2019/08/28  04:02:00  BASE  0        289  1.78752  34   -1.1  76    -4.8  0     0     981.2    NA       0.0000   9999     5250  0     0    
2019/08/28  04:03:00  BASE  0.05292  321  1.78752  34   -1.1  76    -4.8  0     0     981.2    NA       0.0000   9999     5320  0     0    
2019/08/28  04:04:00  BASE  0.47628  329  1.78752  34   -1.1  76    -4.8  0     0     981.2    NA       0.0000   9999     5050  5580  0    
2019/08/28  04:05:00  BASE  1.13484  309  1.57584  306  -1.1  76    -4.9  0     0     981.2    NA       0.0000   9999     5090  0     0    
2019/08/28  04:06:00  BASE  1.35828  310  1.57584  306  -1.1  76    -4.8  0     0     981.2    NA       0.0000   9999     5250  5740  0    
2019/08/28  04:07:00  BASE  1.19364  316  1.57584  306  -1.0  76    -4.8  0     0     981.2    NA       0.0000   9999     5540  0     0    
2019/08/28  04:08:00  BASE  1.14072  315  1.57584  313  -1.0  75    -4.8  0     0     981.2    NA       0.0000   9999     0     0     0    
2019/08/28  04:09:00  BASE  1.37592  314  1.81692  321  -0.9  75    -4.7  0     0     981.2    NA       0.0000   9999     5380  0     0    
2019/08/28  04:10:00  BASE  1.6464   317  1.84632  314  -0.8  75    -4.6  0     0     981.2    NA       0.0000   9999     5280  0     0    
2019/08/28  04:11:00  BASE  1.78164  312  1.96392  302  -0.6  74    -4.6  0     0     981.2    NA       0.0000   9999     5220  0     0    
2019/08/28  04:12:00  BASE  1.62876  299  1.96392  302  -0.5  74    -4.6  0     0     981.2    NA       0.0000   9999     5380  0     0    
2019/08/28  04:13:00  BASE  1.32888  287  1.96392  302  -0.5  73    -4.7  0     0     981.2    NA       0.0000   9999     5120  0     0    
2019/08/28  04:14:00  BASE  0.88788  280  1.96392  302  -0.4  73    -4.7  0     0     981.2    NA       0.0000   9999     5610  0     0    
2019/08/28  04:15:00  BASE  0.27636  276  1.96392  302  -0.5  72    -4.9  0     0     981.2    NA       0.0000   9999     5770  0     0    
2019/08/28  04:16:00  BASE  0        265  1.96392  302  -0.6  72    -5.0  0     0     981.2    NA       0.0000   9999     5450  0     0    
2019/08/28  04:17:00  BASE  0        268  1.96392  302  -0.7  73    -5.0  0     0     981.2    NA       0.0000   9999     5480  0     0    
2019/08/28  04:18:00  BASE  0.02352  289  1.96392  302  -0.7  73    -5.0  0     0     981.2    NA       0.0000   9999     5740  0     0    
2019/08/28  04:19:00  BASE  0.02352  305  1.96392  302  -0.8  73    -4.9  0     0     981.2    NA       0.0000   9999     5480  0     0    
2019/08/28  04:20:00  BASE  0        329  1.96392  302  -0.7  74    -4.8  0     0     981.2    NA       0.0000   9999     5840  0     0    
2019/08/28  04:21:00  BASE  0        335  1.66404  303  -0.5  74    -4.6  0     0     981.2    NA       0.0000   9999     5840  0     0    
2019/08/28  04:22:00  BASE  0        331  1.35828  285  -0.4  74    -4.6  0     0     981.2    NA       0.0000   9999     0     0     0    
2019/08/28  04:23:00  BASE  0        339  0.90552  291  -0.3  73    -4.5  0     0     981.2    NA       0.0000   9999     5610  0     0    
2019/08/28  04:24:00  BASE  0.05292  359  0.69384  40   -0.2  73    -4.5  0     0     981.2    NA       0.0000   9999     5770  0     0    
2019/08/28  04:25:00  BASE  0.40572  26   0.75852  33   -0.2  72    -4.6  0     0     981.3    NA       0.0000   9999     5870  0     0    
2019/08/28  04:26:00  BASE  0.81144  46   1.29948  76   -0.2  72    -4.6  0     0     981.4    NA       0.0000   9999     5940  0     0    
2019/08/28  04:27:00  BASE  1.03488  66   1.32888  68   -0.3  72    -4.7  0     0     981.4    NA       0.0000   9999     6000  0     0    
2019/08/28  04:28:00  BASE  0.93492  77   1.32888  68   -0.3  72    -4.7  0     0     981.3    NA       0.0000   9999     0     0     0    
2019/08/28  04:29:00  BASE  0.41748  86   1.32888  68   -0.3  72    -4.8  0     0     981.2    NA       0.0000   9999     0     0     0    
2019/08/28  04:30:00  BASE  0.0588   98   1.32888  68   -0.3  72    -4.8  0     0     981.2    NA       0.0000   9999     0     0     0    
2019/08/28  04:31:01  BASE  0        122  1.32888  68   -0.3  72    -4.8  0     0     981.2    NA       0.0000   9999     6170  0     0    
2019/08/28  04:32:01  BASE  0        144  1.32888  68   -0.2  72    -4.7  0     0     981.2    NA       0.0000   9999     6140  0     0    
2019/08/28  04:33:01  BASE  0        187  1.32888  68   -0.1  72    -4.6  0     0     981.2    NA       0.0000   9999     6370  0     0    
2019/08/28  04:34:01  BASE  0.27636  267  1.32888  68   -0.0  72    -4.5  0     0     981.2    NA       0.0000   9999     5940  0     0    
2019/08/28  04:35:01  BASE  0.79968  310  1.35828  337  0.0   72    -4.4  0     0     981.2    NA       0.0000   9999     6040  0     0    
2019/08/28  04:36:01  BASE  1.39356  334  1.96392  2    0.1   72    -4.3  0     0     981.2    NA       0.0000   9999     6140  0     0    
2019/08/28  04:37:01  BASE  1.79928  10   2.1168   11   -0.0  72    -4.4  0     0     981.2    NA       0.0000   9999     0     0     0    
2019/08/28  04:38:01  BASE  1.92276  37   2.24028  43   -0.3  72    -4.7  0     0     981.2    NA       0.0000   9999     0     0     0    
2019/08/28  04:39:01  BASE  1.9698   42   2.24028  43   -0.6  73    -4.9  0     0     981.2    NA       0.0000   9999     0     0     0    
2019/08/28  04:40:01  BASE  1.81104  43   2.24028  43   -0.8  73    -5.0  0     0     981.2    NA       0.0000   9999     5910  0     0    
2019/08/28  04:41:01  BASE  1.64052  46   2.24028  43   -1.0  74    -5.1  0     0     981.2    NA       0.0000   9999     5450  5910  0    
2019/08/28  04:42:01  BASE  1.51704  47   2.24028  43   -1.1  75    -5.0  0     0     981.2    NA       0.0000   9999     5580  0     0    
2019/08/28  04:43:01  BASE  1.39944  44   2.24028  43   -1.0  76    -4.7  0     0     981.2    NA       0.0000   9999     5810  0     0    
2019/08/28  04:44:01  BASE  1.3818   39   2.24028  43   -0.9  76    -4.6  0     0     981.2    NA       0.0000   9999     6040  0     0    
2019/08/28  04:45:01  BASE  1.43472  36   2.24028  43   -0.8  75    -4.6  0     0     981.2    NA       0.0000   9999     0     0     0    
2019/08/28  04:46:01  BASE  1.7052   44   2.24028  43   -0.6  75    -4.6  0     0     981.2    NA       0.0000   9999     0     0     0    
2019/08/28  04:47:01  BASE  1.9404   51   2.24028  43   -0.5  74    -4.6  0     0     981.1    NA       0.0000   9999     6000  0     0    
2019/08/28  04:48:01  BASE  1.89924  53   2.1462   47   -0.4  73    -4.6  0     0     981.2    NA       0.0000   9999     0     0     0    
2019/08/28  04:49:01  BASE  1.72872  52   2.0874   56   -0.4  73    -4.6  0     0     981.2    NA       0.0000   9999     5970  0     0    
2019/08/28  04:50:01  BASE  1.61112  51   2.0874   56   -0.2  72    -4.6  0     0     981.2    NA       0.0000   9999     6070  0     0    
2019/08/28  04:51:01  BASE  1.45824  52   2.0874   56   -0.1  72    -4.5  0     0     981.2    NA       0.0000   9999     6000  0     0    
2019/08/28  04:52:01  BASE  1.24068  53   2.0874   56   -0.0  72    -4.4  0     0     981.2    NA       0.0000   9999     0     0     0    
2019/08/28  04:53:01  BASE  1.07604  54   2.0874   56   0.1   72    -4.4  0     0     981.2    NA       0.0000   9999     0     0     0    
2019/08/28  04:54:01  BASE  0.62916  50   2.0874   56   0.2   72    -4.3  0     0     981.2    NA       0.0000   9999     0     0     0    
2019/08/28  04:55:01  BASE  0.12936  32   2.0874   56   0.2   72    -4.2  0     0     981.2    NA       0.0000   9999     0     0     0    
2019/08/28  04:56:01  BASE  0.22344  298  2.0874   56   0.3   72    -4.2  0     0     981.2    NA       0.0000   9999     0     0     0    
2019/08/28  04:57:01  BASE  0.52332  265  1.90512  56   0.3   72    -4.3  0     0     981.3    NA       0.0000   9999     0     0     0    
2019/08/28  04:58:01  BASE  0.4116   258  1.78752  56   0.2   71    -4.4  0     0     981.2    NA       0.0000   9999     0     0     0    
2019/08/28  04:59:01  BASE  0.11172  244  1.63464  52   0.1   72    -4.5  0     0     981.2    NA       0.0000   9999     0     0     0    
2019/08/28  05:00:01  BASE  0        234  1.54056  52   -0.0  72    -4.5  0     0     981.2    NA       0.0000   9999     0     0     0    
2019/08/28  05:01:01  BASE  0        230  1.24068  52   -0.1  72    -4.5  0     0     981.2    NA       0.0000   9999     0     0     0    
2019/08/28  05:02:01  BASE  0        230  1.1466   56   -0.2  72    -4.6  0     0     981.2    NA       0.0000   9999     0     0     0    
2019/08/28  05:03:01  BASE  0        230  0.9702   270  -0.1  72    -4.5  0     0     981.2    NA       0.0000   9999     0     0     0    
2019/08/28  05:04:01  BASE  0        242  0.9702   270  -0.1  72    -4.5  0     0     981.2    NA       0.0000   9999     0     0     0    
2019/08/28  05:05:01  BASE  0        257  0.9702   270  -0.0  72    -4.5  0     0     981.2    NA       0.0000   9999     0     0     0    
2019/08/28  05:06:01  BASE  0.0294   258  0.9702   270  -0.1  72    -4.5  0     0     981.2    NA       0.0000   9999     0     0     0    
2019/08/28  05:07:01  BASE  0.0294   245  0.69384  253  -0.1  72    -4.6  0     0     981.2    NA       0.0000   9999     0     0     0    
2019/08/28  05:08:01  BASE  0        219  0.63504  253  -0.3  72    -4.8  0     0     981.2    NA       0.0000   9999     0     0     0    
2019/08/28  05:09:01  BASE  0.07644  259  0.63504  301  -0.5  72    -4.9  0     0     981.2    NA       0.0000   9999     0     0     0    
2019/08/28  05:10:01  BASE  0.29988  298  0.81732  305  -0.7  73    -5.0  0     0     981.2    NA       0.0000   9999     0     0     0    
2019/08/28  05:11:01  BASE  0.69384  322  1.21128  360  -0.9  73    -5.0  0     0     981.2    NA       0.0000   9999     0     0     0    
2019/08/28  05:12:01  BASE  0.57036  338  1.21128  360  -1.1  74    -5.1  0     0     981.2    NA       0.0000   9999     0     0     0    
2019/08/28  05:13:01  BASE  0.09996  318  1.21128  360  -1.2  75    -5.0  0     0     981.2    NA       0.0000   9999     0     0     0    
2019/08/28  05:14:01  BASE  0        306  1.21128  360  -1.3  77    -4.9  0     0     981.2    NA       0.0000   9999     0     0     0    
2019/08/28  05:15:01  BASE  0.14112  313  1.21128  360  -1.5  78    -4.8  0     0     981.2    NA       0.0000   9999     0     0     0    
2019/08/28  05:16:01  BASE  0.588    331  1.21128  350  -1.5  79    -4.7  0     0     981.2    NA       0.0000   9999     0     0     0    
2019/08/28  05:17:01  BASE  1.08192  345  1.48176  360  -1.5  80    -4.5  0     0     981.2    NA       0.0000   9999     0     0     0    
2019/08/28  05:18:01  BASE  1.3524   2    1.54056  25   -1.5  81    -4.4  0     0     981.2    NA       0.0000   9999     0     0     0    
2019/08/28  05:19:01  BASE  1.52292  25   1.78752  33   -1.5  81    -4.3  0     0     981.2    NA       0.0000   9999     0     0     0    
2019/08/28  05:20:01  BASE  1.56408  42   1.78752  33   -1.5  81    -4.4  0     0     981.2    NA       0.0000   9999     0     0     0    
2019/08/28  05:21:01  BASE  1.5288   58   1.78752  33   -1.5  81    -4.4  0     0     981.2    NA       0.0000   9999     0     0     0    
2019/08/28  05:22:00  BASE  1.62876  72   1.90512  76   -1.4  81    -4.3  0     0     981.2    NA       0.0000   9999     0     0     0    
2019/08/28  05:23:00  BASE  1.79928  78   1.93452  78   -1.3  80    -4.2  0     0     981.2    NA       0.0000   9999     0     0     0    
2019/08/28  05:24:00  BASE  1.84044  78   2.0286   77   -1.2  80    -4.2  0     0     981.2    NA       0.0000   9999     0     0     0    
2019/08/28  05:25:00  BASE  1.75812  69   2.21088  59   -1.0  79    -4.2  0     0     981.2    NA       0.0000   9999     0     0     0    
2019/08/28  05:26:00  BASE  1.9992   59   2.38728  57   -0.9  78    -4.3  0     0     981.2    NA       0.0000   9999     0     0     0    
2019/08/28  05:27:00  BASE  2.25792  60   2.38728  57   -0.9  77    -4.4  0     0     981.2    NA       0.0000   9999     0     0     0    
2019/08/28  05:28:00  BASE  2.32848  65   2.48136  67   -0.9  76    -4.6  0     0     981.2    NA       0.0000   9999     0     0     0    
2019/08/28  05:29:00  BASE  2.26968  73   2.48136  67   -0.9  76    -4.7  0     0     981.2    NA       0.0000   9999     0     0     0    
2019/08/28  05:30:00  BASE  1.99332  85   2.48136  67   -0.9  75    -4.8  0     0     981.2    NA       0.0000   9999     0     0     0    
2019/08/28  05:31:00  BASE  1.617    94   2.48136  67   -0.8  75    -4.8  0     0     981.2    NA       0.0000   9999     0     0     0    
2019/08/28  05:32:00  BASE  1.34652  92   2.48136  67   -0.7  74    -4.8  0     0     981.2    NA       0.0000   9999     0     0     0    
2019/08/28  05:33:00  BASE  1.41708  84   2.48136  67   -0.6  74    -4.8  0     0     981.2    NA       0.0000   9999     0     0     0    
2019/08/28  05:34:00  BASE  1.56408  83   2.48136  67   -0.5  73    -4.8  0     0     981.2    NA       0.0000   9999     0     0     0    
2019/08/28  05:35:00  BASE  1.28772  99   2.48136  67   -0.4  72    -4.9  0     0     981.2    NA       0.0000   9999     0     0     0    
2019/08/28  05:36:01  BASE  1.2054   150  2.48136  67   -0.4  70    -5.1  0     0     981.2    NA       0.0000   9999     0     0     0    
2019/08/28  05:37:00  BASE  1.48764  181  2.48136  67   -0.5  69    -5.4  0     0     981.2    NA       0.0000   9999     0     0     0    
2019/08/28  05:38:00  BASE  1.7052   175  2.38728  73   -0.8  69    -5.7  0     0     981.2    NA       0.0000   9999     0     0     0    
2019/08/28  05:39:00  BASE  2.08152  172  2.42256  177  -1.1  70    -5.9  0     0     981.2    NA       0.0000   9999     0     0     0    
2019/08/28  05:40:00  BASE  2.54604  170  3.087    167  -1.5  72    -5.9  0     0     981.2    NA       0.0000   9999     0     0     0    
2019/08/28  05:41:00  BASE  3.1164   166  3.75144  163  -1.9  74    -5.9  0     0     981.2    NA       0.0000   9999     0     0     0    
2019/08/28  05:42:00  BASE  3.29868  159  3.75144  163  -2.1  77    -5.7  0     0     981.2    NA       0.0000   9999     0     0     0    
2019/08/28  05:43:00  BASE  3.31044  154  3.83964  152  -2.3  79    -5.4  0     0     981.2    NA       0.0000   9999     0     0     0    
2019/08/28  05:44:00  BASE  3.59268  151  4.05132  149  -2.5  81    -5.3  0     0     981.2    NA       0.0000   9999     0     0     0    
2019/08/28  05:45:01  BASE  3.51624  143  4.05132  149  -2.6  82    -5.2  0     0     981.2    NA       0.0000   9999     0     0     0    
2019/08/28  05:46:00  BASE  3.10464  136  4.05132  149  -2.6  83    -5.0  0     0     981.2    NA       0.0000   9999     0     0     0    
2019/08/28  05:47:00  BASE  2.84592  131  4.05132  149  -2.4  84    -4.8  0     0     981.1    NA       0.0000   9999     0     0     0    
2019/08/28  05:48:00  BASE  2.69892  133  4.05132  149  -2.2  84    -4.5  0     0     981.1    NA       0.0000   9999     0     0     0    
2019/08/28  05:49:00  BASE  2.60484  138  4.05132  149  -2.0  84    -4.4  0     0     981.1    NA       0.0000   9999     0     0     0    
2019/08/28  05:50:00  BASE  2.62248  137  4.05132  149  -1.9  84    -4.3  0     0     981.0    NA       0.0000   9999     0     0     0    
2019/08/28  05:51:00  BASE  2.8224   138  4.05132  149  -1.8  84    -4.2  0     0     981.0    NA       0.0000   9999     0     0     0    
2019/08/28  05:52:00  BASE  2.7636   139  4.05132  149  -1.7  83    -4.2  0     0     981.0    NA       0.0000   9999     0     0     0    
2019/08/28  05:53:00  BASE  2.48136  140  4.05132  149  -1.7  82    -4.3  0     0     981.1    NA       0.0000   9999     0     0     0    
2019/08/28  05:54:00  BASE  2.42844  142  3.53976  135  -1.7  82    -4.4  0     0     981.0    NA       0.0000   9999     5810  0     0    
2019/08/28  05:55:00  BASE  2.32848  135  3.38688  126  -1.7  82    -4.4  0     0     981.0    NA       0.0000   9999     5910  0     0    
2019/08/28  05:56:00  BASE  1.8816   129  3.29868  138  -1.6  81    -4.4  0     0     981.0    NA       0.0000   9999     5870  0     0    
2019/08/28  05:57:00  BASE  1.45236  120  3.29868  138  -1.6  81    -4.5  0     0     981.0    NA       0.0000   9999     5810  0     0    
2019/08/28  05:58:00  BASE  1.323    113  3.29868  138  -1.6  81    -4.5  0     0     981.0    NA       0.0000   9999     5910  0     0    
2019/08/28  05:59:00  BASE  1.29948  122  3.29868  138  -1.5  80    -4.5  0     0     981.0    NA       0.0000   9999     5870  6560  0    
2019/08/28  06:00:00  BASE  1.18188  123  3.29868  138  -1.5  80    -4.6  0     0     981.0    NA       0.0000   9999     6330  0     0    
2019/08/28  06:01:00  BASE  1.45236  118  3.29868  138  -1.6  79    -4.7  0     0     981.0    NA       0.0000   9999     5940  6370  0    
2019/08/28  06:02:00  BASE  2.13444  118  2.75184  130  -1.6  79    -4.8  0     0     981.0    NA       0.0000   9999     5940  0     0    
2019/08/28  06:03:00  BASE  2.42844  120  2.75184  130  -1.7  79    -4.8  0     0     981.0    NA       0.0000   9999     5910  0     0    
2019/08/28  06:04:00  BASE  2.54016  121  2.87532  122  -1.6  79    -4.7  0     0     981.0    NA       0.0000   9999     5970  0     0    
2019/08/28  06:05:00  BASE  2.5872   125  2.87532  122  -1.6  80    -4.6  0     0     981.0    NA       0.0000   9999     5970  0     0    
2019/08/28  06:06:00  BASE  2.57544  130  2.87532  122  -1.4  80    -4.5  0     0     981.0    NA       0.0000   9999     6040  0     0    
2019/08/28  06:07:00  BASE  2.48724  126  2.87532  122  -1.2  79    -4.3  0     0     981.0    NA       0.0000   9999     6000  0     0    
2019/08/28  06:08:00  BASE  2.41668  122  2.87532  122  -1.1  79    -4.3  0     0     981.0    NA       0.0000   9999     6100  0     0    
2019/08/28  06:09:00  BASE  2.40492  118  2.87532  122  -0.9  78    -4.3  0     0     981.0    NA       0.0000   9999     6070  0     0    
2019/08/28  06:10:00  BASE  2.50488  113  3.1164   121  -0.8  77    -4.3  0     0     981.0    NA       0.0000   9999     5940  0     0    
2019/08/28  06:11:00  BASE  2.65188  114  3.1164   121  -0.9  76    -4.5  0     0     981.0    NA       0.0000   9999     6000  0     0    
2019/08/28  06:12:00  BASE  2.77536  115  3.1164   121  -0.9  76    -4.6  0     0     981.0    NA       0.0000   9999     5940  0     0    
2019/08/28  06:13:00  BASE  3.11052  113  3.81024  107  -1.0  76    -4.6  0     0     981.0    NA       0.0000   9999     5940  0     0    
2019/08/28  06:14:00  BASE  3.43392  109  3.81024  112  -1.1  76    -4.7  0     0     981.0    NA       0.0000   9999     5970  0     0    
2019/08/28  06:15:00  BASE  3.48684  112  3.81024  112  -1.2  77    -4.8  0     0     981.0    NA       0.0000   9999     6000  0     0    
2019/08/28  06:16:00  BASE  3.47508  115  3.81024  112  -1.3  77    -4.7  0     0     981.0    NA       0.0000   9999     5970  0     0    
2019/08/28  06:17:00  BASE  3.53388  113  3.81024  110  -1.3  78    -4.6  0     0     981.0    NA       0.0000   9999     6000  0     0    
2019/08/28  06:18:00  BASE  3.48684  110  3.81024  110  -1.3  78    -4.6  0     0     981.0    NA       0.0000   9999     6070  0     0    
2019/08/28  06:19:00  BASE  3.381    114  3.81024  110  -1.3  79    -4.5  0     0     981.0    NA       0.0000   9999     6040  0     0    
2019/08/28  06:20:00  BASE  3.15756  116  3.81024  110  -1.2  79    -4.4  0     0     981.0    NA       0.0000   9999     6040  0     0    
2019/08/28  06:21:00  BASE  3.01644  115  3.81024  110  -1.1  79    -4.3  0     0     981.0    NA       0.0000   9999     6000  0     0    
2019/08/28  06:22:01  BASE  3.0282   111  3.81024  110  -1.0  79    -4.2  0     0     981.0    NA       0.0000   9999     5840  0     0    
2019/08/28  06:23:00  BASE  2.89296  106  3.81024  110  -0.9  78    -4.2  0     0     981.0    NA       0.0000   9999     5870  0     0    
2019/08/28  06:24:00  BASE  2.90472  104  3.81024  110  -0.8  78    -4.2  0     0     981.0    NA       0.0000   9999     5940  0     0    
2019/08/28  06:25:00  BASE  3.03408  105  3.81024  110  -0.8  78    -4.3  0     0     981.0    NA       0.0000   9999     5840  0     0    
2019/08/28  06:26:00  BASE  3.12816  109  3.81024  110  -0.9  77    -4.4  0     0     981.0    NA       0.0000   9999     5840  0     0    
2019/08/28  06:27:00  BASE  3.28104  111  3.69264  105  -1.0  77    -4.5  0     0     981.0    NA       0.0000   9999     5870  0     0    
2019/08/28  06:28:00  BASE  3.05172  111  3.62796  111  -1.0  77    -4.5  0     0     981.0    NA       0.0000   9999     5870  0     0    
2019/08/28  06:29:00  BASE  2.74008  111  3.48096  116  -1.1  77    -4.6  0     0     981.0    NA       0.0000   9999     5940  0     0    
2019/08/28  06:30:00  BASE  3.06348  113  4.1454   121  -1.2  77    -4.7  0     0     981.0    NA       0.0000   9999     6000  0     0    
2019/08/28  06:31:00  BASE  3.53388  116  4.1454   117  -1.1  78    -4.6  0     0     981.0    NA       0.0000   9999     6000  0     0    
2019/08/28  06:32:00  BASE  3.8808   111  4.75104  107  -0.9  78    -4.4  0     0     981.0    NA       0.0000   9999     5910  0     0    
2019/08/28  06:33:01  BASE  4.1454   103  4.75104  107  -0.7  77    -4.3  0     0     981.0    NA       0.0000   9999     5910  0     0    
2019/08/28  06:34:01  BASE  4.08072  96   4.75104  107  -0.6  76    -4.3  0     0     981.0    NA       0.0000   9999     5970  0     0    
2019/08/28  06:35:00  BASE  3.82788  90   4.75104  107  -0.4  75    -4.2  0     0     981.0    NA       0.0000   9999     6040  0     0    
2019/08/28  06:36:00  BASE  3.78672  85   4.75104  107  -0.3  74    -4.4  0     0     981.0    NA       0.0000   9999     6070  0     0    
2019/08/28  06:37:00  BASE  4.02192  81   4.75104  107  -0.3  73    -4.5  0     0     981.0    NA       0.0000   9999     6070  0     0    
2019/08/28  06:38:00  BASE  4.07484  85   4.75104  107  -0.3  73    -4.6  0     0     981.0    NA       0.0000   9999     6040  0     0    
2019/08/28  06:39:00  BASE  4.13952  88   4.75104  107  -0.2  72    -4.6  0     0     981.0    NA       0.0000   9999     6040  0     0    
2019/08/28  06:40:00  BASE  4.03956  89   4.75104  107  -0.2  72    -4.7  0     0     981.0    NA       0.0000   9999     6070  0     0    
2019/08/28  06:41:00  BASE  3.71616  89   4.75104  107  -0.2  72    -4.7  0     0     981.0    NA       0.0000   9999     5970  0     0    
2019/08/28  06:42:01  BASE  3.66912  89   4.53936  93   -0.3  72    -4.7  0     0     980.9    NA       0.0000   9999     6040  0     0    
2019/08/28  06:43:01  BASE  3.78084  84   4.53936  93   -0.3  73    -4.6  0     0     980.9    NA       0.0000   9999     6000  0     0    
2019/08/28  06:44:01  BASE  3.75732  79   4.53936  93   -0.2  73    -4.5  0     0     980.9    NA       0.0000   9999     6070  0     0    
2019/08/28  06:45:01  BASE  3.51624  74   4.53936  93   -0.1  73    -4.4  0     0     980.9    NA       0.0000   9999     6070  0     0    
2019/08/28  06:46:00  BASE  3.4104   72   4.53936  93   -0.0  73    -4.3  0     0     980.9    NA       0.0000   9999     6040  0     0    
2019/08/28  06:47:01  BASE  3.35748  72   4.53936  93   0.0   72    -4.3  0     0     980.9    NA       0.0000   9999     6000  0     0    
2019/08/28  06:48:01  BASE  2.7342   54   4.47468  88   0.0   72    -4.5  0     0     980.9    NA       0.0000   9999     5970  0     0    
2019/08/28  06:49:00  BASE  1.92276  38   4.08072  88   -0.1  71    -4.6  0     0     980.9    NA       0.0000   9999     5970  0     0    
2019/08/28  06:50:00  BASE  1.323    31   3.96312  79   -0.2  72    -4.7  0     0     980.9    NA       0.0000   9999     5970  0     0    
2019/08/28  06:51:00  BASE  0.57624  19   3.96312  79   -0.2  72    -4.7  0     0     980.9    NA       0.0000   9999     5870  0     0    
2019/08/28  06:52:00  BASE  0.39396  353  3.96312  79   -0.3  72    -4.7  0     0     981.0    NA       0.0000   9999     5940  0     0    
2019/08/28  06:53:00  BASE  0.8232   313  3.86904  69   -0.3  73    -4.6  0     0     981.0    NA       0.0000   9999     6000  0     0    
2019/08/28  06:54:00  BASE  1.01136  293  3.86904  69   -0.3  73    -4.6  0     0     981.0    NA       0.0000   9999     5970  0     0    
2019/08/28  06:55:00  BASE  1.04076  284  3.86904  69   -0.3  73    -4.6  0     0     981.0    NA       0.0000   9999     6040  0     0    
2019/08/28  06:56:00  BASE  1.11132  280  3.59856  79   -0.5  73    -4.7  0     0     981.0    NA       0.0000   9999     6200  0     0    
2019/08/28  06:57:00  BASE  1.029    273  3.087    58   -0.6  73    -4.8  0     0     981.0    NA       0.0000   9999     6330  0     0    
2019/08/28  06:58:00  BASE  0.7644   268  1.96392  17   -0.9  74    -4.9  0     0     981.0    NA       0.0000   9999     6200  0     0    
2019/08/28  06:59:00  BASE  0.81732  271  1.57584  34   -1.0  76    -4.8  0     0     981.0    NA       0.0000   9999     6100  0     0    
2019/08/28  07:00:00  BASE  1.33476  278  2.0874   278  -1.1  77    -4.7  0     0     981.0    NA       0.0000   9999     6170  0     0    
2019/08/28  07:01:00  BASE  1.87572  280  2.21088  275  -1.3  78    -4.7  0     0     981.0    NA       0.0000   9999     6170  0     0    
2019/08/28  07:02:00  BASE  2.07564  276  2.21088  275  -1.4  79    -4.6  0     0     981.0    NA       0.0000   9999     6140  0     0    
2019/08/28  07:03:00  BASE  2.18148  279  2.66364  291  -1.4  79    -4.5  0     0     981.0    NA       0.0000   9999     6200  0     0    
2019/08/28  07:04:00  BASE  2.18148  288  2.66364  291  -1.5  80    -4.5  0     0     981.0    NA       0.0000   9999     6140  0     0    
2019/08/28  07:05:00  BASE  2.01684  296  2.66364  291  -1.5  81    -4.4  0     0     981.0    NA       0.0000   9999     6140  0     0    
2019/08/28  07:06:00  BASE  2.07564  300  2.66364  291  -1.5  81    -4.3  0     0     981.0    NA       0.0000   9999     6000  0     0    
2019/08/28  07:07:00  BASE  1.89336  295  2.66364  291  -1.5  82    -4.2  0     0     981.0    NA       0.0000   9999     6000  0     0    
2019/08/28  07:08:00  BASE  1.72872  292  2.66364  291  -1.5  82    -4.2  0     0     980.9    NA       0.0000   9999     6230  0     0    
2019/08/28  07:09:00  BASE  1.86984  300  2.66364  291  -1.5  82    -4.2  0     0     980.9    NA       0.0000   9999     6370  0     0    
2019/08/28  07:10:00  BASE  2.06976  309  2.66364  291  -1.5  82    -4.3  0     0     980.9    NA       0.0000   9999     6140  0     0    
2019/08/28  07:11:00  BASE  2.04036  315  2.66364  291  -1.6  82    -4.3  0     0     980.9    NA       0.0000   9999     6140  0     0    
2019/08/28  07:12:00  BASE  1.68756  316  2.66364  291  -1.6  82    -4.3  0     0     980.9    NA       0.0000   9999     6070  0     0    
2019/08/28  07:13:00  BASE  1.27596  323  2.59896  308  -1.6  82    -4.3  0     0     980.9    NA       0.0000   9999     6040  0     0    
2019/08/28  07:14:00  BASE  1.11132  333  2.59896  308  -1.6  82    -4.2  0     0     980.9    NA       0.0000   9999     6070  0     0    
2019/08/28  07:15:00  BASE  0.98784  336  2.59896  308  -1.4  82    -4.1  0     0     980.9    NA       0.0000   9999     5710  0     0    
2019/08/28  07:16:00  BASE  0.7644   350  2.38728  316  -1.3  82    -4.0  0     0     980.9    NA       0.0000   9999     5970  6500  0    
2019/08/28  07:17:00  BASE  0.71148  352  2.38728  316  -1.2  81    -4.0  0     0     980.9    NA       0.0000   9999     5770  6460  0    
2019/08/28  07:18:00  BASE  0.66444  334  2.38728  316  -1.1  80    -4.0  0     0     980.8    NA       0.0000   9999     5870  0     0    
2019/08/28  07:19:00  BASE  0.44688  319  2.38728  316  -1.0  80    -4.1  0     0     980.8    NA       0.0000   9999     5710  6400  0    
2019/08/28  07:20:00  BASE  0.19992  325  2.0874   312  -1.0  79    -4.2  0     0     980.8    NA       0.0000   9999     5840  0     0    
2019/08/28  07:21:00  BASE  0.4704   358  1.90512  319  -1.1  78    -4.4  0     0     980.8    NA       0.0000   9999     5870  0     0    
2019/08/28  07:22:00  BASE  0.882    17   1.60524  337  -1.1  78    -4.4  0     0     980.7    NA       0.0000   9999     6070  0     0    
2019/08/28  07:23:00  BASE  0.99372  20   1.60524  337  -1.2  78    -4.5  0     0     980.7    NA       0.0000   9999     6140  0     0    
2019/08/28  07:24:00  BASE  0.65856  11   1.18188  337  -1.2  79    -4.5  0     0     980.7    NA       0.0000   9999     6070  0     0    
2019/08/28  07:25:00  BASE  0.15876  355  1.1466   25   -1.2  79    -4.4  0     0     980.7    NA       0.0000   9999     6070  0     0    
2019/08/28  07:26:00  BASE  0        339  1.1466   25   -1.1  79    -4.3  0     0     980.6    NA       0.0000   9999     6100  0     0    
2019/08/28  07:27:00  BASE  0        326  1.1466   25   -1.0  79    -4.2  0     0     980.6    NA       0.0000   9999     6140  0     0    
2019/08/28  07:28:00  BASE  0        324  1.1466   25   -0.9  78    -4.2  0     0     980.6    NA       0.0000   9999     6140  0     0    
2019/08/28  07:29:00  BASE  0        327  1.1466   25   -0.8  78    -4.2  0     0     980.6    NA       0.0000   9999     6200  0     0    
2019/08/28  07:30:00  BASE  0        327  1.1466   25   -0.8  77    -4.3  0     0     980.6    NA       0.0000   9999     6200  0     0    
2019/08/28  07:31:00  BASE  0        327  1.1466   25   -0.7  76    -4.3  0     0     980.6    NA       0.0000   9999     6330  0     0    
2019/08/28  07:32:00  BASE  0.31164  19   1.1466   25   -0.7  76    -4.4  0     0     980.6    NA       0.0000   9999     6300  0     0    
2019/08/28  07:33:00  BASE  0.37044  105  0.9702   113  -0.7  75    -4.5  0     0     980.6    NA       0.0000   9999     6270  0     0    
2019/08/28  07:34:00  BASE  0.0588   107  0.9702   113  -0.7  75    -4.5  0     0     980.6    NA       0.0000   9999     6330  0     0    
2019/08/28  07:35:00  BASE  0        105  0.9702   113  -0.6  75    -4.4  0     0     980.6    NA       0.0000   9999     6270  0     0    
2019/08/28  07:36:00  BASE  0        55   0.9702   113  -0.6  75    -4.4  0     0     980.6    NA       0.0000   9999     6300  0     0    
2019/08/28  07:37:00  BASE  0.11172  5    0.9702   113  -0.5  75    -4.4  0     0     980.6    NA       0.0000   9999     6200  0     0    
2019/08/28  07:38:00  BASE  0.59388  13   1.1172   28   -0.4  74    -4.4  0     0     980.6    NA       0.0000   9999     6230  0     0    
2019/08/28  07:39:00  BASE  1.15836  28   1.84632  33   -0.3  74    -4.4  0     0     980.6    NA       0.0000   9999     6230  0     0    
2019/08/28  07:40:00  BASE  1.323    39   1.87572  36   -0.4  73    -4.7  0     0     980.6    NA       0.0000   9999     6200  0     0    
2019/08/28  07:41:00  BASE  0.92904  45   1.87572  36   -0.6  73    -4.8  0     0     980.6    NA       0.0000   9999     6170  0     0    
2019/08/28  07:42:00  BASE  0.27636  43   1.87572  36   -0.6  74    -4.7  0     0     980.5    NA       0.0000   9999     6200  0     0    
2019/08/28  07:43:00  BASE  0        44   1.87572  36   -0.7  75    -4.6  0     0     980.4    NA       0.0000   9999     6200  0     0    
2019/08/28  07:44:00  BASE  0        52   1.87572  36   -0.7  75    -4.5  0     0     980.4    NA       0.0000   9999     5840  0     0    
2019/08/28  07:45:00  BASE  0        54   1.87572  36   -0.5  76    -4.2  0     0     980.4    NA       0.0000   9999     6200  0     0    
2019/08/28  07:46:00  BASE  0        85   1.87572  36   -0.2  75    -4.1  0     0     980.4    NA       0.0000   9999     6070  0     0    
2019/08/28  07:47:00  BASE  0        124  1.87572  36   -0.1  74    -4.2  0     0     980.4    NA       0.0000   9999     6070  0     0    
2019/08/28  07:48:00  BASE  0        118  1.87572  36   -0.1  73    -4.4  0     0     980.4    NA       0.0000   9999     6200  0     0    
2019/08/28  07:49:00  BASE  0.36456  82   1.87572  36   -0.0  72    -4.4  0     0     980.4    NA       0.0000   9999     6230  0     0    
2019/08/28  07:50:00  BASE  1.02312  46   1.66404  43   -0.0  72    -4.6  0     0     980.4    NA       0.0000   9999     6230  0     0    
2019/08/28  07:51:00  BASE  1.25832  28   1.66404  43   -0.3  72    -4.8  0     0     980.4    NA       0.0000   9999     6200  0     0    
2019/08/28  07:52:00  BASE  1.0584   32   1.66404  43   -0.5  72    -4.9  0     0     980.4    NA       0.0000   9999     6140  0     0    
2019/08/28  07:53:00  BASE  0.88788  53   1.66404  43   -0.6  73    -4.8  0     0     980.3    NA       0.0000   9999     6230  0     0    
2019/08/28  07:54:01  BASE  0.89376  84   1.66404  43   -0.6  74    -4.7  0     0     980.3    NA       0.0000   9999     6270  0     0    
2019/08/28  07:55:00  BASE  0.95256  113  1.66404  43   -0.7  75    -4.6  0     0     980.3    NA       0.0000   9999     6330  0     0    
2019/08/28  07:56:00  BASE  1.1172   135  1.66404  43   -0.6  75    -4.4  0     0     980.3    NA       0.0000   9999     6300  0     0    
2019/08/28  07:57:00  BASE  1.2936   142  1.66404  43   -0.6  75    -4.4  0     0     980.3    NA       0.0000   9999     6300  0     0    
2019/08/28  07:58:00  BASE  1.31712  140  1.66404  43   -0.7  75    -4.5  0     0     980.3    NA       0.0000   9999     6270  0     0    
2019/08/28  07:59:00  BASE  1.27008  140  1.66404  43   -0.8  75    -4.6  0     0     980.3    NA       0.0000   9999     6270  0     0    
2019/08/28  08:00:00  BASE  1.0584   144  1.42296  20   -1.0  76    -4.7  0     0     980.3    NA       0.0000   9999     6300  0     0    
2019/08/28  08:01:00  BASE  0.8232   138  1.35828  138  -1.2  77    -4.7  0     0     980.3    NA       0.0000   9999     6230  0     0    
2019/08/28  08:02:00  BASE  0.7938   130  1.35828  138  -1.3  78    -4.7  0     0     980.3    NA       0.0000   9999     6230  0     0    
2019/08/28  08:03:00  BASE  0.77028  130  1.35828  138  -1.3  79    -4.6  0     0     980.2    NA       0.0000   9999     6230  0     0    
2019/08/28  08:04:00  BASE  0.69972  131  1.35828  138  -1.3  79    -4.4  0     0     980.2    NA       0.0000   9999     6230  0     0    
2019/08/28  08:05:00  BASE  0.72912  135  1.35828  138  -1.2  80    -4.2  0     0     980.2    NA       0.0000   9999     0     0     0    
2019/08/28  08:06:00  BASE  0.80556  137  1.35828  138  -1.0  80    -4.0  0     0     980.2    NA       0.0000   9999     0     0     0    
2019/08/28  08:07:00  BASE  0.97608  136  1.35828  138  -0.8  79    -3.9  0     0     980.2    NA       0.0000   9999     0     0     0    
2019/08/28  08:08:00  BASE  1.21128  136  1.42296  136  -0.6  79    -3.9  0     0     980.2    NA       0.0000   9999     0     0     0    
2019/08/28  08:09:00  BASE  1.29948  138  1.42296  136  -0.6  78    -4.0  0     0     980.2    NA       0.0000   9999     0     0     0    
2019/08/28  08:10:00  BASE  1.2936   141  1.42296  141  -0.7  77    -4.2  0     0     980.2    NA       0.0000   9999     0     0     0    
2019/08/28  08:11:00  BASE  1.24068  147  1.42296  141  -0.8  77    -4.4  0     0     980.2    NA       0.0000   9999     0     0     0    
2019/08/28  08:12:00  BASE  1.21128  155  1.42296  141  -0.9  76    -4.6  0     0     980.1    NA       0.0000   9999     0     0     0    
2019/08/28  08:13:00  BASE  1.34064  159  1.57584  159  -1.1  77    -4.6  0     0     980.1    NA       0.0000   9999     0     0     0    
2019/08/28  08:14:00  BASE  1.47588  160  1.57584  163  -1.2  77    -4.7  0     0     980.1    NA       0.0000   9999     0     0     0    
2019/08/28  08:15:00  BASE  1.47     157  1.57584  163  -1.3  78    -4.7  0     0     980.1    NA       0.0000   9999     0     0     0    
2019/08/28  08:16:00  BASE  1.5582   156  1.81692  160  -1.5  78    -4.8  0     0     980.1    NA       0.0000   9999     0     0     0    
2019/08/28  08:17:00  BASE  1.52292  159  1.81692  160  -1.7  79    -4.9  0     0     980.1    NA       0.0000   9999     0     0     0    
2019/08/28  08:18:00  BASE  1.2642   160  1.81692  160  -1.8  80    -4.9  0     0     980.2    NA       0.0000   9999     0     0     0    
2019/08/28  08:19:00  BASE  0.99372  154  1.81692  160  -1.9  81    -4.8  0     0     980.1    NA       0.0000   9999     0     0     0    
2019/08/28  08:20:00  BASE  0.84084  147  1.81692  160  -1.9  82    -4.6  0     0     980.1    NA       0.0000   9999     0     0     0    
2019/08/28  08:21:00  BASE  0.882    150  1.81692  160  -1.9  83    -4.4  0     0     980.1    NA       0.0000   9999     0     0     0    
2019/08/28  08:22:00  BASE  0.89964  158  1.81692  160  -1.8  84    -4.2  0     0     980.1    NA       0.0000   9999     0     0     0    
2019/08/28  08:23:00  BASE  0.84084  164  1.81692  160  -1.7  85    -4.0  0     0     980.0    NA       0.0000   9999     0     0     0    
2019/08/28  08:24:00  BASE  0.74088  168  1.81692  160  -1.6  85    -3.8  0     0     980.0    NA       0.0000   9999     0     0     0    
2019/08/28  08:25:00  BASE  0.68796  168  1.81692  160  -1.5  85    -3.7  0     0     980.0    NA       0.0000   9999     0     0     0    
2019/08/28  08:26:00  BASE  0.52332  169  1.54056  161  -1.5  85    -3.6  0     0     980.0    NA       0.0000   9999     0     0     0    
2019/08/28  08:27:00  BASE  0.18816  174  1.35828  168  -1.5  85    -3.6  0     0     980.1    NA       0.0000   9999     0     0     0    
2019/08/28  08:28:00  BASE  0        192  0.9702   161  -1.4  85    -3.6  0     0     980.1    NA       0.0000   9999     0     0     0    
2019/08/28  08:29:00  BASE  0.45864  226  1.90512  25   -1.4  85    -3.6  0     0     980.1    NA       0.0000   9999     0     0     0    
2019/08/28  08:30:00  BASE  1.46412  6    2.26968  22   -1.6  84    -3.9  0     0     980.2    NA       0.0000   9999     0     0     0    
2019/08/28  08:31:00  BASE  1.80516  6    2.26968  22   -1.8  84    -4.1  0     0     980.2    NA       0.0000   9999     0     0     0    
2019/08/28  08:32:00  BASE  1.3818   2    2.26968  22   -2.0  85    -4.3  0     0     980.2    NA       0.0000   9999     0     0     0    
2019/08/28  08:33:00  BASE  1.05252  1    2.26968  22   -2.3  85    -4.5  0     0     980.1    NA       0.0000   9999     0     0     0    
2019/08/28  08:34:00  BASE  0.85848  6    2.26968  22   -2.5  85    -4.6  0     0     980.1    NA       0.0000   9999     0     0     0    
2019/08/28  08:35:00  BASE  0.56448  10   2.26968  22   -2.4  86    -4.4  0     0     980.1    NA       0.0000   9999     0     0     0    
2019/08/28  08:36:00  BASE  0.1764   15   2.26968  22   -2.3  87    -4.1  0     0     980.1    NA       0.0000   9999     0     0     0    
2019/08/28  08:37:00  BASE  0.294    10   2.26968  22   -2.1  87    -3.9  0     0     980.2    NA       0.0000   9999     0     0     0    
2019/08/28  08:38:00  BASE  0.57036  353  2.26968  22   -1.9  87    -3.7  0     0     980.2    NA       0.0000   9999     0     0     0    
2019/08/28  08:39:00  BASE  0.47628  6    2.26968  22   -1.7  87    -3.6  0     0     980.2    NA       0.0000   9999     0     0     0    
2019/08/28  08:40:00  BASE  0.32928  35   1.96392  2    -1.7  86    -3.7  0     0     980.1    NA       0.0000   9999     0     0     0    
2019/08/28  08:41:00  BASE  0.12936  43   1.27008  5    -1.7  86    -3.7  0     0     980.1    NA       0.0000   9999     0     0     0    
2019/08/28  08:42:00  BASE  0        65   1.24068  58   -1.6  86    -3.7  0     0     980.1    NA       0.0000   9999     14830 0     0    
2019/08/28  08:43:00  BASE  0        129  1.24068  58   -1.6  85    -3.8  0     0     980.1    NA       0.0000   9999     14900 0     0    
2019/08/28  08:44:00  BASE  0        161  1.24068  58   -1.6  85    -3.7  0     0     980.1    NA       0.0000   9999     14730 0     0    
2019/08/28  08:45:00  BASE  0        164  1.24068  58   -1.4  85    -3.6  0     0     980.1    NA       0.0000   9999     14760 0     0    
2019/08/28  08:46:00  BASE  0        160  1.24068  58   -1.4  85    -3.6  0     0     980.1    NA       0.0000   9999     14730 0     0    
2019/08/28  08:47:00  BASE  0.36456  139  1.24068  58   -1.5  84    -3.8  0     0     980.1    NA       0.0000   9999     14700 0     0    
2019/08/28  08:48:00  BASE  0.47628  114  1.24068  58   -1.5  83    -4.0  0     0     980.1    NA       0.0000   9999     14670 0     0    
2019/08/28  08:49:00  BASE  0.1176   97   1.24068  58   -1.5  82    -4.2  0     0     980.0    NA       0.0000   9999     0     0     0    
2019/08/28  08:50:00  BASE  0        29   0.90552  119  -1.5  81    -4.3  0     0     979.9    NA       0.0000   9999     0     0     0    
2019/08/28  08:51:00  BASE  0        343  0.90552  119  -1.4  80    -4.4  0     0     979.9    NA       0.0000   9999     0     0     0    
2019/08/28  08:52:00  BASE  0.0588   355  0.90552  119  -1.2  79    -4.5  0     0     979.9    NA       0.0000   9999     0     0     0    
2019/08/28  08:53:00  BASE  0.58212  13   1.29948  2    -1.1  77    -4.6  0     0     980.0    NA       0.0000   9999     0     0     0    
2019/08/28  08:54:00  BASE  1.176    5    1.35828  349  -1.1  76    -4.8  0     0     979.9    NA       0.0000   9999     0     0     0    
2019/08/28  08:55:00  BASE  1.28772  347  1.35828  349  -1.1  74    -5.1  0     0     979.9    NA       0.0000   9999     0     0     0    
2019/08/28  08:56:00  BASE  1.10544  343  1.35828  349  -1.3  74    -5.4  0     0     979.9    NA       0.0000   9999     0     0     0    
2019/08/28  08:57:00  BASE  0.5292   343  1.35828  349  -1.4  73    -5.6  0     0     979.9    NA       0.0000   9999     0     0     0    
2019/08/28  08:58:00  BASE  0.0588   353  1.35828  349  -1.4  73    -5.7  0     0     979.9    NA       0.0000   9999     0     0     0    
2019/08/28  08:59:00  BASE  0.18228  18   1.35828  349  -1.4  73    -5.7  0     0     979.9    NA       0.0000   9999     0     0     0    
2019/08/28  09:00:00  BASE  0.21168  29   1.35828  349  -1.4  73    -5.7  0     0     979.9    NA       0.0000   9999     0     0     0    
2019/08/28  09:01:00  BASE  0.02352  23   1.35828  349  -1.3  72    -5.7  0     0     979.9    NA       0.0000   9999     0     0     0    
2019/08/28  09:02:00  BASE  0        24   1.35828  349  -1.2  71    -5.8  0     0     979.9    NA       0.0000   9999     0     0     0    
2019/08/28  09:03:00  BASE  0.48804  56   1.93452  96   -1.1  70    -5.9  0     0     979.9    NA       0.0000   9999     0     0     0    
2019/08/28  09:04:00  BASE  1.19952  90   2.0286   95   -1.1  69    -6.1  0     0     979.9    NA       0.0000   9999     0     0     0    
2019/08/28  09:05:00  BASE  1.3818   94   2.0286   95   -1.1  68    -6.3  0     0     979.9    NA       0.0000   9999     0     0     0    
2019/08/28  09:06:00  BASE  1.03488  86   2.0286   95   -1.1  68    -6.2  0     0     979.9    NA       0.0000   9999     0     0     0    
2019/08/28  09:07:00  BASE  0.54096  64   2.0286   95   -1.0  68    -6.2  0     0     979.9    NA       0.0000   9999     0     0     0    
2019/08/28  09:08:00  BASE  0.34104  47   2.0286   95   -0.9  68    -6.1  0     0     979.9    NA       0.0000   9999     0     0     0    
2019/08/28  09:09:00  BASE  0.39396  56   2.0286   95   -0.7  67    -6.0  0     0     979.9    NA       0.0000   9999     0     0     0    
2019/08/28  09:10:00  BASE  0.68796  70   2.0286   95   -0.5  67    -6.0  0     0     979.9    NA       0.0000   9999     0     0     0    
2019/08/28  09:11:00  BASE  0.72912  74   2.0286   95   -0.4  66    -6.0  0     0     979.8    NA       0.0000   9999     0     0     0    
2019/08/28  09:12:00  BASE  0.25872  75   2.0286   95   -0.4  65    -6.1  0     0     979.8    NA       0.0000   9999     15620 0     0    
2019/08/28  09:13:00  BASE  0        85   2.0286   95   -0.3  65    -6.1  0     0     979.8    NA       0.0000   9999     15580 0     0    
2019/08/28  09:14:00  BASE  0.74088  94   2.0286   92   -0.3  64    -6.2  0     0     979.9    NA       0.0000   9999     0     0     0    
2019/08/28  09:15:00  BASE  1.4994   96   2.0286   92   -0.3  64    -6.4  0     0     979.8    NA       0.0000   9999     15520 0     0    
2019/08/28  09:16:00  BASE  1.31712  85   2.0286   92   -0.3  64    -6.4  0     0     979.8    NA       0.0000   9999     0     0     0    
2019/08/28  09:17:00  BASE  1.07604  65   2.0286   92   -0.3  64    -6.4  0     0     979.8    NA       0.0000   9999     0     0     0    
2019/08/28  09:18:00  BASE  1.19952  62   2.0286   92   -0.3  63    -6.4  0     0     979.8    NA       0.0000   9999     0     0     0    
2019/08/28  09:19:00  BASE  1.93452  73   2.87532  81   -0.3  63    -6.5  0     0     979.8    NA       0.0000   9999     0     0     0    
2019/08/28  09:20:00  BASE  2.646    81   3.26928  78   -0.4  63    -6.5  0     0     979.8    NA       0.0000   9999     0     0     0    
2019/08/28  09:21:00  BASE  2.92824  90   3.29868  96   -0.5  63    -6.6  0     0     979.8    NA       0.0000   9999     0     0     0    
2019/08/28  09:22:00  BASE  2.89296  100  3.29868  96   -0.6  63    -6.8  0     0     979.9    NA       0.0000   9999     0     0     0    
2019/08/28  09:23:00  BASE  2.79888  103  3.69264  82   -0.8  64    -6.9  0     0     979.8    NA       0.0000   9999     0     0     0    
2019/08/28  09:24:00  BASE  2.35788  124  3.69264  82   -0.9  64    -6.9  0     0     979.9    NA       0.0000   9999     0     0     0    
2019/08/28  09:25:00  BASE  1.82868  154  3.69264  82   -1.0  65    -6.9  0     0     979.9    NA       0.0000   9999     0     0     0    
2019/08/28  09:26:00  BASE  2.19912  166  3.69264  82   -1.1  65    -6.9  0     0     979.9    NA       0.0000   9999     0     0     0    
2019/08/28  09:27:00  BASE  2.69892  168  3.69264  82   -1.3  65    -7.0  0     0     979.9    NA       0.0000   9999     0     0     0    
2019/08/28  09:28:00  BASE  2.48136  161  3.69264  82   -1.6  66    -7.2  0     0     979.9    NA       0.0000   9999     0     0     0    
2019/08/28  09:29:00  BASE  2.18736  156  3.69264  82   -2.0  67    -7.3  0     0     979.9    NA       0.0000   9999     0     0     0    
2019/08/28  09:30:00  BASE  2.14032  161  3.69264  82   -2.3  69    -7.2  0     0     979.9    NA       0.0000   9999     0     0     0    
2019/08/28  09:31:00  BASE  1.68168  167  3.69264  82   -2.5  72    -6.9  0     0     979.9    NA       0.0000   9999     0     0     0    
2019/08/28  09:32:00  BASE  1.0878   177  3.69264  82   -2.4  75    -6.4  0     0     979.9    NA       0.0000   9999     15360 0     0    
2019/08/28  09:33:00  BASE  1.0878   188  3.38688  170  -2.3  77    -5.7  0     0     979.9    NA       0.0000   9999     15320 0     0    
2019/08/28  09:34:00  BASE  1.4994   182  3.38688  170  -2.1  78    -5.3  0     0     979.9    NA       0.0000   9999     15320 0     0    
2019/08/28  09:35:00  BASE  1.55232  172  3.38688  170  -2.0  79    -5.1  0     0     979.9    NA       0.0000   9999     15290 0     0    
2019/08/28  09:36:00  BASE  1.47588  158  3.51036  105  -2.0  80    -5.1  0     0     979.9    NA       0.0000   9999     15260 0     0    
2019/08/28  09:37:00  BASE  2.7048   126  4.83924  113  -2.1  80    -5.1  0     0     979.9    NA       0.0000   9999     15260 0     0    
2019/08/28  09:38:00  BASE  4.56876  105  6.2916   103  -2.1  80    -5.1  0     0     979.9    NA       0.0000   9999     15220 0     0    
2019/08/28  09:39:00  BASE  5.34492  95   6.2916   103  -2.0  80    -5.0  0     0     979.9    NA       0.0000   9999     14990 0     0    
2019/08/28  09:40:00  BASE  5.58012  94   6.47388  94   -1.7  79    -4.8  0     0     979.8    NA       0.0000   9999     6200  14990 0    
2019/08/28  09:41:00  BASE  5.93292  96   7.10892  95   -1.4  77    -4.9  0     0     979.8    NA       0.0000   9999     6170  15130 0    
2019/08/28  09:42:00  BASE  5.30376  92   7.10892  95   -1.2  75    -5.0  0     0     979.8    NA       0.0000   9999     6100  15190 0    
2019/08/28  09:43:00  BASE  4.00428  86   7.10892  95   -0.9  73    -5.2  0     0     979.9    NA       0.0000   9999     6100  15160 0    
2019/08/28  09:44:00  BASE  4.22184  91   7.10892  95   -0.8  70    -5.5  0     0     979.9    NA       0.0000   9999     6000  15090 0    
2019/08/28  09:45:00  BASE  5.3802   101  7.10892  95   -0.8  69    -5.7  0     0     979.8    NA       0.0000   9999     6000  15090 0    
2019/08/28  09:46:00  BASE  5.62716  108  7.10892  95   -0.7  69    -5.8  0     0     979.9    NA       0.0000   9999     6000  0     0    
2019/08/28  09:47:00  BASE  5.58012  111  7.10892  95   -0.7  68    -5.8  0     0     979.8    NA       0.0000   9999     6040  14990 0    
2019/08/28  09:48:00  BASE  5.6742   101  7.10892  95   -0.7  68    -5.9  0     0     979.8    NA       0.0000   9999     6000  15060 0    
2019/08/28  09:49:00  BASE  5.1744   93   7.10892  95   -0.6  68    -5.9  0     0     979.8    NA       0.0000   9999     6000  0     0    
2019/08/28  09:50:00  BASE  4.39236  93   7.10892  95   -0.6  67    -6.0  0     0     979.8    NA       0.0000   9999     5970  0     0    
2019/08/28  09:51:00  BASE  4.16304  86   6.68556  106  -0.7  67    -6.0  0     0     979.8    NA       0.0000   9999     5970  15160 0    
2019/08/28  09:52:00  BASE  4.21596  76   6.68556  106  -0.7  68    -6.0  0     0     979.8    NA       0.0000   9999     6000  15030 0    
2019/08/28  09:53:01  BASE  3.969    74   6.68556  106  -0.8  68    -5.9  0     0     979.8    NA       0.0000   9999     6000  0     0    
2019/08/28  09:54:00  BASE  4.55112  82   6.68556  106  -0.9  69    -5.9  0     0     979.8    NA       0.0000   9999     5970  0     0    
2019/08/28  09:55:00  BASE  5.48016  92   6.68556  106  -0.9  70    -5.7  0     0     979.8    NA       0.0000   9999     5970  0     0    
2019/08/28  09:56:00  BASE  6.05052  97   7.07952  99   -0.7  70    -5.5  0     0     979.8    NA       0.0000   9999     5940  0     0    
2019/08/28  09:57:00  BASE  6.5268   100  7.07952  99   -0.6  70    -5.4  0     0     979.8    NA       0.0000   9999     5970  0     0    
2019/08/28  09:58:00  BASE  6.78552  98   7.59108  99   -0.4  69    -5.5  0     0     979.8    NA       0.0000   9999     6040  0     0    
2019/08/28  09:59:00  BASE  6.75612  97   7.59108  99   -0.3  68    -5.5  0     0     979.8    NA       0.0000   9999     5970  0     0    
2019/08/28  10:00:00  BASE  6.30924  103  7.59108  99   -0.2  67    -5.6  0     0     979.8    NA       0.0000   9999     6000  0     0    
2019/08/28  10:01:00  BASE  6.13284  107  7.59108  99   -0.2  67    -5.6  0     0     979.7    NA       0.0000   9999     6040  0     0    
2019/08/28  10:02:00  BASE  6.15048  103  7.59108  99   -0.2  67    -5.6  0     0     979.7    NA       0.0000   9999     6100  0     0    
2019/08/28  10:03:00  BASE  6.31512  101  7.59108  99   -0.3  67    -5.6  0     0     979.7    NA       0.0000   9999     6070  0     0    
2019/08/28  10:04:00  BASE  6.2622   104  7.59108  99   -0.3  67    -5.6  0     0     979.7    NA       0.0000   9999     6040  0     0    
2019/08/28  10:05:00  BASE  5.79768  108  7.59108  99   -0.3  67    -5.6  0     0     979.7    NA       0.0000   9999     5970  0     0    
2019/08/28  10:06:00  BASE  5.76828  109  7.59108  99   -0.4  67    -5.7  0     0     979.7    NA       0.0000   9999     13290 0     0    
2019/08/28  10:07:00  BASE  5.84472  109  7.59108  99   -0.4  67    -5.8  0     0     979.6    NA       0.0000   9999     6070  0     0    
2019/08/28  10:08:00  BASE  5.69184  111  6.92664  104  -0.5  67    -5.8  0     0     979.6    NA       0.0000   9999     14340 0     0    
2019/08/28  10:09:00  BASE  5.36844  113  6.92664  104  -0.5  68    -5.7  0     0     979.6    NA       0.0000   9999     13480 0     0    
2019/08/28  10:10:00  BASE  4.98036  113  6.92664  104  -0.4  68    -5.6  0     0     979.6    NA       0.0000   9999     14670 0     0    
2019/08/28  10:11:00  BASE  4.86276  112  6.92664  104  -0.4  68    -5.6  0     0     979.6    NA       0.0000   9999     14700 0     0    
2019/08/28  10:12:00  BASE  5.10972  116  6.92664  104  -0.3  67    -5.6  0     0     979.6    NA       0.0000   9999     14760 0     0    
2019/08/28  10:13:00  BASE  5.44488  120  6.41508  112  -0.1  67    -5.5  0     0     979.6    NA       0.0000   9999     15130 0     0    
2019/08/28  10:14:00  BASE  5.69184  121  6.41508  112  0.0   66    -5.5  0     0     979.6    NA       0.0000   9999     15160 0     0    
2019/08/28  10:15:00  BASE  5.69772  122  6.41508  112  0.1   66    -5.6  0     0     979.6    NA       0.0000   9999     0     0     0    
2019/08/28  10:16:00  BASE  5.73888  123  6.41508  112  0.2   65    -5.5  0     0     979.6    NA       0.0000   9999     0     0     0    
2019/08/28  10:17:00  BASE  6.01524  123  6.53268  125  0.3   65    -5.5  0     0     979.6    NA       0.0000   9999     0     0     0    
2019/08/28  10:18:00  BASE  6.31512  123  6.83844  125  0.4   65    -5.5  0     0     979.6    NA       0.0000   9999     0     0     0    
2019/08/28  10:19:00  BASE  6.468    121  6.92664  125  0.5   65    -5.4  0     0     979.6    NA       0.0000   9999     0     0     0    
2019/08/28  10:20:00  BASE  5.99172  119  6.92664  125  0.5   65    -5.4  0     0     979.6    NA       0.0000   9999     0     0     0    
2019/08/28  10:21:00  BASE  5.6742   117  6.92664  125  0.5   65    -5.4  0     0     979.5    NA       0.0000   9999     0     0     0    
2019/08/28  10:22:00  BASE  5.50368  116  6.92664  125  0.6   64    -5.4  0     0     979.5    NA       0.0000   9999     0     0     0    
2019/08/28  10:23:00  BASE  5.35668  120  6.92664  125  0.6   64    -5.4  0     0     979.5    NA       0.0000   9999     0     0     0    
2019/08/28  10:24:00  BASE  5.31552  122  6.92664  125  0.5   64    -5.5  0     0     979.5    NA       0.0000   9999     0     0     0    
2019/08/28  10:25:00  BASE  5.01564  122  6.92664  125  0.5   64    -5.5  0     0     979.5    NA       0.0000   9999     0     0     0    
2019/08/28  10:26:00  BASE  4.95684  123  6.92664  125  0.6   64    -5.5  0     0     979.5    NA       0.0000   9999     0     0     0    
2019/08/28  10:27:00  BASE  4.92744  126  6.92664  125  0.5   64    -5.5  0     0     979.5    NA       0.0000   9999     0     0     0    
2019/08/28  10:28:00  BASE  4.83924  127  6.92664  125  0.5   64    -5.5  0     0     979.5    NA       0.0000   9999     0     0     0    
2019/08/28  10:29:00  BASE  4.851    129  6.44448  116  0.5   64    -5.6  0     0     979.5    NA       0.0000   9999     0     0     0    
2019/08/28  10:30:00  BASE  4.83924  135  6.44448  116  0.3   64    -5.7  0     0     979.5    NA       0.0000   9999     0     0     0    
2019/08/28  10:31:00  BASE  4.80984  139  5.89764  119  0.1   64    -5.8  0     0     979.5    NA       0.0000   9999     0     0     0    
2019/08/28  10:32:00  BASE  4.33944  141  5.89764  119  -0.1  65    -5.9  0     0     979.5    NA       0.0000   9999     0     0     0    
2019/08/28  10:33:00  BASE  3.89256  140  5.65656  138  -0.3  66    -6.0  0     0     979.5    NA       0.0000   9999     0     0     0    
2019/08/28  10:34:00  BASE  4.44528  137  5.65656  138  -0.6  67    -6.0  0     0     979.5    NA       0.0000   9999     0     0     0    
2019/08/28  10:35:00  BASE  5.0568   135  5.65656  138  -0.8  68    -5.9  0     0     979.5    NA       0.0000   9999     0     0     0    
2019/08/28  10:36:00  BASE  4.78632  130  5.65656  138  -0.9  69    -5.8  0     0     979.5    NA       0.0000   9999     0     0     0    
2019/08/28  10:37:00  BASE  4.4982   124  5.44488  138  -0.8  70    -5.6  0     0     979.5    NA       0.0000   9999     0     0     0    
2019/08/28  10:38:00  BASE  4.2924   124  5.44488  138  -0.7  70    -5.4  0     0     979.5    NA       0.0000   9999     0     0     0    
2019/08/28  10:39:00  BASE  3.79848  127  5.44488  138  -0.6  70    -5.4  0     0     979.5    NA       0.0000   9999     0     0     0    
2019/08/28  10:40:00  BASE  3.48096  124  5.44488  138  -0.4  69    -5.3  0     0     979.5    NA       0.0000   9999     0     0     0    
2019/08/28  10:41:00  BASE  3.43392  125  5.44488  138  -0.2  68    -5.4  0     0     979.5    NA       0.0000   9999     0     0     0    
2019/08/28  10:42:00  BASE  3.51036  129  5.44488  138  -0.2  67    -5.6  0     0     979.4    NA       0.0000   9999     15060 0     0    
2019/08/28  10:43:00  BASE  3.50448  131  5.44488  138  -0.2  66    -5.7  0     0     979.3    NA       0.0000   9999     0     0     0    
2019/08/28  10:44:00  BASE  3.66912  133  5.35668  136  -0.2  65    -5.9  0     0     979.3    NA       0.0000   9999     0     0     0    
2019/08/28  10:45:00  BASE  4.116    135  5.08032  132  -0.3  65    -6.1  0     0     979.3    NA       0.0000   9999     0     0     0    
2019/08/28  10:46:00  BASE  4.32768  129  4.83924  125  -0.5  66    -6.1  0     0     979.3    NA       0.0000   9999     0     0     0    
2019/08/28  10:47:00  BASE  4.40412  121  4.75104  118  -0.6  66    -6.1  0     0     979.3    NA       0.0000   9999     0     0     0    
2019/08/28  10:48:00  BASE  4.5864   119  4.86864  116  -0.6  67    -6.0  0     0     979.3    NA       0.0000   9999     0     0     0    
2019/08/28  10:49:00  BASE  4.52172  120  4.86864  116  -0.6  67    -5.9  0     0     979.2    NA       0.0000   9999     0     0     0    
2019/08/28  10:50:00  BASE  4.43352  119  4.86864  116  -0.5  67    -5.8  0     0     979.2    NA       0.0000   9999     0     0     0    
2019/08/28  10:51:00  BASE  4.42176  115  4.86864  116  -0.3  67    -5.7  0     0     979.2    NA       0.0000   9999     0     0     0    
2019/08/28  10:52:00  BASE  4.34532  110  4.86864  116  -0.3  66    -5.9  0     0     979.2    NA       0.0000   9999     0     0     0    
2019/08/28  10:53:00  BASE  4.263    104  4.86864  116  -0.4  66    -6.0  0     0     979.3    NA       0.0000   9999     0     0     0    
2019/08/28  10:54:00  BASE  4.16892  106  4.86864  116  -0.5  66    -6.2  0     0     979.3    NA       0.0000   9999     0     0     0    
2019/08/28  10:55:00  BASE  4.09248  115  4.86864  116  -0.6  66    -6.2  0     0     979.3    NA       0.0000   9999     0     0     0    
2019/08/28  10:56:00  BASE  4.11012  117  4.86864  116  -0.7  66    -6.2  0     0     979.3    NA       0.0000   9999     0     0     0    
2019/08/28  10:57:00  BASE  4.41     106  5.47428  96   -0.6  66    -6.1  0     0     979.3    NA       0.0000   9999     0     0     0    
2019/08/28  10:58:00  BASE  5.19792  94   6.56208  85   -0.5  66    -6.0  0     0     979.2    NA       0.0000   9999     0     0     0    
2019/08/28  10:59:00  BASE  5.59776  93   6.71496  93   -0.3  65    -6.1  0     0     979.2    NA       0.0000   9999     0     0     0    
2019/08/28  11:00:00  BASE  5.48604  93   6.71496  93   -0.2  64    -6.1  0     0     979.2    NA       0.0000   9999     0     0     0    
2019/08/28  11:01:00  BASE  5.98584  93   7.2618   91   -0.1  64    -6.2  1     0     979.2    NA       0.0000   9999     0     0     0    
2019/08/28  11:02:00  BASE  6.36804  94   7.2618   91   -0.1  63    -6.2  1     0     979.2    NA       0.0000   9999     0     0     0    
2019/08/28  11:03:00  BASE  6.4974   95   7.2618   91   -0.1  63    -6.4  1     0     979.2    NA       0.0000   9999     0     0     0    
2019/08/28  11:04:00  BASE  6.10932  92   7.2618   91   -0.2  63    -6.4  1     0     979.2    NA       0.0000   9999     0     0     0    
2019/08/28  11:05:00  BASE  5.69184  90   7.2618   91   -0.4  63    -6.5  1     0     979.2    NA       0.0000   9999     0     0     0    
2019/08/28  11:06:00  BASE  6.16812  91   7.3794   97   -0.4  64    -6.4  1     0     979.1    NA       0.0000   9999     0     0     0    
2019/08/28  11:07:00  BASE  6.75024  92   8.04384  99   -0.4  64    -6.4  1     0     979.1    NA       0.0000   9999     0     0     0    
2019/08/28  11:08:00  BASE  7.16772  95   8.59068  95   -0.3  64    -6.2  1     0     979.1    NA       0.0000   9999     0     0     0    
2019/08/28  11:09:00  BASE  7.56756  100  8.62008  105  -0.3  64    -6.2  1     0     979.1    NA       0.0000   9999     0     0     0    
2019/08/28  11:10:00  BASE  7.70868  98   8.62008  105  -0.2  65    -6.0  1     0     979.1    NA       0.0000   9999     0     0     0    
2019/08/28  11:11:00  BASE  7.44408  98   8.62008  105  -0.2  64    -6.1  2     0     979.1    NA       0.0000   9999     0     0     0    
2019/08/28  11:12:00  BASE  7.1442   101  8.62008  105  -0.2  65    -6.1  2     0     979.1    NA       0.0000   9999     0     0     0    
2019/08/28  11:13:00  BASE  6.74436  106  8.62008  105  -0.4  65    -6.1  2     0     979.2    NA       0.0000   9999     0     0     0    
2019/08/28  11:14:00  BASE  6.47388  111  8.62008  105  -0.5  66    -6.1  2     0     979.1    NA       0.0000   9999     0     0     0    
2019/08/28  11:15:00  BASE  6.44448  112  8.62008  105  -0.5  67    -5.9  2     0     979.1    NA       0.0000   9999     0     0     0    
2019/08/28  11:16:00  BASE  6.65616  109  8.62008  105  -0.5  67    -5.8  2     0     979.1    NA       0.0000   9999     0     0     0    
2019/08/28  11:17:00  BASE  6.5562   112  8.62008  105  -0.5  67    -5.8  2     0     979.1    NA       0.0000   9999     0     0     0    
2019/08/28  11:18:00  BASE  6.30336  116  8.62008  105  -0.3  67    -5.6  3     0     979.1    NA       0.0000   9999     0     0     0    
2019/08/28  11:19:00  BASE  6.2034   109  8.10852  102  -0.2  67    -5.6  3     0     979.1    NA       0.0000   9999     0     0     0    
2019/08/28  11:20:00  BASE  6.09756  106  8.04384  101  -0.2  66    -5.8  3     0     979.0    NA       0.0000   9999     0     0     0    
2019/08/28  11:21:00  BASE  6.31512  108  7.71456  96   -0.4  66    -6.0  3     0     979.0    NA       0.0000   9999     0     0     0    
2019/08/28  11:22:00  BASE  6.5562   108  7.65576  105  -0.5  66    -6.0  3     0     979.0    NA       0.0000   9999     0     0     0    
2019/08/28  11:23:00  BASE  6.60324  108  7.65576  105  -0.7  67    -6.1  3     0     979.0    NA       0.0000   9999     0     0     0    
2019/08/28  11:24:00  BASE  6.16812  109  7.65576  105  -0.9  68    -6.1  4     0     979.0    NA       0.0000   9999     0     0     0    
2019/08/28  11:25:00  BASE  5.62716  113  7.65576  105  -0.9  68    -6.0  4     0     979.0    NA       0.0000   9999     0     0     0    
2019/08/28  11:26:00  BASE  5.30964  114  7.2912   108  -0.7  69    -5.7  4     0     979.0    NA       0.0000   9999     0     0     0    
2019/08/28  11:27:00  BASE  5.10384  115  7.2912   108  -0.6  69    -5.6  4     0     979.0    NA       0.0000   9999     0     0     0    
2019/08/28  11:28:00  BASE  5.20968  115  7.2912   108  -0.4  68    -5.6  4     0     979.0    NA       0.0000   9999     0     0     0    
2019/08/28  11:29:00  BASE  5.37432  113  7.2912   108  -0.4  68    -5.7  4     0     979.0    NA       0.0000   9999     0     0     0    
2019/08/28  11:30:00  BASE  5.13912  112  7.2912   108  -0.4  67    -5.7  5     0     979.0    NA       0.0000   9999     0     0     0    
2019/08/28  11:31:00  BASE  5.04504  112  7.2912   108  -0.4  67    -5.8  5     0     979.0    NA       0.0000   9999     0     0     0    
2019/08/28  11:32:00  BASE  5.16852  114  6.74436  104  -0.5  67    -5.9  5     0     979.0    NA       0.0000   9999     0     0     0    
2019/08/28  11:33:00  BASE  5.32728  118  6.2034   111  -0.5  68    -5.8  5     0     979.0    NA       0.0000   9999     0     0     0    
2019/08/28  11:34:00  BASE  5.63304  117  6.07992  118  -0.4  68    -5.6  6     0     979.0    NA       0.0000   9999     0     0     0    
2019/08/28  11:35:00  BASE  5.62128  118  6.07992  118  -0.3  68    -5.6  6     0     979.0    NA       0.0000   9999     0     0     0    
2019/08/28  11:36:00  BASE  5.18616  121  6.07992  118  -0.2  68    -5.5  6     0     979.0    NA       0.0000   9999     0     0     0    
2019/08/28  11:37:00  BASE  4.8216   121  6.07992  118  -0.1  67    -5.4  6     0     979.0    NA       0.0000   9999     0     0     0    
2019/08/28  11:38:00  BASE  4.87452  120  6.07992  118  -0.0  67    -5.4  7     0     979.0    NA       0.0000   9999     0     0     0    
2019/08/28  11:39:00  BASE  5.04504  118  6.07992  118  0.1   67    -5.4  7     0     979.0    NA       0.0000   9999     0     0     0    
2019/08/28  11:40:00  BASE  5.34492  116  6.53268  116  0.1   67    -5.4  7     0     979.0    NA       0.0000   9999     0     0     0    
2019/08/28  11:41:00  BASE  5.5272   118  6.53268  116  0.1   66    -5.4  7     0     979.0    NA       0.0000   9999     0     0     0    
2019/08/28  11:42:00  BASE  5.56248  123  6.53268  116  0.1   66    -5.5  7     0     979.0    NA       0.0000   9999     0     0     0    
2019/08/28  11:43:00  BASE  5.5272   127  6.53268  116  0.1   66    -5.5  8     0     979.0    NA       0.0000   9999     0     0     0    
2019/08/28  11:44:00  BASE  5.2626   132  6.53268  116  -0.0  66    -5.6  8     0     979.0    NA       0.0000   9999     0     0     0    
2019/08/28  11:45:00  BASE  5.15676  134  6.53268  116  -0.1  66    -5.7  8     0     979.0    NA       0.0000   9999     0     0     0    
2019/08/28  11:46:00  BASE  5.292    133  6.53268  116  -0.2  66    -5.7  8     0     978.9    NA       0.0000   9999     0     0     0    
2019/08/28  11:47:00  BASE  5.45664  133  6.53268  116  -0.3  67    -5.7  8     0     978.9    NA       0.0000   9999     0     0     0    
2019/08/28  11:48:00  BASE  5.4684   134  6.53268  116  -0.3  67    -5.8  9     0     978.9    NA       0.0000   9999     0     0     0    
2019/08/28  11:49:00  BASE  5.42136  133  6.53268  116  -0.4  67    -5.9  9     0     978.9    NA       0.0000   9999     0     0     0    
2019/08/28  11:50:00  BASE  5.51544  131  6.13872  121  -0.4  67    -5.9  9     0     978.9    NA       0.0000   9999     0     0     0    
2019/08/28  11:51:00  BASE  5.60952  130  6.13872  121  -0.5  66    -6.0  9     0     978.8    NA       0.0000   9999     0     0     0    
2019/08/28  11:52:00  BASE  5.6154   125  6.44448  122  -0.5  66    -6.0  9     0     978.8    NA       0.0000   9999     0     0     0    
2019/08/28  11:53:00  BASE  5.79768  123  6.56208  123  -0.5  67    -5.9  10    0     978.7    NA       0.0000   9999     0     0     0    
2019/08/28  11:54:00  BASE  6.0858   125  6.83844  125  -0.4  67    -5.9  10    0     978.7    NA       0.0000   9999     0     0     0    
2019/08/28  11:55:00  BASE  6.30924  127  6.83844  125  -0.3  66    -5.8  11    0     978.7    NA       0.0000   9999     0     0     0    
2019/08/28  11:56:00  BASE  6.42096  130  7.16772  129  -0.2  66    -5.7  11    0     978.7    NA       0.0000   9999     0     0     0    
2019/08/28  11:57:00  BASE  6.20928  132  7.16772  129  -0.1  66    -5.7  12    0     978.7    NA       0.0000   9999     0     0     0    
2019/08/28  11:58:00  BASE  5.90352  130  7.16772  129  -0.2  66    -5.8  12    0     978.7    NA       0.0000   9999     7120  0     0    
2019/08/28  11:59:00  BASE  6.09756  129  7.16772  129  -0.3  66    -5.8  13    0     978.6    NA       0.0000   9999     0     0     0    
2019/08/28  12:00:00  BASE  6.30336  130  7.16772  129  -0.3  66    -5.9  13    0     978.6    NA       0.0000   9999     7150  0     0    
2019/08/28  12:01:00  BASE  6.25044  127  7.16772  129  -0.4  66    -5.9  14    0     978.6    NA       0.0000   9999     7220  0     0    
2019/08/28  12:02:00  BASE  6.13284  128  7.16772  129  -0.3  66    -5.9  14    0     978.6    NA       0.0000   9999     7220  0     0    
2019/08/28  12:03:00  BASE  5.87412  125  7.16772  129  -0.3  66    -5.9  14    0     978.6    NA       0.0000   9999     7120  0     0    
2019/08/28  12:04:00  BASE  5.95644  120  7.16772  129  -0.2  66    -5.9  15    0     978.6    NA       0.0000   9999     7120  0     0    
2019/08/28  12:05:00  BASE  5.98584  114  7.16772  129  -0.1  65    -5.8  16    0     978.6    NA       0.0000   9999     7090  0     0    
2019/08/28  12:06:00  BASE  5.88588  111  6.89724  120  -0.1  65    -5.9  16    0     978.6    NA       0.0000   9999     7090  0     0    
2019/08/28  12:07:00  BASE  6.03288  113  6.89724  120  -0.1  65    -6.0  17    0     978.6    NA       0.0000   9999     7150  0     0    
2019/08/28  12:08:00  BASE  5.95056  114  6.89724  120  -0.1  65    -5.9  17    0     978.6    NA       0.0000   9999     7120  0     0    
2019/08/28  12:09:00  BASE  6.3798   113  7.2618   114  -0.1  64    -6.0  18    0     978.5    NA       0.0000   9999     7020  0     0    
2019/08/28  12:10:00  BASE  6.91488  109  7.47348  105  -0.0  64    -6.0  18    0     978.5    NA       0.0000   9999     7120  0     0    
2019/08/28  12:11:00  BASE  6.67968  108  7.47348  105  -0.0  64    -6.0  18    0     978.6    NA       0.0000   9999     7020  0     0    
2019/08/28  12:12:00  BASE  6.42684  110  7.47348  105  -0.0  64    -6.0  19    0     978.5    NA       0.0000   9999     7150  0     0    
2019/08/28  12:13:00  BASE  6.13872  112  7.47348  105  -0.0  64    -6.0  19    0     978.5    NA       0.0000   9999     7050  0     0    
2019/08/28  12:14:00  BASE  6.0564   113  7.47348  105  0.0   64    -5.9  19    0     978.5    NA       0.0000   9999     7090  0     0    
2019/08/28  12:15:00  BASE  6.46212  110  7.47348  105  0.1   65    -5.8  19    0     978.5    NA       0.0000   9999     7050  0     0    
2019/08/28  12:16:00  BASE  6.45624  110  7.47348  105  0.1   65    -5.8  20    0     978.5    NA       0.0000   9999     7050  0     0    
2019/08/28  12:17:00  BASE  6.09756  115  7.47348  105  0.2   65    -5.7  20    0     978.5    NA       0.0000   9999     7050  0     0    
2019/08/28  12:18:00  BASE  5.66244  118  7.47348  105  0.3   64    -5.6  21    0     978.5    NA       0.0000   9999     7050  0     0    
2019/08/28  12:19:00  BASE  5.586    117  7.47348  105  0.4   64    -5.6  21    0     978.5    NA       0.0000   9999     7090  0     0    
2019/08/28  12:20:00  BASE  5.92116  116  7.13832  113  0.5   64    -5.6  22    0     978.4    NA       0.0000   9999     0     0     0    
2019/08/28  12:21:00  BASE  5.55072  118  7.13832  113  0.6   63    -5.6  22    0     978.4    NA       0.0000   9999     7120  0     0    
2019/08/28  12:22:00  BASE  5.26848  120  7.13832  113  0.6   63    -5.6  23    0     978.4    NA       0.0000   9999     7280  0     0    
2019/08/28  12:23:00  BASE  5.68008  119  7.13832  113  0.7   63    -5.7  24    0     978.4    NA       0.0000   9999     7250  0     0    
2019/08/28  12:24:34  BASE  M        M    12.14    113  0.7   63    -5.7  24    0     978.4    NA       0.0000   9999     7250  0     0    
2019/08/28  12:25:00  BASE  M        M    11.88    129  0.7   63    -5.7  26    0     M        NA       0.0000   9999     7380  0     0    
2019/08/28  12:26:00  BASE  5.45076  140  6.98544  129  0.4   63    -5.8  27    0     978.4    NA       0.0000   9999     7250  0     0    
2019/08/28  12:27:00  BASE  5.45664  137  6.98544  129  0.1   65    -5.8  29    0     978.4    NA       0.0000   9999     7350  0     0    
2019/08/28  12:28:00  BASE  5.6742   136  6.98544  129  -0.2  66    -5.8  30    0     978.4    NA       0.0000   9999     7380  0     0    
2019/08/28  12:29:00  BASE  5.73888  137  6.98544  129  -0.4  68    -5.6  32    0     978.4    NA       0.0000   9999     7450  0     0    
2019/08/28  12:30:00  BASE  5.733    134  6.98544  129  -0.5  69    -5.6  33    0     978.4    NA       0.0000   9999     7350  0     0    
2019/08/28  12:31:31  BASE  5.40372  126  6.98544  129  -0.6  70    -5.4  33    0     978.4    NA       0.0000   9999     7350  0     0    
2019/08/28  12:32:00  BASE  M        M    11.99    121  -0.6  71    -5.3  35    0     M        NA       0.0000   9999     7280  0     0    
2019/08/28  12:33:14  BASE  M        M    12.35    124  -0.5  71    -5.1  35    0     978.3    NA       0.0000   9999     7250  0     0    
2019/08/28  12:34:00  BASE  6.45036  115  7.2618   124  -0.3  71    -5.1  36    0     978.3    NA       0.0000   9999     7280  0     0    
2019/08/28  12:35:00  BASE  5.66832  110  7.2618   124  -0.2  70    -5.1  37    0     978.3    NA       0.0000   9999     7420  0     0    
2019/08/28  12:36:00  BASE  5.26848  114  7.2618   124  -0.1  69    -5.1  37    0     978.4    NA       0.0000   9999     7350  0     0    
2019/08/28  12:37:00  BASE  5.3508   121  7.2618   124  -0.1  69    -5.0  37    0     978.3    NA       0.0000   9999     7320  0     0    
2019/08/28  12:38:00  BASE  5.50956  121  7.2618   124  -0.0  69    -5.0  38    0     978.3    NA       0.0000   9999     7550  0     0    
2019/08/28  12:39:00  BASE  5.57424  115  7.2618   124  0.1   69    -4.9  38    0     978.3    NA       0.0000   9999     7280  0     0    
2019/08/28  12:40:00  BASE  5.4684   116  7.2618   124  0.2   69    -4.8  38    0     978.3    NA       0.0000   9999     7450  0     0    
2019/08/28  12:41:00  BASE  5.2626   117  7.2618   124  0.4   69    -4.7  39    0     978.3    NA       0.0000   9999     7550  0     0    
2019/08/28  12:42:00  BASE  5.3508   116  7.2618   124  0.5   68    -4.7  40    0     978.3    NA       0.0000   9999     7510  0     0    
2019/08/28  12:43:00  BASE  5.5272   116  6.321    104  0.5   67    -4.8  41    0     978.3    NA       0.0000   9999     7450  0     0    
2019/08/28  12:44:00  BASE  5.57424  119  6.13872  106  0.6   67    -4.9  42    0     978.3    NA       0.0000   9999     7510  0     0    
2019/08/28  12:45:00  BASE  5.63304  122  6.13872  106  0.5   67    -4.9  43    0     978.3    NA       0.0000   9999     7550  0     0    
2019/08/28  12:46:00  BASE  5.54484  124  6.13872  106  0.5   67    -4.9  43    0     978.3    NA       0.0000   9999     7510  0     0    
2019/08/28  12:47:00  BASE  5.39784  125  6.13872  106  0.4   67    -4.9  44    0     978.3    NA       0.0000   9999     7480  0     0    
2019/08/28  12:48:01  BASE  5.50368  120  6.16812  111  0.4   68    -4.9  44    0     978.2    NA       0.0000   9999     7680  0     0    
2019/08/28  12:49:00  BASE  5.42724  119  6.16812  111  0.4   68    -4.8  45    0     978.2    NA       0.0000   9999     7810  0     0    
2019/08/28  12:50:00  BASE  5.65068  116  6.77376  96   0.5   68    -4.8  47    0     978.2    NA       0.0000   9999     7780  0     0    
2019/08/28  12:51:00  BASE  5.99172  109  6.77376  96   0.5   67    -4.8  59    0     978.1    NA       0.0000   9999     0     0     0    
2019/08/28  12:52:00  BASE  6.04464  111  6.77376  96   0.6   67    -4.9  59    0     978.1    NA       0.0000   9999     0     0     0    
2019/08/28  12:53:00  BASE  6.60912  115  7.56168  113  0.6   67    -4.9  74    0     978.1    NA       0.0000   9999     7840  0     0    
2019/08/28  12:54:00  BASE  7.17948  118  7.98504  110  0.6   66    -5.0  62    0     978.1    NA       0.0000   9999     0     0     0    
2019/08/28  12:55:00  BASE  7.17948  119  7.98504  110  0.7   66    -5.0  67    0     978.1    NA       0.0000   9999     0     0     0    
2019/08/28  12:56:00  BASE  7.21476  115  8.4378   109  0.7   66    -5.0  96    0     978.0    NA       0.0000   9999     0     0     0    
2019/08/28  12:57:00  BASE  7.5264   110  8.4378   109  0.7   66    -5.0  107   0     978.0    NA       0.0000   9999     0     0     0    
2019/08/28  12:58:00  BASE  7.50876  111  8.4378   109  0.6   66    -5.0  118   0     977.9    NA       0.0000   9999     0     0     0    
2019/08/28  12:59:00  BASE  7.13244  112  8.4378   109  0.7   66    -5.0  119   0     977.9    NA       0.0000   9999     0     0     0    
2019/08/28  13:00:00  BASE  7.2324   113  8.4378   109  0.7   66    -5.0  122   0     977.9    NA       0.0000   9999     0     0     0    
2019/08/28  13:01:00  BASE  7.34412  116  8.4378   109  0.7   66    -5.0  123   0     978.0    NA       0.0000   9999     0     0     0    
2019/08/28  13:02:00  BASE  6.97956  116  8.4378   109  0.9   66    -4.8  124   0     978.0    NA       0.0000   9999     0     0     0    
2019/08/28  13:03:00  BASE  6.73848  113  8.4378   109  1.0   65    -4.9  127   0     978.0    NA       0.0000   9999     0     0     0    
2019/08/28  13:04:00  BASE  6.72084  111  8.4378   109  1.1   64    -5.0  129   0     978.1    NA       0.0000   9999     0     0     0    
2019/08/28  13:05:00  BASE  6.63852  111  8.4378   109  1.1   64    -5.0  131   0     978.1    NA       0.0000   9999     0     0     0    
2019/08/28  13:06:00  BASE  6.96192  117  8.13792  115  1.1   64    -5.0  134   0     978.0    NA       0.0000   9999     0     0     0    
2019/08/28  13:07:00  BASE  7.36176  118  8.13792  107  1.1   64    -5.0  137   0     978.0    NA       0.0000   9999     0     0     0    
2019/08/28  13:08:00  BASE  7.28532  115  8.13792  107  1.1   64    -5.0  140   0     978.0    NA       0.0000   9999     0     0     0    
2019/08/28  13:09:00  BASE  7.36764  114  8.13792  107  1.2   63    -5.0  143   0     978.0    NA       0.0000   9999     0     0     0    
2019/08/28  13:10:00  BASE  7.42056  113  8.13792  107  1.3   63    -5.0  147   0     978.1    NA       0.0000   9999     0     0     0    
2019/08/28  13:11:00  BASE  7.07952  113  8.13792  107  1.4   62    -5.1  150   0     978.1    NA       0.0000   9999     0     0     0    
2019/08/28  13:12:00  BASE  6.92664  114  8.13792  107  1.4   62    -5.2  153   0     978.0    NA       0.0000   9999     0     0     0    
2019/08/28  13:13:00  BASE  7.17948  115  8.13792  107  1.3   62    -5.3  157   0     978.0    NA       0.0000   9999     0     0     0    
2019/08/28  13:14:00  BASE  7.33824  110  8.13792  107  1.2   62    -5.3  161   0     978.1    NA       0.0000   9999     0     0     0    
2019/08/28  13:15:00  BASE  7.44408  105  8.13792  107  1.0   63    -5.3  163   0     978.1    NA       0.0000   9999     7840  0     0    
2019/08/28  13:16:00  BASE  7.47348  105  8.13792  107  0.8   63    -5.4  166   0     978.1    NA       0.0000   9999     7780  0     0    
2019/08/28  13:17:00  BASE  7.1736   111  8.07912  107  0.7   64    -5.3  169   0     978.1    NA       0.0000   9999     7940  0     0    
2019/08/28  13:18:00  BASE  6.78552  113  8.07912  107  0.6   65    -5.2  172   0     978.2    NA       0.0000   9999     7940  0     0    
2019/08/28  13:19:00  BASE  6.25044  111  8.04384  107  0.6   65    -5.2  175   0     978.2    NA       0.0000   9999     8070  0     0    
2019/08/28  13:20:00  BASE  5.96232  111  8.04384  107  0.6   66    -5.0  179   0     978.2    NA       0.0000   9999     0     0     0    
2019/08/28  13:21:00  BASE  5.99172  111  8.04384  107  0.7   66    -5.0  181   0     978.2    NA       0.0000   9999     0     0     0    
2019/08/28  13:22:00  BASE  5.75652  115  8.04384  107  0.8   66    -4.9  183   0     978.2    NA       0.0000   9999     8010  0     0    
2019/08/28  13:23:00  BASE  5.78592  114  8.04384  107  0.9   65    -4.9  185   0     978.2    NA       0.0000   9999     8040  0     0    
2019/08/28  13:24:00  BASE  5.6742   112  8.04384  107  1.0   65    -5.0  187   0     978.2    NA       0.0000   9999     0     0     0    
2019/08/28  13:25:00  BASE  5.28612  113  8.04384  107  1.0   64    -5.1  189   0     978.2    NA       0.0000   9999     8100  0     0    
2019/08/28  13:26:00  BASE  5.15676  116  7.47348  110  1.0   64    -5.1  191   0     978.2    NA       0.0000   9999     8070  0     0    
2019/08/28  13:27:00  BASE  4.75692  119  7.16772  109  1.0   63    -5.2  192   0     978.2    NA       0.0000   9999     8040  0     0    
2019/08/28  13:28:00  BASE  4.44528  119  6.65616  107  1.0   63    -5.3  193   0     978.2    NA       0.0000   9999     8140  0     0    
2019/08/28  13:29:00  BASE  4.84512  116  6.65616  107  1.0   63    -5.4  194   0     978.2    NA       0.0000   9999     8100  0     0    
2019/08/28  13:30:00  BASE  5.07444  115  6.47388  109  1.0   63    -5.3  196   0     978.2    NA       0.0000   9999     8140  0     0    
2019/08/28  13:31:00  BASE  4.82748  118  6.47388  109  1.0   63    -5.3  197   0     978.3    NA       0.0000   9999     8070  0     0    
2019/08/28  13:32:00  BASE  4.52172  122  6.47388  109  1.1   63    -5.3  200   0     978.3    NA       0.0000   9999     8040  0     0    
2019/08/28  13:33:00  BASE  4.25712  126  5.74476  110  1.1   63    -5.2  191   0     978.3    NA       0.0000   9999     8100  0     0    
2019/08/28  13:34:00  BASE  4.16304  125  5.68596  113  1.2   63    -5.1  186   0     978.3    NA       0.0000   9999     8100  0     0    
2019/08/28  13:35:00  BASE  4.08072  122  5.50368  108  1.3   62    -5.1  178   0     978.3    NA       0.0000   9999     8140  0     0    
2019/08/28  13:36:00  BASE  4.18656  121  5.50368  108  1.4   62    -5.1  120   0     978.3    NA       0.0000   9999     8300  0     0    
2019/08/28  13:37:00  BASE  4.3218   117  5.50368  108  1.4   62    -5.1  88    0     978.3    NA       0.0000   9999     8300  0     0    
2019/08/28  13:38:00  BASE  4.6452   113  5.56836  115  1.3   62    -5.2  82    0     978.3    NA       0.0000   9999     6370  8270  0    
2019/08/28  13:39:00  BASE  5.28612  116  6.02112  119  1.2   62    -5.3  83    0     978.3    NA       0.0000   9999     8300  0     0    
2019/08/28  13:40:00  BASE  5.60952  122  6.07992  121  1.2   62    -5.3  85    0     978.2    NA       0.0000   9999     6430  8270  0    
2019/08/28  13:41:00  BASE  5.46252  133  6.07992  121  1.2   62    -5.3  89    0     978.3    NA       0.0000   9999     8270  0     0    
2019/08/28  13:42:00  BASE  5.00976  139  6.07992  121  1.1   62    -5.4  97    0     978.3    NA       0.0000   9999     8270  0     0    
2019/08/28  13:43:00  BASE  4.66284  140  6.07992  121  1.1   62    -5.3  119   0     978.3    NA       0.0000   9999     8300  0     0    
2019/08/28  13:44:00  BASE  4.56288  140  6.07992  121  1.1   62    -5.3  145   0     978.3    NA       0.0000   9999     8300  0     0    
2019/08/28  13:45:00  BASE  4.78632  138  6.07992  121  0.9   63    -5.4  170   0     978.2    NA       0.0000   9999     8330  0     0    
2019/08/28  13:46:00  BASE  5.04504  138  6.07992  121  0.8   63    -5.4  145   0     978.3    NA       0.0000   9999     8400  0     0    
2019/08/28  13:47:00  BASE  4.95096  141  6.07992  121  0.7   64    -5.4  108   0     978.3    NA       0.0000   9999     8500  0     0    
2019/08/28  13:48:00  BASE  4.69224  143  6.07992  121  0.6   64    -5.4  96    0     978.3    NA       0.0000   9999     6460  8460  0    
2019/08/28  13:49:00  BASE  4.2042   145  6.07992  121  0.5   65    -5.3  93    0     978.3    NA       0.0000   9999     6430  8460  0    
2019/08/28  13:50:00  BASE  3.72792  142  5.56836  138  0.4   66    -5.2  91    0     978.3    NA       0.0000   9999     6500  8400  0    
2019/08/28  13:51:00  BASE  3.7044   137  5.3214   145  0.4   66    -5.2  87    0     978.3    NA       0.0000   9999     8330  0     0    
2019/08/28  13:52:00  BASE  3.82788  138  5.3214   145  0.4   67    -5.1  84    0     978.3    NA       0.0000   9999     8460  0     0    
2019/08/28  13:53:00  BASE  4.06896  139  5.3214   145  0.4   67    -5.0  81    0     978.3    NA       0.0000   9999     8400  0     0    
2019/08/28  13:54:00  BASE  4.26888  131  5.3214   145  0.4   67    -5.0  80    0     978.3    NA       0.0000   9999     6430  8430  0    
2019/08/28  13:55:00  BASE  4.28652  126  5.3214   145  0.4   67    -5.0  79    0     978.3    NA       0.0000   9999     6370  0     0    
2019/08/28  13:56:00  BASE  4.19244  125  5.3214   145  0.5   67    -5.0  80    0     978.3    NA       0.0000   9999     6370  0     0    
2019/08/28  13:57:00  BASE  3.7926   126  5.08032  146  0.6   66    -5.1  80    0     978.3    NA       0.0000   9999     6370  0     0    
2019/08/28  13:58:00  BASE  3.43392  125  4.86864  130  0.7   65    -5.2  81    0     978.3    NA       0.0000   9999     6400  0     0    
2019/08/28  13:59:00  BASE  3.38688  119  4.86864  130  0.9   64    -5.3  83    0     978.3    NA       0.0000   9999     6400  0     0    
2019/08/28  14:00:00  BASE  3.39864  113  4.86864  130  1.0   62    -5.4  85    0     978.4    NA       0.0000   9999     6400  0     0    
2019/08/28  14:01:00  BASE  3.56916  112  4.86864  130  1.0   62    -5.6  89    0     978.4    NA       0.0000   9999     6370  0     0    
2019/08/28  14:02:00  BASE  3.47508  116  4.86864  130  0.9   62    -5.5  103   0     978.4    NA       0.0000   9999     6400  0     0    
2019/08/28  14:03:00  BASE  3.087    121  4.86864  130  0.9   62    -5.5  132   0     978.4    NA       0.0000   9999     6430  0     0    
2019/08/28  14:04:00  BASE  3.234    131  4.86864  130  0.9   62    -5.5  133   0     978.4    NA       0.0000   9999     6430  7120  8430 
2019/08/28  14:05:00  BASE  3.28104  138  4.263    126  0.9   63    -5.4  101   0     978.4    NA       0.0000   9999     6430  0     0    
2019/08/28  14:06:00  BASE  2.96352  138  4.2042   119  0.9   63    -5.3  91    0     978.4    NA       0.0000   9999     6460  0     0    
2019/08/28  14:07:00  BASE  2.91648  130  4.2042   119  1.0   63    -5.3  91    0     978.3    NA       0.0000   9999     6500  0     0    
2019/08/28  14:08:00  BASE  3.36924  124  4.2042   127  1.0   63    -5.3  90    0     978.3    NA       0.0000   9999     6400  20600 22110
2019/08/28  14:09:00  BASE  3.32808  123  4.2042   127  1.0   63    -5.3  90    0     978.3    NA       0.0000   9999     6460  0     0    
2019/08/28  14:10:00  BASE  3.05172  122  4.2042   127  1.1   62    -5.3  89    0     978.3    NA       0.0000   9999     6590  8330  19260
2019/08/28  14:11:00  BASE  3.52212  121  4.35708  122  1.1   62    -5.4  88    0     978.3    NA       0.0000   9999     6500  8270  0    
2019/08/28  14:12:00  BASE  3.83376  119  4.35708  122  1.2   62    -5.4  89    0     978.3    NA       0.0000   9999     6500  8330  0    
2019/08/28  14:13:00  BASE  3.7926   116  4.35708  122  1.3   61    -5.4  90    0     978.3    NA       0.0000   9999     6400  8300  0    
2019/08/28  14:14:00  BASE  3.65736  115  4.35708  122  1.4   60    -5.4  91    0     978.3    NA       0.0000   9999     6460  0     0    
2019/08/28  14:15:00  BASE  3.29868  117  4.35708  122  1.5   60    -5.4  93    0     978.3    NA       0.0000   9999     6530  0     0    
2019/08/28  14:16:00  BASE  2.74008  118  4.35708  122  1.5   60    -5.4  94    0     978.3    NA       0.0000   9999     6560  8370  0    
2019/08/28  14:17:00  BASE  2.22264  118  4.35708  122  1.5   60    -5.4  94    0     978.4    NA       0.0000   9999     6530  8200  0    
2019/08/28  14:18:00  BASE  1.7934   115  4.35708  122  1.5   61    -5.3  95    0     978.4    NA       0.0000   9999     6530  8330  0    
2019/08/28  14:19:00  BASE  1.59348  114  4.35708  122  1.4   61    -5.3  97    0     978.4    NA       0.0000   9999     6560  8300  0    
2019/08/28  14:20:00  BASE  1.75812  119  4.35708  122  1.3   61    -5.3  98    0     978.4    NA       0.0000   9999     6660  8100  0    
2019/08/28  14:21:00  BASE  1.89336  128  4.29828  116  1.2   62    -5.3  100   0     978.4    NA       0.0000   9999     8040  0     0    
2019/08/28  14:22:00  BASE  1.78752  164  4.29828  116  1.1   63    -5.3  102   0     978.4    NA       0.0000   9999     6590  8200  0    
2019/08/28  14:23:00  BASE  1.45824  196  3.99252  112  0.9   64    -5.3  104   0     978.4    NA       0.0000   9999     6660  8300  0    
2019/08/28  14:24:00  BASE  1.25244  201  3.53976  120  0.6   65    -5.2  105   0     978.4    NA       0.0000   9999     6630  8170  0    
2019/08/28  14:25:00  BASE  1.17012  187  2.69304  119  0.4   67    -5.0  105   0     978.4    NA       0.0000   9999     6560  0     0    
2019/08/28  14:26:00  BASE  1.0584   173  2.29908  120  0.2   69    -4.8  104   0     978.4    NA       0.0000   9999     6660  0     0    
2019/08/28  14:27:00  BASE  1.01724  179  2.0874   138  0.1   71    -4.6  103   0     978.4    NA       0.0000   9999     6660  8170  0    
2019/08/28  14:28:00  BASE  0.74088  188  2.0874   138  0.1   72    -4.4  102   0     978.4    NA       0.0000   9999     6400  0     0    
2019/08/28  14:29:00  BASE  0.48216  187  2.0874   138  0.1   72    -4.3  101   0     978.3    NA       0.0000   9999     6630  8270  0    
2019/08/28  14:30:00  BASE  0.60564  165  2.0874   138  0.2   72    -4.2  102   0     978.4    NA       0.0000   9999     8240  0     0    
2019/08/28  14:31:00  BASE  0.75264  135  1.84632  152  0.2   72    -4.2  105   0     978.4    NA       0.0000   9999     8170  0     0    
2019/08/28  14:32:00  BASE  0.54096  117  1.72284  186  0.3   72    -4.2  107   0     978.4    NA       0.0000   9999     8270  0     0    
2019/08/28  14:33:00  BASE  0.15288  113  1.54056  200  0.3   72    -4.2  110   0     978.4    NA       0.0000   9999     6500  0     0    
2019/08/28  14:34:00  BASE  0        121  1.32888  169  0.4   71    -4.2  112   0     978.4    NA       0.0000   9999     6730  8200  0    
2019/08/28  14:35:00  BASE  0.09408  170  1.32888  169  0.4   71    -4.3  114   0     978.4    NA       0.0000   9999     6730  8140  0    
2019/08/28  14:36:00  BASE  0.4704   268  1.1466   196  0.4   70    -4.4  116   0     978.4    NA       0.0000   9999     6500  8300  0    
2019/08/28  14:37:00  BASE  0.80556  296  1.029    280  0.4   70    -4.4  117   0     978.4    NA       0.0000   9999     6530  8300  0    
2019/08/28  14:38:00  BASE  0.87612  282  1.029    280  0.3   70    -4.4  119   0     978.4    NA       0.0000   9999     6560  8300  0    
2019/08/28  14:39:00  BASE  0.93492  264  1.0878   257  0.3   71    -4.4  121   0     978.4    NA       0.0000   9999     6590  8370  0    
2019/08/28  14:40:00  BASE  0.882    256  1.0878   257  0.2   71    -4.3  123   0     978.4    NA       0.0000   9999     6660  8400  0    
2019/08/28  14:41:00  BASE  0.57624  256  1.0878   257  0.3   72    -4.2  125   0     978.4    NA       0.0000   9999     8370  0     0    
2019/08/28  14:42:00  BASE  0.28812  263  1.0878   257  0.3   72    -4.2  125   0     978.4    NA       0.0000   9999     6690  8370  0    
2019/08/28  14:43:00  BASE  0.09996  279  1.0878   257  0.4   71    -4.2  124   0     978.4    NA       0.0000   9999     6630  8300  0    
2019/08/28  14:44:00  BASE  0        286  1.0878   257  0.5   71    -4.2  123   0     978.4    NA       0.0000   9999     6630  0     0    
2019/08/28  14:45:00  BASE  0        274  1.0878   257  0.6   70    -4.3  121   0     978.4    NA       0.0000   9999     6690  8430  0    
2019/08/28  14:46:00  BASE  0        267  1.0878   257  0.7   69    -4.4  121   0     978.4    NA       0.0000   9999     6760  8400  0    
2019/08/28  14:47:00  BASE  0        276  1.0878   257  0.7   68    -4.5  121   0     978.4    NA       0.0000   9999     6590  8430  0    
2019/08/28  14:48:00  BASE  0        300  1.0878   257  0.6   68    -4.6  122   0     978.4    NA       0.0000   9999     6690  0     0    
2019/08/28  14:49:00  BASE  0        322  0.84672  255  0.6   68    -4.6  123   0     978.4    NA       0.0000   9999     6660  0     0    
2019/08/28  14:50:00  BASE  0        333  0.63504  276  0.5   69    -4.5  124   0     978.4    NA       0.0000   9999     6660  0     0    
2019/08/28  14:51:00  BASE  0        333  0.63504  276  0.4   70    -4.5  124   0     978.4    NA       0.0000   9999     6690  0     0    
2019/08/28  14:52:00  BASE  0        331  0        M    0.3   71    -4.4  124   0     978.4    NA       0.0000   9999     6690  0     0    
2019/08/28  14:53:00  BASE  0        336  0        M    0.2   71    -4.4  124   0     978.4    NA       0.0000   9999     6690  8400  0    
2019/08/28  14:54:00  BASE  0        352  0        M    0.1   72    -4.3  123   0     978.4    NA       0.0000   9999     6690  8240  0    
2019/08/28  14:55:00  BASE  0        10   0        M    -0.0  74    -4.2  122   0     978.4    NA       0.0000   9999     6730  0     0    
2019/08/28  14:56:00  BASE  0        9    0        M    -0.1  75    -4.1  122   0     978.4    NA       0.0000   9999     6630  0     0    
2019/08/28  14:57:00  BASE  0        319  0        M    -0.1  75    -4.0  123   0     978.4    NA       0.0000   9999     6660  0     0    
2019/08/28  14:58:00  BASE  0.11172  249  0.72324  219  -0.1  76    -3.8  124   0     978.4    NA       0.0000   9999     6590  0     0    
2019/08/28  14:59:00  BASE  0.49392  215  0.87612  187  0.0   76    -3.7  125   0     978.4    NA       0.0000   9999     6270  0     0    
2019/08/28  15:00:00  BASE  0.49392  194  0.87612  187  0.1   75    -3.7  127   0     978.4    NA       0.0000   9999     6200  0     0    
2019/08/28  15:01:00  BASE  0.10584  189  0.87612  187  0.2   74    -3.8  128   0     978.4    NA       0.0000   9999     6590  0     0    
2019/08/28  15:02:00  BASE  0.59388  141  1.96392  33   0.3   73    -3.9  128   0     978.4    NA       0.0000   9999     6630  0     0    
2019/08/28  15:03:00  BASE  1.43472  34   1.96392  33   0.2   73    -4.1  128   0     978.4    NA       0.0000   9999     6200  0     0    
2019/08/28  15:04:00  BASE  1.4112   18   1.96392  33   0.0   73    -4.2  128   0     978.4    NA       0.0000   9999     6140  6590  0    
2019/08/28  15:05:00  BASE  0.9996   2    1.96392  33   -0.2  74    -4.2  129   0     978.4    NA       0.0000   9999     6140  0     0    
2019/08/28  15:06:00  BASE  1.029    3    1.96392  33   -0.3  76    -4.1  129   0     978.5    NA       0.0000   9999     6170  0     0    
2019/08/28  15:07:00  BASE  1.18188  9    1.96392  33   -0.5  77    -4.0  131   0     978.5    NA       0.0000   9999     6200  0     0    
2019/08/28  15:08:00  BASE  1.28184  358  1.96392  33   -0.5  78    -3.9  133   0     978.5    NA       0.0000   9999     6140  0     0    
2019/08/28  15:09:00  BASE  1.5288   343  1.96392  33   -0.5  79    -3.7  135   0     978.5    NA       0.0000   9999     6200  6630  0    
2019/08/28  15:10:00  BASE  1.99332  332  2.63424  324  -0.5  79    -3.7  137   0     978.5    NA       0.0000   9999     6140  6560  0    
2019/08/28  15:11:00  BASE  2.50488  328  2.75184  330  -0.5  80    -3.6  138   0     978.5    NA       0.0000   9999     6140  6560  0    
2019/08/28  15:12:00  BASE  2.91648  331  3.86904  337  -0.5  80    -3.5  140   0     978.5    NA       0.0000   9999     6590  0     0    
2019/08/28  15:13:00  BASE  3.63972  334  4.75104  331  -0.6  81    -3.5  141   0     978.5    NA       0.0000   9999     6630  0     0    
2019/08/28  15:14:00  BASE  3.675    334  4.75104  331  -0.6  81    -3.5  143   0     978.5    NA       0.0000   9999     6730  0     0    
2019/08/28  15:15:00  BASE  3.48096  333  4.75104  331  -0.6  81    -3.4  145   0     978.5    NA       0.0000   9999     6790  8690  0    
2019/08/28  15:16:00  BASE  3.63384  335  4.75104  331  -0.6  82    -3.3  148   0     978.5    NA       0.0000   9999     6790  8600  0    
2019/08/28  15:17:00  BASE  3.72792  340  4.75104  331  -0.5  82    -3.3  151   0     978.5    NA       0.0000   9999     6730  8600  0    
2019/08/28  15:18:00  BASE  3.81024  347  4.75104  331  -0.5  82    -3.3  154   0     978.5    NA       0.0000   9999     6630  8630  0    
2019/08/28  15:19:00  BASE  3.86316  351  4.75104  331  -0.5  82    -3.3  158   0     978.5    NA       0.0000   9999     6690  0     0    
2019/08/28  15:20:00  BASE  4.04544  352  4.75104  331  -0.5  82    -3.3  165   0     978.5    NA       0.0000   9999     6790  0     0    
2019/08/28  15:21:00  BASE  4.06308  351  4.75104  331  -0.5  82    -3.3  179   0     978.5    NA       0.0000   9999     6790  8660  0    
2019/08/28  15:22:00  BASE  4.28652  348  4.83924  345  -0.5  82    -3.3  245   0     978.5    NA       0.0000   9999     6860  0     0    
2019/08/28  15:23:00  BASE  4.69224  347  5.02152  348  -0.5  82    -3.2  304   0     978.5    NA       0.0000   9999     7020  8560  0    
2019/08/28  15:24:00  BASE  4.704    350  5.02152  348  -0.5  82    -3.2  322   0     978.5    NA       0.0000   9999     8460  0     0    
2019/08/28  15:25:00  BASE  4.25712  352  5.02152  348  -0.4  82    -3.1  372   0     978.5    NA       0.0000   9999     8430  0     0    
2019/08/28  15:26:00  BASE  3.8808   351  5.02152  348  -0.3  82    -3.0  381   0     978.5    NA       0.0000   9999     8530  0     0    
2019/08/28  15:27:00  BASE  4.07484  347  5.02152  348  -0.2  81    -3.0  387   0     978.5    NA       0.0000   9999     8530  0     0    
2019/08/28  15:28:00  BASE  4.42176  349  5.02152  348  -0.1  81    -3.0  386   0     978.5    NA       0.0000   9999     8500  0     0    
2019/08/28  15:29:00  BASE  4.2924   352  5.02152  348  0.0   80    -3.0  382   0     978.5    NA       0.0000   9999     6760  8460  0    
2019/08/28  15:30:00  BASE  3.96312  350  5.02152  348  0.1   79    -3.1  378   0     978.5    NA       0.0000   9999     6760  8400  0    
2019/08/28  15:31:00  BASE  3.77496  348  5.02152  348  0.2   78    -3.2  375   0     978.5    NA       0.0000   9999     8430  0     0    
2019/08/28  15:32:00  BASE  3.51624  347  5.02152  348  0.3   77    -3.4  373   0     978.5    NA       0.0000   9999     6920  8370  0    
2019/08/28  15:33:00  BASE  3.15168  347  4.68636  354  0.3   76    -3.5  371   0     978.5    NA       0.0000   9999     6890  8430  0    
2019/08/28  15:34:00  BASE  3.04584  350  4.68636  354  0.2   76    -3.6  368   0     978.5    NA       0.0000   9999     8830  0     0    
2019/08/28  15:35:00  BASE  3.01644  357  4.68636  354  0.2   76    -3.6  368   0     978.5    NA       0.0000   9999     8560  0     0    
2019/08/28  15:36:00  BASE  2.84004  360  4.68636  354  0.2   76    -3.5  356   0     978.5    NA       0.0000   9999     8660  0     0    
2019/08/28  15:37:00  BASE  2.7048   1    4.68636  354  0.1   77    -3.4  276   0     978.5    NA       0.0000   9999     8660  0     0    
2019/08/28  15:38:00  BASE  2.85768  355  4.263    354  0.1   77    -3.4  205   0     978.5    NA       0.0000   9999     8530  0     0    
2019/08/28  15:39:00  BASE  2.96352  348  4.1454   353  0.1   78    -3.3  173   0     978.5    NA       0.0000   9999     8560  0     0    
2019/08/28  15:40:00  BASE  2.89296  344  3.86904  347  0.1   78    -3.3  172   0     978.5    NA       0.0000   9999     8500  0     0    
2019/08/28  15:41:00  BASE  2.793    336  3.51036  347  0.1   77    -3.4  179   0     978.5    NA       0.0000   9999     8460  0     0    
2019/08/28  15:42:00  BASE  2.57544  332  3.29868  347  0.1   77    -3.4  211   0     978.5    NA       0.0000   9999     8560  0     0    
2019/08/28  15:43:00  BASE  2.57544  334  3.29868  329  0.1   77    -3.5  254   0     978.5    NA       0.0000   9999     8460  0     0    
2019/08/28  15:44:00  BASE  2.63424  338  3.29868  329  0.2   76    -3.5  307   0     978.5    NA       0.0000   9999     8560  0     0    
2019/08/28  15:45:00  BASE  2.7342   342  3.29868  329  0.2   76    -3.6  312   0     978.5    NA       0.0000   9999     8500  0     0    
2019/08/28  15:46:00  BASE  2.74596  341  3.29868  329  0.3   76    -3.5  197   0     978.5    NA       0.0000   9999     6140  8500  0    
2019/08/28  15:47:00  BASE  2.68128  339  3.29868  329  0.3   75    -3.6  148   0     978.6    NA       0.0000   9999     6140  8330  0    
2019/08/28  15:48:00  BASE  2.7342   340  3.29868  329  0.3   75    -3.6  141   0     978.6    NA       0.0000   9999     6100  8460  0    
2019/08/28  15:49:00  BASE  2.646    343  3.29868  329  0.3   75    -3.6  142   0     978.6    NA       0.0000   9999     6070  8170  0    
2019/08/28  15:50:00  BASE  2.45784  341  3.29868  329  0.2   75    -3.6  150   0     978.6    NA       0.0000   9999     6100  8170  0    
2019/08/28  15:51:00  BASE  2.40492  341  3.29868  329  0.1   76    -3.6  169   0     978.6    NA       0.0000   9999     6070  8140  0    
2019/08/28  15:52:00  BASE  2.50488  346  3.29868  329  0.1   76    -3.6  199   0     978.7    NA       0.0000   9999     6100  8200  0    
2019/08/28  15:53:00  BASE  2.47548  353  3.1458   345  0.1   77    -3.5  215   0     978.7    NA       0.0000   9999     6070  0     0    
2019/08/28  15:54:00  BASE  2.52252  353  3.1458   345  0.1   77    -3.5  206   0     978.7    NA       0.0000   9999     6040  0     0    
2019/08/28  15:55:00  BASE  2.54016  350  3.1164   334  0.1   77    -3.5  198   0     978.7    NA       0.0000   9999     6100  0     0    
2019/08/28  15:56:00  BASE  2.66364  352  3.1164   334  0.2   77    -3.5  190   0     978.7    NA       0.0000   9999     6070  0     0    
2019/08/28  15:57:00  BASE  2.81064  359  3.1164   360  0.2   76    -3.5  182   0     978.7    NA       0.0000   9999     6040  0     0    
2019/08/28  15:58:00  BASE  2.8812   359  3.29868  355  0.3   75    -3.5  178   0     978.6    NA       0.0000   9999     6070  0     0    
2019/08/28  15:59:00  BASE  3.06936  352  3.51036  343  0.4   75    -3.6  168   0     978.7    NA       0.0000   9999     6070  0     0    
2019/08/28  16:00:00  BASE  3.03408  349  3.51036  343  0.4   74    -3.7  168   0     978.6    NA       0.0000   9999     6070  0     0    
2019/08/28  16:01:00  BASE  2.77536  350  3.51036  343  0.5   73    -3.7  171   0     978.6    NA       0.0000   9999     6070  0     0    
2019/08/28  16:02:00  BASE  2.53428  344  3.51036  343  0.5   73    -3.8  182   0     978.6    NA       0.0000   9999     6070  0     0    
2019/08/28  16:03:00  BASE  2.52252  339  3.51036  343  0.5   73    -3.8  198   0     978.6    NA       0.0000   9999     6100  0     0    
2019/08/28  16:04:00  BASE  2.66364  337  3.51036  343  0.5   72    -3.9  198   0     978.5    NA       0.0000   9999     6040  0     0    
2019/08/28  16:05:00  BASE  2.8518   338  3.51036  343  0.5   72    -3.9  189   0     978.5    NA       0.0000   9999     6000  0     0    
2019/08/28  16:06:00  BASE  2.98704  342  3.51036  343  0.5   72    -3.9  188   0     978.5    NA       0.0000   9999     6000  0     0    
2019/08/28  16:07:00  BASE  2.8812   341  3.51036  343  0.4   73    -3.9  178   0     978.5    NA       0.0000   9999     5970  0     0    
2019/08/28  16:08:00  BASE  2.79888  335  3.51036  343  0.4   73    -3.9  165   0     978.5    NA       0.0000   9999     6000  0     0    
2019/08/28  16:09:00  BASE  3.0282   332  3.41628  341  0.3   74    -3.8  157   0     978.5    NA       0.0000   9999     6040  0     0    
2019/08/28  16:10:00  BASE  3.42804  330  4.02192  332  0.3   74    -3.8  158   0     978.5    NA       0.0000   9999     6000  0     0    
2019/08/28  16:11:00  BASE  3.51036  329  4.02192  332  0.3   75    -3.7  234   0     978.5    NA       0.0000   9999     6000  0     0    
2019/08/28  16:12:00  BASE  3.234    329  4.02192  332  0.3   75    -3.6  219   0     978.5    NA       0.0000   9999     6000  0     0    
2019/08/28  16:13:00  BASE  3.30456  328  4.02192  332  0.4   75    -3.6  167   0     978.5    NA       0.0000   9999     6040  0     0    
2019/08/28  16:14:00  BASE  3.52212  327  4.1454   316  0.4   74    -3.6  131   0     978.5    NA       0.0000   9999     6070  0     0    
2019/08/28  16:15:00  BASE  3.37512  328  4.1454   316  0.4   74    -3.6  123   0     978.5    NA       0.0000   9999     0     0     0    
2019/08/28  16:16:00  BASE  3.0576   331  4.1454   316  0.4   74    -3.7  120   0     978.6    NA       0.0000   9999     6170  0     0    
2019/08/28  16:17:00  BASE  2.94     333  4.1454   316  0.3   74    -3.7  120   0     978.6    NA       0.0000   9999     0     0     0    
2019/08/28  16:18:00  BASE  2.87532  331  4.1454   316  0.3   74    -3.7  121   0     978.6    NA       0.0000   9999     6140  0     0    
2019/08/28  16:19:00  BASE  2.7048   330  4.1454   316  0.3   75    -3.7  120   0     978.7    NA       0.0000   9999     6140  0     0    
2019/08/28  16:20:00  BASE  2.86356  334  4.1454   316  0.2   75    -3.8  117   0     978.7    NA       0.0000   9999     6140  0     0    
2019/08/28  16:21:00  BASE  2.84592  335  4.1454   316  0.1   75    -3.7  112   0     978.7    NA       0.0000   9999     6170  0     0    
2019/08/28  16:22:00  BASE  2.66952  333  4.1454   316  0.1   76    -3.7  107   0     978.7    NA       0.0000   9999     6100  0     0    
2019/08/28  16:23:00  BASE  2.90472  333  4.1454   316  0.0   76    -3.7  103   0     978.7    NA       0.0000   9999     6100  0     0    
2019/08/28  16:24:00  BASE  3.05172  332  3.59856  337  0.0   76    -3.7  99    0     978.7    NA       0.0000   9999     6140  0     0    
2019/08/28  16:25:00  BASE  3.11052  332  3.59856  337  -0.0  77    -3.6  98    0     978.7    NA       0.0000   9999     7870  0     0    
2019/08/28  16:26:00  BASE  3.21048  337  3.59856  337  -0.1  77    -3.6  96    0     978.7    NA       0.0000   9999     6200  0     0    
2019/08/28  16:27:00  BASE  3.08112  344  3.41628  333  -0.1  78    -3.5  95    0     978.7    NA       0.0000   9999     0     0     0    
2019/08/28  16:28:18  BASE  2.94     344  3.41628  333  -0.1  78    -3.4  95    0     978.7    NA       0.0000   9999     0     0     0    
2019/08/28  16:29:00  BASE  3.00468  337  3.41628  333  -0.1  78    -3.4  94    0     978.8    NA       0.0000   9999     6140  7940  0    
2019/08/28  16:30:00  BASE  2.85768  331  3.35748  342  -0.0  78    -3.3  92    0     978.7    NA       0.0000   9999     6170  7870  0    
2019/08/28  16:31:00  BASE  2.62836  336  3.35748  342  0.1   78    -3.3  92    0     978.7    NA       0.0000   9999     6100  7810  0    
2019/08/28  16:32:00  BASE  2.74008  340  3.35748  342  0.1   78    -3.3  92    0     978.7    NA       0.0000   9999     6170  7910  0    
2019/08/28  16:33:19  BASE  2.94588  342  3.35748  342  0.1   77    -3.4  92    0     978.7    NA       0.0000   9999     6170  7970  0    
2019/08/28  16:34:00  BASE  2.84004  344  3.35748  342  0.1   77    -3.5  91    0     978.8    NA       0.0000   9999     6100  7810  0    
2019/08/28  16:35:00  BASE  2.33436  338  3.35748  342  -0.0  77    -3.5  90    0     978.7    NA       0.0000   9999     6170  7970  0    
2019/08/28  16:36:00  BASE  2.3226   339  3.26928  339  -0.1  77    -3.6  89    0     978.7    NA       0.0000   9999     6140  7910  0    
2019/08/28  16:37:00  BASE  2.8812   352  3.35748  355  -0.2  78    -3.7  89    0     978.7    NA       0.0000   9999     6140  8140  0    
2019/08/28  16:38:00  BASE  2.94     354  3.35748  355  -0.3  78    -3.6  89    0     978.7    NA       0.0000   9999     6140  0     0    
2019/08/28  16:39:00  BASE  2.66952  348  3.35748  355  -0.3  79    -3.5  89    0     978.7    NA       0.0000   9999     6170  0     0    
2019/08/28  16:40:00  BASE  2.48136  343  3.35748  355  -0.2  80    -3.3  90    0     978.7    NA       0.0000   9999     6140  0     0    
2019/08/28  16:41:00  BASE  2.39316  339  3.35748  355  -0.2  80    -3.2  91    0     978.7    NA       0.0000   9999     6170  0     0    
2019/08/28  16:42:00  BASE  2.4402   337  3.35748  355  -0.0  80    -3.0  91    0     978.7    NA       0.0000   9999     6170  0     0    
2019/08/28  16:43:00  BASE  2.81652  333  3.81024  332  0.0   80    -3.0  91    0     978.7    NA       0.0000   9999     6140  0     0    
2019/08/28  16:44:00  BASE  3.13992  315  3.81024  332  0.1   80    -3.0  91    0     978.7    NA       0.0000   9999     6140  7740  0    
2019/08/28  16:45:00  BASE  3.10464  309  3.81024  332  0.1   79    -3.0  91    0     978.7    NA       0.0000   9999     6170  8010  0    
2019/08/28  16:46:00  BASE  3.04584  320  3.81024  332  0.2   79    -3.0  91    0     978.7    NA       0.0000   9999     6140  0     0    
2019/08/28  16:47:00  BASE  3.12816  327  3.81024  332  0.1   79    -3.2  91    0     978.7    NA       0.0000   9999     6170  0     0    
2019/08/28  16:48:00  BASE  3.06348  334  3.81024  332  0.1   79    -3.1  91    0     978.7    NA       0.0000   9999     6140  0     0    
2019/08/28  16:49:00  BASE  2.39316  337  3.81024  332  0.1   78    -3.2  91    0     978.7    NA       0.0000   9999     6170  7940  0    
2019/08/28  16:50:00  BASE  1.94628  337  3.81024  332  0.1   78    -3.3  91    0     978.7    NA       0.0000   9999     6200  8010  0    
2019/08/28  16:51:00  BASE  2.14032  327  3.81024  332  0.1   77    -3.4  92    0     978.7    NA       0.0000   9999     6200  8010  0    
2019/08/28  16:52:00  BASE  2.352    304  3.81024  332  0.1   77    -3.4  93    0     978.7    NA       0.0000   9999     6170  7970  0    
2019/08/28  16:53:00  BASE  2.35788  301  3.59856  331  0.1   77    -3.4  94    0     978.7    NA       0.0000   9999     6170  7940  0    
2019/08/28  16:54:00  BASE  2.42256  298  3.59856  331  0.0   77    -3.4  95    0     978.6    NA       0.0000   9999     6170  7940  0    
2019/08/28  16:55:00  BASE  2.66364  295  3.59856  331  0.0   78    -3.4  96    0     978.6    NA       0.0000   9999     6230  7940  0    
2019/08/28  16:56:30  BASE  2.9694   296  3.59856  331  0.1   78    -3.2  97    0     978.7    NA       0.0000   9999     6200  7970  0    
2019/08/28  16:57:01  BASE  M        M    5.97     294  0.1   79    -3.2  100   0     M        NA       0.0000   9999     6170  9020  0    
2019/08/28  16:59:14  BASE  M        M    5.97     294  0.1   79    -3.1  101   0     978.7    NA       0.0000   9999     6170  8100  9060 
2019/08/28  16:59:22  BASE  M        M    5.97     294  0.1   79    -3.1  101   0     M        NA       0.0000   M        6170  8100  9060 
2019/08/28  17:00:01  BASE  M        M    5.97     294  0.1   79    -3.1  107   0     978.7    NA       0.0000   9999     6200  8070  0    
2019/08/28  17:01:00  BASE  2.31672  293  3.51036  294  0.1   79    -3.1  110   0     978.7    NA       0.0000   9999     7910  0     0    
2019/08/28  17:02:00  BASE  2.29908  299  3.51036  294  0.1   81    -2.8  113   0     978.7    NA       0.0000   9999     7970  9020  0    
2019/08/28  17:03:31  BASE  M        M    5.97     294  0.0   82    -2.8  115   0     978.7    NA       0.0000   9999     7970  8990  0    
2019/08/28  17:04:00  BASE  M        M    M        M    0.0   82    -2.8  117   0     M        NA       0.0000   9999     7510  0     0    
2019/08/28  17:05:01  BASE  2.01096  308  0        M    -0.0  82    -2.7  119   0     978.7    NA       0.0000   9999     7450  0     0    
2019/08/28  17:06:00  BASE  2.058    305  3.29868  288  -0.1  83    -2.7  121   0     978.7    NA       0.0000   9999     7580  8040  0    
2019/08/28  17:07:00  BASE  2.33436  299  3.48096  301  -0.2  83    -2.7  125   0     978.7    NA       0.0000   9999     6630  18470 0    
2019/08/28  17:08:00  BASE  2.49312  297  3.48096  301  -0.2  84    -2.6  128   0     978.6    NA       0.0000   9999     8010  0     0    
2019/08/28  17:09:00  BASE  2.39904  299  3.48096  301  -0.3  84    -2.6  132   0     978.6    NA       0.0000   9999     7910  0     0    
2019/08/28  17:10:00  BASE  2.55192  296  3.48096  301  -0.3  85    -2.6  135   0     978.6    NA       0.0000   9999     7870  8600  0    
2019/08/28  17:11:00  BASE  2.58132  296  3.56916  296  -0.4  85    -2.5  138   0     978.6    NA       0.0000   9999     8010  0     0    
2019/08/28  17:12:00  BASE  2.2638   300  3.56916  296  -0.4  86    -2.5  141   0     978.6    NA       0.0000   9999     8040  8630  0    
2019/08/28  17:13:00  BASE  1.86396  307  3.56916  296  -0.5  86    -2.5  142   0     978.7    NA       0.0000   9999     7480  8630  0    
2019/08/28  17:14:00  BASE  1.59348  313  3.56916  296  -0.5  87    -2.4  142   0     978.7    NA       0.0000   9999     8100  0     0    
2019/08/28  17:15:00  BASE  1.27008  314  3.56916  296  -0.6  88    -2.4  140   0     978.7    NA       0.0000   9999     7220  8170  0    
2019/08/28  17:16:00  BASE  1.12308  315  3.56916  296  -0.7  88    -2.4  137   0     978.7    NA       0.0000   9999     7220  0     0    
2019/08/28  17:17:00  BASE  1.48176  312  3.56916  296  -0.7  89    -2.3  133   0     978.7    NA       0.0000   9999     8370  0     0    
2019/08/28  17:18:00  BASE  2.04036  308  3.56916  296  -0.8  90    -2.2  129   0     978.7    NA       0.0000   9999     8330  0     0    
2019/08/28  17:19:00  BASE  2.48724  306  3.56916  296  -0.7  91    -2.0  125   0     978.7    NA       0.0000   9999     8010  0     0    
2019/08/28  17:20:00  BASE  2.71068  306  3.56916  296  -0.7  92    -1.8  122   0     978.7    NA       0.0000   9999     8010  0     0    
2019/08/28  17:21:00  BASE  3.12816  305  3.96312  305  -0.7  93    -1.6  120   0     978.7    NA       0.0000   9999     8170  0     0    
2019/08/28  17:22:00  BASE  3.3222   306  3.96312  305  -0.6  94    -1.5  118   0     978.7    NA       0.0000   9999     6630  0     0    
2019/08/28  17:23:00  BASE  3.03996  309  3.96312  305  -0.6  94    -1.4  116   0     978.7    NA       0.0000   9999     6820  0     0    
2019/08/28  17:24:00  BASE  3.02232  310  3.96312  305  -0.6  95    -1.3  113   0     978.7    NA       0.0000   9999     7450  0     0    
2019/08/28  17:25:00  BASE  3.21636  309  3.96312  305  -0.6  96    -1.3  110   0     978.7    NA       0.0000   9999     8070  0     0    
2019/08/28  17:26:00  BASE  3.66912  309  4.263    310  -0.7  96    -1.2  107   0     978.7    NA       0.0000   9999     7220  8240  0    
2019/08/28  17:27:00  BASE  4.13364  312  4.80984  312  -0.7  97    -1.2  104   0     978.7    NA       0.0000   9999     7350  0     0    
2019/08/28  17:28:00  BASE  3.75732  327  4.80984  312  -0.7  97    -1.1  101   0     978.7    NA       0.0000   9999     7420  0     0    
2019/08/28  17:29:00  BASE  3.09876  344  4.80984  312  -0.7  98    -1.1  99    0     978.7    NA       0.0000   9999     7350  8170  0    
2019/08/28  17:30:00  BASE  3.06348  357  4.80984  312  -0.8  98    -1.0  97    0     978.7    NA       0.0000   9999     7320  8100  23460
2019/08/28  17:31:00  BASE  3.18696  9    4.80984  312  -0.8  99    -1.0  97    0     978.7    NA       0.0000   9999     7220  8140  0    
2019/08/28  17:32:00  BASE  3.087    10   4.80984  312  -0.9  99    -1.0  97    0     978.7    NA       0.0000   9999     7250  8040  22770
2019/08/28  17:33:00  BASE  3.08112  12   4.80984  312  -0.9  99    -1.0  97    0     978.8    NA       0.0000   9999     7870  0     0    
2019/08/28  17:34:00  BASE  3.1458   15   4.80984  312  -0.9  100   -0.9  98    0     978.8    NA       0.0000   9999     7910  0     0    
2019/08/28  17:35:00  BASE  2.95176  10   4.80984  312  -0.8  100   -0.8  98    0     978.9    NA       0.0000   9999     7910  8600  0    
2019/08/28  17:36:00  BASE  2.98116  11   4.80984  312  -0.8  100   -0.8  98    0     978.9    NA       0.0000   9999     8460  0     0    
2019/08/28  17:37:00  BASE  3.32808  15   4.2336   323  -0.8  100   -0.8  97    0     978.9    NA       0.0000   9999     8500  0     0    
2019/08/28  17:38:00  BASE  3.28104  8    4.05132  17   -0.8  100   -0.8  97    0     978.9    NA       0.0000   9999     7970  0     0    
2019/08/28  17:39:00  BASE  3.09876  2    4.05132  17   -0.8  100   -0.8  96    0     978.9    NA       0.0000   9999     8010  0     0    
2019/08/28  17:40:00  BASE  3.21048  351  4.05132  17   -0.8  100   -0.8  95    0     978.9    NA       0.0000   9999     8010  0     0    
2019/08/28  17:41:22  BASE  3.05172  341  4.05132  17   -0.7  100   -0.7  94    0     978.9    NA       0.0000   9999     7970  0     0    
2019/08/28  17:42:00  BASE  2.81652  336  4.05132  17   -0.7  100   -0.7  92    0     978.8    NA       0.0000   9999     8070  0     0    
2019/08/28  17:43:00  BASE  3.08112  330  4.05132  17   -0.6  100   -0.6  91    0     978.9    NA       0.0000   9999     8040  0     0    
2019/08/28  17:44:00  BASE  3.30456  332  4.05132  17   -0.6  100   -0.6  90    0     978.9    NA       0.0000   9999     8170  0     0    
2019/08/28  17:45:00  BASE  3.06936  334  4.05132  17   -0.5  100   -0.5  88    0     978.9    NA       0.0000   9999     8040  0     0    
2019/08/28  17:46:00  BASE  2.80476  338  4.05132  17   -0.5  100   -0.5  86    0     978.9    NA       0.0000   9999     8170  0     0    
2019/08/28  17:47:00  BASE  2.96352  341  3.81024  338  -0.5  100   -0.5  85    0     978.9    NA       0.0000   9999     8170  0     0    
2019/08/28  17:48:00  BASE  2.95764  336  3.81024  338  -0.5  100   -0.5  83    0     979.0    NA       0.0000   9999     8200  0     0    
2019/08/28  17:49:00  BASE  2.99292  339  3.81024  338  -0.5  100   -0.5  82    0     979.0    NA       0.0000   9999     8140  0     0    
2019/08/28  17:50:00  BASE  2.93412  349  3.81024  338  -0.6  100   -0.6  80    0     979.0    NA       0.0000   9999     8140  0     0    
2019/08/28  17:51:00  BASE  2.54604  1    3.81024  338  -0.6  100   -0.6  79    0     979.0    NA       0.0000   9999     8200  0     0    
2019/08/28  17:52:00  BASE  2.25204  7    3.81024  338  -0.7  100   -0.7  79    0     979.1    NA       0.0000   9999     8240  0     0    
2019/08/28  17:53:00  BASE  2.03448  358  3.81024  338  -0.7  100   -0.7  78    0     979.1    NA       0.0000   9999     7940  0     0    
2019/08/28  17:54:00  BASE  1.90512  347  3.41628  346  -0.8  100   -0.8  78    0     979.0    NA       0.0000   9999     7840  0     0    
2019/08/28  17:55:00  BASE  1.66992  349  3.41628  346  -0.8  100   -0.8  78    0     979.0    NA       0.0000   9999     8040  0     0    
2019/08/28  17:56:00  BASE  1.47     351  3.41628  346  -0.8  100   -0.8  78    0     979.0    NA       0.0000   9999     8010  0     0    
2019/08/28  17:57:00  BASE  1.31712  343  3.41628  346  -0.8  100   -0.8  78    0     979.0    NA       0.0000   9999     8070  0     0    
2019/08/28  17:58:00  BASE  1.21128  334  3.41628  346  -0.8  100   -0.8  78    0     979.0    NA       0.0000   9999     7550  0     0    
2019/08/28  17:59:00  BASE  1.617    329  3.087    346  -0.8  100   -0.8  78    0     979.0    NA       0.0000   9999     8140  0     0    
2019/08/28  18:00:00  BASE  1.84044  328  2.48136  5    -0.8  100   -0.8  78    0     979.0    NA       0.0000   9999     8140  0     0    
2019/08/28  18:01:00  BASE  1.72872  328  2.35788  4    -0.8  100   -0.8  78    0     979.0    NA       0.0000   9999     8070  0     0    
2019/08/28  18:02:00  BASE  1.65228  324  2.29908  348  -0.8  100   -0.8  79    0     979.0    NA       0.0000   9999     6530  8330  0    
2019/08/28  18:03:00  BASE  1.54644  322  2.29908  348  -0.7  100   -0.7  80    0     979.0    NA       0.0000   9999     6560  8460  0    
2019/08/28  18:04:00  BASE  1.3524   323  2.1756   5    -0.7  100   -0.7  80    0     979.0    NA       0.0000   9999     6630  8200  0    
2019/08/28  18:05:00  BASE  1.28184  330  2.1756   5    -0.7  100   -0.7  81    0     979.0    NA       0.0000   9999     6630  8140  0    
2019/08/28  18:06:00  BASE  1.34064  335  2.0874   329  -0.6  100   -0.6  82    0     979.0    NA       0.0000   9999     8140  0     0    
2019/08/28  18:07:00  BASE  1.19952  339  2.0874   329  -0.6  100   -0.6  83    0     979.0    NA       0.0000   9999     8100  0     0    
2019/08/28  18:08:00  BASE  1.19364  350  2.0874   329  -0.7  100   -0.7  83    0     979.0    NA       0.0000   9999     8100  0     0    
2019/08/28  18:09:00  BASE  1.38768  354  1.93452  328  -0.7  100   -0.7  84    0     979.0    NA       0.0000   9999     8100  0     0    
2019/08/28  18:10:00  BASE  1.45824  5    1.90512  312  -0.7  100   -0.7  85    0     979.0    NA       0.0000   9999     8100  0     0    
2019/08/28  18:11:00  BASE  1.47     21   1.78752  315  -0.8  100   -0.8  86    0     979.0    NA       0.0000   9999     8070  0     0    
2019/08/28  18:12:00  BASE  1.4406   31   1.78752  315  -0.8  100   -0.8  86    0     979.0    NA       0.0000   9999     8040  0     0    
2019/08/28  18:13:00  BASE  1.51704  39   1.78752  40   -0.8  100   -0.8  86    0     979.0    NA       0.0000   9999     8010  0     0    
2019/08/28  18:14:00  BASE  1.5582   45   1.78752  40   -0.8  100   -0.8  86    0     979.0    NA       0.0000   9999     8010  0     0    
2019/08/28  18:15:00  BASE  1.4994   52   1.78752  40   -0.8  100   -0.8  85    0     979.0    NA       0.0000   9999     7940  0     0    
2019/08/28  18:16:00  BASE  1.51116  57   1.81692  51   -0.8  100   -0.8  85    0     979.0    NA       0.0000   9999     7970  0     0    
2019/08/28  18:17:00  BASE  1.36416  58   1.81692  51   -0.8  100   -0.8  84    0     979.0    NA       0.0000   9999     8010  0     0    
2019/08/28  18:18:00  BASE  1.15836  51   1.81692  51   -0.8  100   -0.8  83    0     979.0    NA       0.0000   9999     7970  0     0    
2019/08/28  18:19:00  BASE  1.09956  38   1.81692  51   -0.7  100   -0.7  83    0     979.0    NA       0.0000   9999     7840  0     0    
2019/08/28  18:20:00  BASE  0.87612  40   1.81692  51   -0.7  100   -0.7  83    0     979.0    NA       0.0000   9999     7810  0     0    
2019/08/28  18:21:00  BASE  0.45276  57   1.81692  51   -0.7  100   -0.7  83    0     978.9    NA       0.0000   9999     7510  0     0    
2019/08/28  18:22:00  BASE  0.4116   67   1.81692  51   -0.6  100   -0.6  82    0     979.0    NA       0.0000   9999     7970  0     0    
2019/08/28  18:23:00  BASE  0.34104  72   1.81692  51   -0.6  100   -0.6  82    0     979.0    NA       0.0000   9999     7420  0     0    
2019/08/28  18:24:00  BASE  0.05292  77   1.81692  51   -0.6  100   -0.6  81    0     979.0    NA       0.0000   9999     8560  0     0    
2019/08/28  18:25:00  BASE  0.08232  66   1.81692  51   -0.5  100   -0.5  80    0     979.0    NA       0.0000   9999     8660  0     0    
2019/08/28  18:26:00  BASE  0.45864  38   1.51116  58   -0.5  100   -0.5  80    0     979.0    NA       0.0000   9999     8690  0     0    
2019/08/28  18:27:00  BASE  0.45864  13   1.51116  58   -0.5  100   -0.5  79    0     979.0    NA       0.0000   9999     8860  0     0    
2019/08/28  18:28:00  BASE  0.08232  19   1.51116  58   -0.4  100   -0.4  78    0     979.0    NA       0.0000   9999     7870  8920  0    
2019/08/28  18:29:00  BASE  0        69   1.1466   32   -0.4  100   -0.4  76    0     979.0    NA       0.0000   9999     7870  0     0    
2019/08/28  18:30:00  BASE  0        100  1.1466   32   -0.4  100   -0.4  75    0     979.0    NA       0.0000   9999     7910  8790  0    
2019/08/28  18:31:00  BASE  0.0588   96   1.1466   32   -0.4  100   -0.4  74    0     979.0    NA       0.0000   9999     6660  0     0    
2019/08/28  18:32:00  BASE  0.11172  88   1.1466   32   -0.4  100   -0.5  73    0     979.0    NA       0.0000   9999     6660  0     0    
2019/08/28  18:33:00  BASE  0.28224  87   1.1466   32   -0.5  100   -0.5  72    0     979.0    NA       0.0000   9999     6730  0     0    
2019/08/28  18:34:00  BASE  0.4704   91   1.1466   32   -0.4  99    -0.5  72    0     978.9    NA       0.0000   9999     6560  9060  0    
2019/08/28  18:35:00  BASE  0.3234   75   1.1466   32   -0.4  99    -0.6  72    0     978.9    NA       0.0000   9999     6400  0     0    
2019/08/28  18:36:00  BASE  0.11172  58   0.87612  101  -0.4  99    -0.6  71    0     978.9    NA       0.0000   9999     6200  0     0    
2019/08/28  18:37:00  BASE  0.0294   42   0.87612  101  -0.4  99    -0.6  71    0     978.9    NA       0.0000   9999     6140  0     0    
2019/08/28  18:38:00  BASE  0.05292  44   0.87612  101  -0.4  99    -0.5  70    0     978.9    NA       0.0000   9999     7050  8430  0    
2019/08/28  18:39:00  BASE  0.37632  58   0.87612  101  -0.4  99    -0.5  70    0     978.8    NA       0.0000   9999     6730  0     0    
2019/08/28  18:40:00  BASE  0.46452  62   0.87612  101  -0.4  99    -0.5  69    0     978.8    NA       0.0000   9999     6660  0     0    
2019/08/28  18:41:00  BASE  0.294    95   0.87612  101  -0.4  99    -0.6  68    0     978.9    NA       0.0000   9999     6230  0     0    
2019/08/28  18:42:00  BASE  0.15288  136  0.87612  101  -0.5  99    -0.6  67    0     978.9    NA       0.0000   9999     6630  0     0    
2019/08/28  18:43:00  BASE  0.1176   154  0.81732  100  -0.5  99    -0.7  67    0     978.9    NA       0.0000   9999     6790  7420  0    
2019/08/28  18:44:00  BASE  0.40572  178  0.81732  100  -0.5  99    -0.7  66    0     978.9    NA       0.0000   9999     6730  0     0    
2019/08/28  18:45:00  BASE  0.69972  195  1.0878   208  -0.5  99    -0.7  66    0     978.9    NA       0.0000   9999     6500  0     0    
2019/08/28  18:46:00  BASE  0.82908  193  1.0878   208  -0.6  99    -0.7  66    0     978.9    NA       0.0000   9999     8010  0     0    
2019/08/28  18:47:00  BASE  0.882    184  1.0878   208  -0.6  99    -0.7  66    0     979.0    NA       0.0000   9999     8660  0     0    
2019/08/28  18:48:00  BASE  1.08192  172  1.57584  165  -0.6  99    -0.7  66    0     979.0    NA       0.0000   9999     4820  9290  0    
2019/08/28  18:49:00  BASE  1.30536  165  1.57584  165  -0.6  99    -0.7  66    0     979.0    NA       0.0000   9999     6140  0     0    
2019/08/28  18:50:00  BASE  1.32888  160  1.57584  165  -0.6  99    -0.8  66    0     979.0    NA       0.0000   9999     9290  0     0    
2019/08/28  18:51:00  BASE  1.45236  157  1.69344  161  -0.7  99    -0.8  66    0     978.9    NA       0.0000   9999     7350  0     0    
2019/08/28  18:52:00  BASE  1.617    161  1.75224  162  -0.7  99    -0.9  66    0     978.9    NA       0.0000   9999     8920  0     0    
2019/08/28  18:53:00  BASE  1.68756  162  1.87572  158  -0.8  99    -0.9  66    0     979.0    NA       0.0000   9999     8960  0     0    
2019/08/28  18:54:00  BASE  1.75224  157  1.87572  158  -0.9  99    -1.0  66    0     979.0    NA       0.0000   9999     8830  0     0    
2019/08/28  18:55:00  BASE  1.76988  151  1.96392  159  -0.9  100   -1.0  66    0     979.0    NA       0.0000   9999     8920  0     0    
2019/08/28  18:56:00  BASE  1.7052   152  2.0286   163  -0.9  100   -1.0  66    0     979.0    NA       0.0000   9999     9020  0     0    
2019/08/28  18:57:00  BASE  1.5288   155  2.0286   163  -0.9  100   -0.9  65    0     979.0    NA       0.0000   9999     9060  0     0    
2019/08/28  18:58:00  BASE  1.47588  156  2.0286   163  -0.9  100   -0.9  65    0     979.0    NA       0.0000   9999     9150  0     0    
2019/08/28  18:59:00  BASE  1.3818   158  2.0286   163  -0.8  100   -0.8  64    0     979.0    NA       0.0000   9999     9220  0     0    
2019/08/28  19:00:00  BASE  1.15836  158  2.0286   163  -0.8  100   -0.8  62    0     979.0    NA       0.0000   9999     9190  0     0    
2019/08/28  19:01:00  BASE  1.0584   157  2.0286   163  -0.9  100   -0.9  61    0     979.1    NA       0.0000   9999     9220  0     0    
2019/08/28  19:02:00  BASE  0.95256  152  2.0286   163  -0.9  100   -0.9  60    0     979.1    NA       0.0000   9999     9550  0     0    
2019/08/28  19:03:00  BASE  0.98196  149  2.0286   163  -0.9  100   -0.9  59    0     979.0    NA       0.0000   9999     8960  0     0    
2019/08/28  19:04:00  BASE  1.09956  152  2.0286   163  -0.9  100   -0.9  58    0     979.0    NA       0.0000   9999     8790  0     0    
2019/08/28  19:05:00  BASE  1.07604  157  2.0286   163  -0.9  100   -0.9  57    0     979.0    NA       0.0000   9999     8830  0     0    
2019/08/28  19:06:00  BASE  1.0878   165  1.69344  157  -0.9  100   -0.9  57    0     978.9    NA       0.0000   9999     8830  0     0    
2019/08/28  19:07:00  BASE  1.176    167  1.69344  157  -0.9  100   -0.9  57    0     978.9    NA       0.0000   9999     8860  0     0    
2019/08/28  19:08:00  BASE  1.2936   163  1.42296  159  -0.9  100   -0.9  58    0     979.0    NA       0.0000   9999     8960  0     0    
2019/08/28  19:09:00  BASE  1.45824  159  1.69344  160  -1.0  100   -1.0  58    0     979.0    NA       0.0000   9999     8960  0     0    
2019/08/28  19:10:00  BASE  1.61112  158  1.87572  153  -1.0  100   -1.0  58    0     979.0    NA       0.0000   9999     8920  0     0    
2019/08/28  19:11:00  BASE  1.75224  155  1.90512  154  -1.0  100   -1.0  58    0     979.0    NA       0.0000   9999     9350  0     0    
2019/08/28  19:12:00  BASE  1.77576  151  1.90512  154  -1.0  100   -1.0  58    0     979.0    NA       0.0000   9999     9320  0     0    
2019/08/28  19:13:00  BASE  1.64052  148  1.90512  154  -1.0  100   -1.0  57    0     979.0    NA       0.0000   9999     9380  0     0    
2019/08/28  19:14:00  BASE  1.53468  147  1.90512  154  -1.0  100   -1.0  57    0     979.0    NA       0.0000   9999     9290  0     0    
2019/08/28  19:15:00  BASE  1.48176  148  1.90512  154  -1.0  100   -1.0  56    0     979.0    NA       0.0000   9999     9380  0     0    
2019/08/28  19:16:00  BASE  1.47     146  1.90512  154  -1.0  100   -1.0  55    0     979.0    NA       0.0000   9999     9450  0     0    
2019/08/28  19:17:00  BASE  1.52292  142  1.90512  154  -1.0  100   -1.0  55    0     979.0    NA       0.0000   9999     9510  0     0    
2019/08/28  19:18:00  BASE  1.5876   141  1.90512  154  -1.0  100   -1.0  54    0     979.0    NA       0.0000   9999     9420  0     0    
2019/08/28  19:19:00  BASE  1.68756  139  1.90512  154  -1.0  100   -1.0  54    0     979.0    NA       0.0000   9999     9380  0     0    
2019/08/28  19:20:00  BASE  1.71696  131  1.90512  154  -1.1  100   -1.1  54    0     979.0    NA       0.0000   9999     9220  0     0    
2019/08/28  19:21:00  BASE  1.61112  126  1.87572  134  -1.1  100   -1.1  54    0     979.0    NA       0.0000   9999     9190  0     0    
2019/08/28  19:22:00  BASE  1.56408  123  1.87572  134  -1.1  100   -1.1  54    0     979.0    NA       0.0000   9999     9220  0     0    
2019/08/28  19:23:00  BASE  1.4994   123  1.87572  134  -1.0  100   -1.0  53    0     979.0    NA       0.0000   9999     9580  0     0    
2019/08/28  19:24:00  BASE  1.3818   119  1.87572  134  -1.0  100   -1.0  53    0     979.0    NA       0.0000   9999     9550  0     0    
2019/08/28  19:25:00  BASE  1.38768  112  1.87572  134  -1.0  100   -1.0  52    0     979.0    NA       0.0000   9999     9510  0     0    
2019/08/28  19:26:00  BASE  1.48176  109  1.87572  134  -0.9  100   -0.9  52    0     979.0    NA       0.0000   9999     9510  0     0    
2019/08/28  19:27:00  BASE  1.51116  109  1.87572  134  -0.9  100   -0.9  52    0     979.1    NA       0.0000   9999     9510  0     0    
2019/08/28  19:28:00  BASE  1.45824  114  1.87572  134  -0.9  100   -0.9  52    0     979.0    NA       0.0000   9999     9610  0     0    
2019/08/28  19:29:00  BASE  1.40532  113  1.84632  125  -0.8  100   -0.8  51    0     979.0    NA       0.0000   9999     9810  0     0    
2019/08/28  19:30:00  BASE  1.32888  116  1.72284  111  -0.8  100   -0.8  51    0     979.0    NA       0.0000   9999     9780  0     0    
2019/08/28  19:31:00  BASE  1.30536  117  1.72284  111  -0.8  100   -0.8  50    0     979.0    NA       0.0000   9999     9780  0     0    
2019/08/28  19:32:00  BASE  1.40532  115  1.72284  111  -0.8  100   -0.8  50    0     979.0    NA       0.0000   9999     9710  0     0    
2019/08/28  19:33:00  BASE  1.35828  115  1.72284  111  -0.8  100   -0.8  49    0     979.0    NA       0.0000   9999     9650  0     0    
2019/08/28  19:34:00  BASE  1.31124  117  1.72284  111  -0.8  100   -0.8  50    0     979.0    NA       0.0000   9999     9680  0     0    
2019/08/28  19:35:00  BASE  1.46412  125  1.75224  132  -0.9  100   -0.9  48    0     979.0    NA       0.0000   9999     9650  0     0    
2019/08/28  19:36:00  BASE  1.58172  130  1.90512  134  -1.0  100   -1.0  47    0     979.0    NA       0.0000   9999     9610  0     0    
2019/08/28  19:37:00  BASE  1.86984  138  2.32848  143  -1.0  100   -1.0  46    0     979.0    NA       0.0000   9999     9780  0     0    
2019/08/28  19:38:00  BASE  2.05212  147  2.32848  143  -1.0  100   -1.0  45    0     979.0    NA       0.0000   9999     9710  0     0    
2019/08/28  19:39:00  BASE  1.98744  146  2.32848  143  -1.0  100   -1.0  44    0     979.0    NA       0.0000   9999     9680  0     0    
2019/08/28  19:40:00  BASE  1.92864  146  2.32848  143  -1.0  100   -1.0  44    0     979.0    NA       0.0000   9999     9580  0     0    
2019/08/28  19:41:00  BASE  1.89336  147  2.32848  143  -1.0  100   -1.0  44    0     978.9    NA       0.0000   9999     9580  0     0    
2019/08/28  19:42:00  BASE  1.911    141  2.32848  143  -1.0  100   -1.0  44    0     979.0    NA       0.0000   9999     9580  0     0    
2019/08/28  19:43:00  BASE  2.00508  137  2.45196  142  -1.1  100   -1.1  44    0     979.0    NA       0.0000   9999     9610  0     0    
2019/08/28  19:44:00  BASE  2.08152  133  2.45196  142  -1.1  100   -1.1  44    0     979.0    NA       0.0000   9999     9550  0     0    
2019/08/28  19:45:00  BASE  1.9404   140  2.45196  142  -1.1  100   -1.1  43    0     979.0    NA       0.0000   9999     9610  0     0    
2019/08/28  19:46:00  BASE  1.79928  147  2.45196  142  -1.1  100   -1.1  43    0     979.0    NA       0.0000   9999     9610  0     0    
2019/08/28  19:47:00  BASE  2.01684  145  2.54016  160  -1.0  100   -1.0  42    0     979.0    NA       0.0000   9999     9480  0     0    
2019/08/28  19:48:00  BASE  2.1462   149  2.54016  160  -1.0  100   -1.0  41    0     979.0    NA       0.0000   9999     9380  0     0    
2019/08/28  19:49:00  BASE  2.15796  145  2.56956  141  -1.0  100   -1.0  40    0     979.0    NA       0.0000   9999     9550  0     0    
2019/08/28  19:50:00  BASE  2.0286   141  2.56956  141  -1.0  100   -1.0  39    0     979.0    NA       0.0000   9999     9650  0     0    
2019/08/28  19:51:00  BASE  1.7346   146  2.56956  141  -1.0  100   -1.0  38    0     979.0    NA       0.0000   9999     1410  9680  0    
2019/08/28  19:52:00  BASE  1.7052   146  2.56956  141  -1.0  100   -1.0  37    0     979.0    NA       0.0000   9999     9610  0     0    
2019/08/28  19:53:00  BASE  1.60524  147  2.56956  141  -1.1  100   -1.1  36    0     979.0    NA       0.0000   9999     9510  0     0    
2019/08/28  19:54:00  BASE  1.5582   145  2.56956  141  -1.1  100   -1.1  36    0     979.1    NA       0.0000   9999     9510  0     0    
2019/08/28  19:55:00  BASE  1.84044  143  2.56956  146  -1.1  100   -1.1  35    0     979.1    NA       0.0000   9999     0     0     0    
2019/08/28  19:56:00  BASE  1.84632  150  2.56956  146  -1.1  100   -1.1  34    0     979.1    NA       0.0000   9999     0     0     0    
2019/08/28  19:57:00  BASE  1.42884  146  2.56956  146  -1.0  100   -1.0  34    0     979.1    NA       0.0000   9999     0     0     0    
2019/08/28  19:58:00  BASE  1.22304  136  2.56956  146  -1.0  100   -1.0  34    0     979.1    NA       0.0000   9999     0     0     0    
2019/08/28  19:59:00  BASE  1.07016  144  2.56956  146  -1.0  100   -1.0  34    0     979.1    NA       0.0000   9999     0     0     0    
2019/08/28  20:00:00  BASE  1.0584   153  2.56956  146  -1.0  100   -1.0  34    0     979.1    NA       0.0000   9999     0     0     0    
2019/08/28  20:01:00  BASE  1.1172   149  2.56956  146  -1.1  100   -1.1  34    0     979.0    NA       0.0000   9999     0     0     0    
2019/08/28  20:02:00  BASE  1.09956  145  2.56956  146  -1.2  100   -1.2  33    0     979.0    NA       0.0000   9999     14340 0     0    
2019/08/28  20:03:00  BASE  1.30536  157  2.56956  146  -1.2  100   -1.2  33    0     979.0    NA       0.0000   9999     0     0     0    
2019/08/28  20:04:00  BASE  1.27008  160  2.56956  146  -1.2  100   -1.2  32    0     979.0    NA       0.0000   9999     0     0     0    
2019/08/28  20:05:00  BASE  1.03488  154  2.0286   151  -1.2  100   -1.2  32    0     979.0    NA       0.0000   9999     0     0     0    
2019/08/28  20:06:00  BASE  0.9996   161  1.84632  174  -1.2  100   -1.2  31    0     979.0    NA       0.0000   9999     0     0     0    
2019/08/28  20:07:00  BASE  0.96432  167  1.84632  174  -1.1  100   -1.1  31    0     979.0    NA       0.0000   9999     0     0     0    
2019/08/28  20:08:00  BASE  0.85848  165  1.84632  174  -1.1  100   -1.1  30    0     979.1    NA       0.0000   9999     0     0     0    
2019/08/28  20:09:00  BASE  0.74676  162  1.84632  174  -1.1  100   -1.1  30    0     979.1    NA       0.0000   9999     0     0     0    
2019/08/28  20:10:00  BASE  0.5586   165  1.84632  174  -1.1  100   -1.1  30    0     979.1    NA       0.0000   9999     0     0     0    
2019/08/28  20:11:00  BASE  0.53508  165  1.84632  174  -1.1  100   -1.1  30    0     979.1    NA       0.0000   9999     0     0     0    
2019/08/28  20:12:00  BASE  0.78792  159  1.84632  174  -1.1  100   -1.1  30    0     979.1    NA       0.0000   9999     1510  0     0    
2019/08/28  20:13:00  BASE  0.92316  161  1.29948  151  -1.1  100   -1.1  30    0     979.1    NA       0.0000   9999     1540  0     0    
2019/08/28  20:14:00  BASE  0.71736  178  1.24068  176  -1.1  100   -1.1  29    0     979.1    NA       0.0000   9999     1570  0     0    
2019/08/28  20:15:00  BASE  0.35868  166  1.24068  176  -1.0  100   -1.0  29    0     979.1    NA       0.0000   9999     1480  0     0    
2019/08/28  20:16:00  BASE  0.16464  152  1.24068  176  -1.0  100   -1.0  28    0     979.1    NA       0.0000   9999     1410  0     0    
2019/08/28  20:17:00  BASE  0.34692  156  1.24068  176  -1.0  100   -1.0  28    0     979.1    NA       0.0000   9999     1440  0     0    
2019/08/28  20:18:00  BASE  0.5586   167  1.24068  176  -1.0  100   -1.0  27    0     979.1    NA       0.0000   9999     1440  0     0    
2019/08/28  20:19:00  BASE  0.66444  181  1.27008  165  -1.1  100   -1.1  26    0     979.1    NA       0.0000   9999     1440  0     0    
2019/08/28  20:20:00  BASE  1.0584   184  1.57584  187  -1.1  100   -1.1  26    0     979.1    NA       0.0000   9999     1410  0     0    
2019/08/28  20:21:00  BASE  1.40532  195  1.72284  191  -1.1  100   -1.1  25    0     979.1    NA       0.0000   9999     1480  0     0    
2019/08/28  20:22:00  BASE  1.3818   198  1.72284  191  -1.1  100   -1.1  24    0     979.1    NA       0.0000   9999     1510  8860  0    
2019/08/28  20:23:00  BASE  1.15836  205  1.72284  191  -1.1  100   -1.1  24    0     979.1    NA       0.0000   9999     8860  0     0    
2019/08/28  20:24:00  BASE  1.19364  211  1.72284  191  -1.1  100   -1.1  23    0     979.1    NA       0.0000   9999     8830  0     0    
2019/08/28  20:25:00  BASE  1.12896  206  1.72284  191  -1.0  100   -1.0  23    0     979.1    NA       0.0000   9999     8790  0     0    
2019/08/28  20:26:00  BASE  1.18776  209  1.72284  191  -1.0  100   -1.0  22    0     979.1    NA       0.0000   9999     8760  0     0    
2019/08/28  20:27:00  BASE  1.43472  221  1.9992   211  -1.0  100   -1.0  21    0     979.1    NA       0.0000   9999     8760  0     0    
2019/08/28  20:28:00  BASE  1.48176  221  2.058    203  -1.0  100   -1.0  20    0     979.1    NA       0.0000   9999     1180  0     0    
2019/08/28  20:29:00  BASE  1.37592  222  2.058    203  -1.0  100   -1.0  20    0     979.1    NA       0.0000   9999     1180  8730  0    
2019/08/28  20:30:00  BASE  1.15836  230  2.058    203  -1.0  100   -1.0  19    0     979.1    NA       0.0000   9999     8730  0     0    
2019/08/28  20:31:00  BASE  0.98196  233  2.058    203  -1.0  100   -1.0  19    0     979.1    NA       0.0000   9999     8760  0     0    
2019/08/28  20:32:00  BASE  1.12308  238  2.058    203  -1.0  100   -1.0  18    0     979.1    NA       0.0000   9999     0     0     0    
2019/08/28  20:33:00  BASE  1.21716  247  2.058    203  -1.0  100   -1.0  18    0     979.1    NA       0.0000   9999     0     0     0    
2019/08/28  20:34:00  BASE  1.01724  255  2.058    203  -1.0  100   -1.0  17    0     979.1    NA       0.0000   9999     0     0     0    
2019/08/28  20:35:00  BASE  1.04076  255  2.058    203  -1.0  100   -1.0  17    0     979.1    NA       0.0000   9999     0     0     0    
2019/08/28  20:36:00  BASE  1.21716  247  2.058    203  -1.0  100   -1.0  16    0     979.1    NA       0.0000   9999     0     0     0    
2019/08/28  20:37:00  BASE  1.21128  247  2.058    203  -1.1  100   -1.1  16    0     979.1    NA       0.0000   9999     0     0     0    
2019/08/28  20:38:00  BASE  1.22304  252  1.69344  240  -1.1  100   -1.1  16    0     979.1    NA       0.0000   9999     0     0     0    
2019/08/28  20:39:00  BASE  1.47588  255  1.81692  249  -1.1  100   -1.1  15    0     979.1    NA       0.0000   9999     0     0     0    
2019/08/28  20:40:00  BASE  1.28772  262  1.81692  249  -1.1  100   -1.1  15    0     979.1    NA       0.0000   9999     0     0     0    
2019/08/28  20:41:00  BASE  1.17012  259  1.81692  249  -1.1  100   -1.1  15    0     979.2    NA       0.0000   9999     0     0     0    
2019/08/28  20:42:00  BASE  1.31124  257  1.81692  249  -1.1  100   -1.1  14    0     979.2    NA       0.0000   9999     7810  0     0    
2019/08/28  20:43:00  BASE  1.029    268  1.81692  249  -1.1  100   -1.1  14    0     979.2    NA       0.0000   9999     7780  0     0    
2019/08/28  20:44:00  BASE  0.58212  288  1.81692  249  -1.1  100   -1.1  14    0     979.2    NA       0.0000   9999     7740  0     0    
2019/08/28  20:45:00  BASE  0.49392  295  1.81692  249  -1.1  100   -1.1  13    0     979.2    NA       0.0000   9999     7810  0     0    
2019/08/28  20:46:00  BASE  0.4704   313  1.81692  249  -1.2  100   -1.2  13    0     979.2    NA       0.0000   9999     3280  7780  0    
2019/08/28  20:47:00  BASE  0.59388  355  1.81692  249  -1.3  100   -1.3  13    0     979.2    NA       0.0000   9999     7710  0     0    
2019/08/28  20:48:00  BASE  0.89964  3    1.81692  249  -1.3  100   -1.3  13    0     979.2    NA       0.0000   9999     7710  0     0    
2019/08/28  20:49:00  BASE  0.72912  339  1.72284  268  -1.4  100   -1.4  12    0     979.2    NA       0.0000   9999     7710  0     0    
2019/08/28  20:50:00  BASE  0.7056   344  1.72284  268  -1.4  100   -1.4  12    0     979.2    NA       0.0000   9999     7810  0     0    
2019/08/28  20:51:00  BASE  0.9702   16   1.54056  265  -1.5  100   -1.5  11    0     979.2    NA       0.0000   9999     7940  0     0    
2019/08/28  20:52:00  BASE  1.1466   12   1.39356  3    -1.5  100   -1.5  11    0     979.2    NA       0.0000   9999     7970  0     0    
2019/08/28  20:53:00  BASE  1.176    4    1.39356  3    -1.5  100   -1.5  10    0     979.2    NA       0.0000   9999     7870  0     0    
2019/08/28  20:54:00  BASE  0.89376  8    1.39356  3    -1.5  100   -1.5  10    0     979.2    NA       0.0000   9999     7910  0     0    
2019/08/28  20:55:00  BASE  0.87024  15   1.39356  3    -1.6  100   -1.6  9     0     979.2    NA       0.0000   9999     7870  0     0    
2019/08/28  20:56:00  BASE  1.01136  7    1.39356  3    -1.6  100   -1.6  9     0     979.2    NA       0.0000   9999     7810  0     0    
2019/08/28  20:57:00  BASE  0.93492  5    1.39356  3    -1.6  100   -1.6  8     0     979.2    NA       0.0000   9999     7870  0     0    
2019/08/28  20:58:00  BASE  0.92316  15   1.39356  3    -1.6  100   -1.6  8     0     979.2    NA       0.0000   9999     7710  0     0    
2019/08/28  20:59:00  BASE  0.92316  19   1.39356  3    -1.6  100   -1.6  8     0     979.2    NA       0.0000   9999     7740  0     0    
2019/08/28  21:00:00  BASE  0.84084  17   1.39356  3    -1.6  100   -1.6  7     0     979.2    NA       0.0000   9999     7680  0     0    
2019/08/28  21:01:00  BASE  0.87612  28   1.39356  3    -1.6  100   -1.6  7     0     979.2    NA       0.0000   9999     7680  0     0    
2019/08/28  21:02:00  BASE  0.98196  40   1.35828  55   -1.6  100   -1.6  6     0     979.2    NA       0.0000   9999     7480  0     0    
2019/08/28  21:03:00  BASE  1.01724  36   1.35828  55   -1.6  100   -1.6  6     0     979.2    NA       0.0000   9999     1440  0     0    
2019/08/28  21:04:00  BASE  1.07604  38   1.35828  55   -1.6  100   -1.6  5     0     979.2    NA       0.0000   9999     7450  0     0    
2019/08/28  21:05:00  BASE  1.13484  38   1.35828  55   -1.6  100   -1.6  5     0     979.2    NA       0.0000   9999     7510  0     0    
2019/08/28  21:06:00  BASE  1.21128  33   1.35828  20   -1.6  100   -1.6  5     0     979.2    NA       0.0000   9999     7510  0     0    
2019/08/28  21:07:00  BASE  1.28184  26   1.48176  21   -1.6  100   -1.6  4     0     979.2    NA       0.0000   9999     1380  0     0    
2019/08/28  21:08:00  BASE  1.323    19   1.48176  9    -1.5  100   -1.5  4     0     979.2    NA       0.0000   9999     1350  0     0    
2019/08/28  21:09:00  BASE  1.27008  15   1.48176  9    -1.5  100   -1.5  4     0     979.2    NA       0.0000   9999     1350  0     0    
2019/08/28  21:10:00  BASE  1.21128  14   1.48176  9    -1.5  100   -1.5  4     0     979.2    NA       0.0000   9999     1350  0     0    
2019/08/28  21:11:00  BASE  1.2348   10   1.48176  9    -1.5  100   -1.5  3     0     979.2    NA       0.0000   9999     7580  0     0    
2019/08/28  21:12:00  BASE  1.19364  10   1.48176  9    -1.4  100   -1.4  3     0     979.2    NA       0.0000   9999     7640  0     0    
2019/08/28  21:13:00  BASE  1.07604  19   1.48176  9    -1.4  100   -1.4  3     0     979.3    NA       0.0000   9999     7780  0     0    
2019/08/28  21:14:00  BASE  0.95256  21   1.48176  9    -1.4  100   -1.4  3     0     979.3    NA       0.0000   9999     1380  0     0    
2019/08/28  21:15:00  BASE  0.91728  20   1.48176  9    -1.4  100   -1.4  2     0     979.3    NA       0.0000   9999     1350  0     0    
2019/08/28  21:16:00  BASE  0.93492  20   1.48176  9    -1.4  100   -1.4  2     0     979.3    NA       0.0000   9999     1350  0     0    
2019/08/28  21:17:00  BASE  0.91728  21   1.48176  9    -1.4  100   -1.4  2     0     979.3    NA       0.0000   9999     1310  0     0    
2019/08/28  21:18:00  BASE  0.84672  23   1.32888  360  -1.4  100   -1.4  2     0     979.3    NA       0.0000   9999     1280  0     0    
2019/08/28  21:19:00  BASE  0.7644   25   1.32888  360  -1.3  100   -1.3  2     0     979.3    NA       0.0000   9999     1280  0     0    
2019/08/28  21:20:00  BASE  0.71148  27   1.32888  360  -1.3  100   -1.3  2     0     979.4    NA       0.0000   9999     1250  0     0    
2019/08/28  21:21:00  BASE  0.71736  28   1.24068  6    -1.2  100   -1.2  1     0     979.4    NA       0.0000   9999     1280  0     0    
2019/08/28  21:22:00  BASE  0.78792  25   1.1172   25   -1.2  100   -1.2  1     0     979.4    NA       0.0000   9999     1310  0     0    
2019/08/28  21:23:00  BASE  0.81144  22   0.9702   21   -1.1  100   -1.1  1     0     979.5    NA       0.0000   9999     1250  0     0    
2019/08/28  21:24:00  BASE  0.82908  25   0.9702   26   -1.1  100   -1.1  1     0     979.4    NA       0.0000   9999     1210  0     0    
2019/08/28  21:25:00  BASE  0.89376  26   0.9702   26   -1.1  100   -1.1  1     0     979.4    NA       0.0000   9999     1210  0     0    
2019/08/28  21:26:00  BASE  0.92316  26   0.9702   27   -1.1  100   -1.1  1     0     979.4    NA       0.0000   9999     1210  0     0    
2019/08/28  21:27:00  BASE  0.87612  27   0.9702   27   -1.1  100   -1.1  1     0     979.4    NA       0.0000   9999     1210  0     0    
2019/08/28  21:28:00  BASE  0.81144  34   0.9702   27   -1.1  100   -1.1  1     0     979.5    NA       0.0000   9999     1250  0     0    
2019/08/28  21:29:00  BASE  0.80556  41   0.9702   27   -1.1  100   -1.1  1     0     979.5    NA       0.0000   9999     1280  0     0    
2019/08/28  21:30:00  BASE  0.82908  40   0.9702   27   -1.1  100   -1.1  1     0     979.5    NA       0.0000   9999     1310  0     0    
2019/08/28  21:31:00  BASE  0.82908  41   0.9702   27   -1.1  100   -1.1  1     0     979.5    NA       0.0000   9999     1210  0     0    
2019/08/28  21:32:00  BASE  0.81732  41   0.9702   27   -1.1  100   -1.1  1     0     979.5    NA       0.0000   9999     1250  0     0    
2019/08/28  21:33:00  BASE  0.7938   43   0.9702   27   -1.1  100   -1.1  1     0     979.5    NA       0.0000   9999     1280  0     0    
2019/08/28  21:34:00  BASE  0.43512  38   0.9702   27   -1.1  100   -1.1  1     0     979.5    NA       0.0000   9999     1310  0     0    
2019/08/28  21:35:00  BASE  0.05292  27   0.9702   27   -1.1  100   -1.1  1     0     979.5    NA       0.0000   9999     1310  0     0    
2019/08/28  21:36:00  BASE  0.0294   27   0.93492  46   -1.1  100   -1.1  1     0     979.5    NA       0.0000   9999     1350  0     0    
2019/08/28  21:37:00  BASE  0.15876  27   0.93492  46   -1.1  100   -1.1  0     0     979.5    NA       0.0000   9999     1350  0     0    
2019/08/28  21:38:00  BASE  0.42924  30   0.93492  46   -1.1  100   -1.1  0     0     979.5    NA       0.0000   9999     1350  0     0    
2019/08/28  21:39:00  BASE  0.65268  35   0.93492  46   -1.1  100   -1.1  0     0     979.5    NA       0.0000   9999     1350  0     0    
2019/08/28  21:40:00  BASE  0.72324  28   0.93492  46   -1.2  100   -1.2  0     0     979.5    NA       0.0000   9999     1380  0     0    
2019/08/28  21:41:00  BASE  0.72912  25   0.84672  30   -1.2  100   -1.2  0     0     979.5    NA       0.0000   9999     1410  0     0    
2019/08/28  21:42:00  BASE  0.84672  7    1.63464  343  -1.2  100   -1.2  0     0     979.5    NA       0.0000   9999     1440  0     0    
2019/08/28  21:43:00  BASE  0.74088  356  1.63464  343  -1.3  100   -1.3  0     0     979.5    NA       0.0000   9999     1380  0     0    
2019/08/28  21:44:00  BASE  0.25872  13   1.63464  343  -1.3  100   -1.3  0     0     979.5    NA       0.0000   9999     1410  6140  0    
2019/08/28  21:45:00  BASE  0.45276  20   1.63464  343  -1.3  100   -1.3  0     0     979.5    NA       0.0000   9999     1350  0     0    
2019/08/28  21:46:00  BASE  0.98196  23   1.63464  343  -1.3  100   -1.3  0     0     979.5    NA       0.0000   9999     1410  0     0    
2019/08/28  21:47:00  BASE  1.01724  21   1.63464  343  -1.2  100   -1.2  0     0     979.5    NA       0.0000   9999     1440  0     0    
2019/08/28  21:48:00  BASE  0.94668  26   1.63464  343  -1.2  100   -1.2  0     0     979.5    NA       0.0000   9999     1310  0     0    
2019/08/28  21:49:00  BASE  0.93492  34   1.63464  343  -1.3  100   -1.3  0     0     979.5    NA       0.0000   9999     1380  0     0    
2019/08/28  21:50:00  BASE  1.06428  39   1.63464  343  -1.3  100   -1.3  0     0     979.5    NA       0.0000   9999     1380  0     0    
2019/08/28  21:51:00  BASE  1.07604  33   1.63464  343  -1.3  100   -1.3  0     0     979.6    NA       0.0000   9999     1380  0     0    
2019/08/28  21:52:00  BASE  0.72912  28   1.57584  25   -1.3  100   -1.3  0     0     979.6    NA       0.0000   9999     1410  0     0    
2019/08/28  21:53:00  BASE  0.69972  26   1.57584  25   -1.3  100   -1.3  0     0     979.6    NA       0.0000   9999     1410  0     0    
2019/08/28  21:54:00  BASE  0.97608  20   1.57584  25   -1.3  100   -1.3  0     0     979.6    NA       0.0000   9999     1410  0     0    
2019/08/28  21:55:00  BASE  0.9702   18   1.57584  25   -1.3  100   -1.3  0     0     979.6    NA       0.0000   9999     1380  0     0    
2019/08/28  21:56:00  BASE  0.96432  20   1.57584  25   -1.3  100   -1.3  0     0     979.6    NA       0.0000   9999     1410  0     0    
2019/08/28  21:57:00  BASE  0.9702   20   1.57584  25   -1.4  100   -1.4  0     0     979.6    NA       0.0000   9999     1480  0     0    
2019/08/28  21:58:00  BASE  0.60564  16   1.57584  25   -1.4  100   -1.4  0     0     979.6    NA       0.0000   9999     1480  0     0    
2019/08/28  22:02:12  BASE  M        M    M        M    -1.4  100   -1.4  M     M     M        NA       0.0000   M        M     M     M    
2019/08/28  22:03:00  BASE  M        M    M        M    -1.4  100   -1.4  0     0     979.6    NA       0.0000   9999     1480  0     0    
2019/08/28  22:04:00  BASE  0.88788  9    0        M    -1.3  100   -1.3  0     0     979.6    NA       0.0000   9999     1480  0     0    
2019/08/28  22:05:00  BASE  0.89964  11   0        M    -1.3  100   -1.3  0     0     979.6    NA       0.0000   9999     1510  0     0    
2019/08/28  22:06:00  BASE  0.91728  8    0        M    -1.3  100   -1.3  0     0     979.6    NA       0.0000   9999     1480  0     0    
2019/08/28  22:07:00  BASE  0.91728  6    0        M    -1.3  100   -1.3  0     0     979.6    NA       0.0000   9999     1510  0     0    
2019/08/28  22:08:00  BASE  0.93492  1    0        M    -1.3  100   -1.3  0     0     979.7    NA       0.0000   9999     1510  0     0    
2019/08/28  22:09:00  BASE  0.84084  356  0        M    -1.3  100   -1.3  0     0     979.7    NA       0.0000   9999     1510  0     0    
2019/08/28  22:10:00  BASE  0.7938   349  1.1466   350  -1.3  100   -1.3  0     0     979.7    NA       0.0000   9999     1440  0     0    
2019/08/28  22:11:00  BASE  0.93492  348  1.1466   1    -1.3  100   -1.3  0     0     979.7    NA       0.0000   9999     1440  0     0    
2019/08/28  22:12:00  BASE  0.92904  356  1.1466   1    -1.3  100   -1.3  0     0     979.7    NA       0.0000   9999     1440  0     0    
2019/08/28  22:13:00  BASE  0.86436  359  1.1466   1    -1.3  100   -1.3  0     0     979.7    NA       0.0000   9999     1410  0     0    
2019/08/28  22:14:00  BASE  0.50568  359  1.1466   1    -1.3  100   -1.3  0     0     979.7    NA       0.0000   9999     1380  0     0    
2019/08/28  22:15:00  BASE  0.34104  354  1.1466   1    -1.3  100   -1.3  0     0     979.7    NA       0.0000   9999     1380  0     0    
2019/08/28  22:16:01  BASE  0.53508  337  1.1466   1    -1.3  100   -1.3  0     0     979.7    NA       0.0000   9999     1380  0     0    
2019/08/28  22:17:00  BASE  0.49392  333  1.1466   1    -1.3  100   -1.3  0     0     979.7    NA       0.0000   9999     1410  0     0    
2019/08/28  22:18:00  BASE  0.46452  342  1.1466   1    -1.3  100   -1.3  0     0     979.7    NA       0.0000   9999     1380  0     0    
2019/08/28  22:19:00  BASE  0.51156  344  1.1466   1    -1.3  100   -1.3  0     0     979.7    NA       0.0000   9999     1410  0     0    
2019/08/28  22:20:00  BASE  0.49392  330  1.1466   1    -1.3  100   -1.3  0     0     979.7    NA       0.0000   9999     1410  0     0    
2019/08/28  22:21:00  BASE  0.65268  330  1.21128  349  -1.3  100   -1.3  0     0     979.7    NA       0.0000   9999     1480  0     0    
2019/08/28  22:22:00  BASE  0.84672  337  1.21128  349  -1.3  100   -1.3  0     0     979.7    NA       0.0000   9999     1410  0     0    
2019/08/28  22:23:01  BASE  0.9114   341  1.21128  349  -1.3  100   -1.3  0     0     979.7    NA       0.0000   9999     1480  0     0    
2019/08/28  22:24:00  BASE  0.9408   346  1.21128  349  -1.3  100   -1.3  0     0     979.7    NA       0.0000   9999     1480  0     0    
2019/08/28  22:25:00  BASE  0.89376  340  1.21128  349  -1.3  100   -1.3  0     0     979.7    NA       0.0000   9999     1480  0     0    
2019/08/28  22:26:00  BASE  0.735    357  1.21128  349  -1.3  100   -1.3  0     0     979.7    NA       0.0000   9999     1410  0     0    
2019/08/28  22:27:00  BASE  0.4998   5    1.21128  349  -1.3  100   -1.3  0     0     979.7    NA       0.0000   9999     1080  0     0    
2019/08/28  22:28:00  BASE  0.69384  355  1.24068  345  -1.4  100   -1.4  0     0     979.7    NA       0.0000   9999     1120  0     0    
2019/08/28  22:29:00  BASE  0.67032  348  1.24068  345  -1.4  100   -1.4  0     0     979.7    NA       0.0000   9999     1540  0     0    
2019/08/28  22:30:00  BASE  0.47628  349  1.24068  345  -1.4  100   -1.4  0     0     979.7    NA       0.0000   9999     1210  0     0    
2019/08/28  22:31:00  BASE  0.77028  348  1.24068  345  -1.4  100   -1.4  0     0     979.7    NA       0.0000   9999     1210  0     0    
2019/08/28  22:32:00  BASE  0.97608  338  1.24068  345  -1.4  100   -1.4  0     0     979.7    NA       0.0000   9999     0     0     0    
2019/08/28  22:33:00  BASE  1.01136  336  1.24068  345  -1.4  100   -1.4  0     0     979.7    NA       0.0000   9999     1540  0     0    
2019/08/28  22:34:00  BASE  0.8232   333  1.24068  345  -1.4  100   -1.4  0     0     979.7    NA       0.0000   9999     1480  0     0    
2019/08/28  22:35:00  BASE  0.60564  342  1.24068  345  -1.4  100   -1.4  0     0     979.7    NA       0.0000   9999     1410  0     0    
2019/08/28  22:36:00  BASE  0.63504  353  1.24068  345  -1.4  100   -1.4  0     0     979.7    NA       0.0000   9999     1480  0     0    
2019/08/28  22:37:00  BASE  0.71736  347  1.24068  345  -1.4  100   -1.4  0     0     979.7    NA       0.0000   9999     1540  0     0    
2019/08/28  22:38:00  BASE  0.54684  335  1.18188  333  -1.4  100   -1.4  0     0     979.7    NA       0.0000   9999     0     0     0    
2019/08/28  22:39:00  BASE  0.27048  348  1.18188  333  -1.4  100   -1.4  0     0     979.7    NA       0.0000   9999     5380  0     0    
2019/08/28  22:40:00  BASE  0.46452  4    1.18188  333  -1.4  100   -1.4  0     0     979.7    NA       0.0000   9999     1740  0     0    
2019/08/28  22:41:00  BASE  0.95256  16   1.29948  40   -1.4  100   -1.4  0     0     979.7    NA       0.0000   9999     1670  0     0    
2019/08/28  22:42:00  BASE  1.14072  25   1.35828  12   -1.4  100   -1.4  0     0     979.8    NA       0.0000   9999     1610  0     0    
2019/08/28  22:43:01  BASE  1.09368  24   1.35828  12   -1.4  100   -1.4  0     0     979.8    NA       0.0000   9999     1540  0     0    
2019/08/28  22:44:01  BASE  1.07016  25   1.51116  11   -1.4  100   -1.4  0     0     979.8    NA       0.0000   9999     1510  0     0    
2019/08/28  22:45:01  BASE  1.10544  28   1.51116  11   -1.4  100   -1.4  0     0     979.8    NA       0.0000   9999     1510  0     0    
2019/08/28  22:46:01  BASE  1.18776  29   1.51116  11   -1.4  100   -1.4  0     0     979.8    NA       0.0000   9999     1480  0     0    
2019/08/28  22:47:01  BASE  1.12308  29   1.51116  11   -1.4  100   -1.4  0     0     979.8    NA       0.0000   9999     1510  0     0    
2019/08/28  22:48:01  BASE  0.96432  30   1.51116  11   -1.5  100   -1.5  0     0     979.8    NA       0.0000   9999     1480  0     0    
2019/08/28  22:49:01  BASE  0.93492  30   1.51116  11   -1.5  100   -1.5  0     0     979.8    NA       0.0000   9999     1480  0     0    
2019/08/28  22:50:01  BASE  0.9114   33   1.51116  11   -1.5  100   -1.5  0     0     979.8    NA       0.0000   9999     1480  0     0    
2019/08/28  22:51:01  BASE  0.85848  36   1.51116  11   -1.5  100   -1.5  0     0     979.8    NA       0.0000   9999     1480  0     0    
2019/08/28  22:52:01  BASE  0.72324  36   1.51116  11   -1.4  100   -1.4  0     0     979.8    NA       0.0000   9999     1480  0     0    
2019/08/28  22:53:01  BASE  0.54684  36   1.51116  11   -1.4  100   -1.4  0     0     979.8    NA       0.0000   9999     1510  0     0    
2019/08/28  22:54:01  BASE  0.54684  34   1.42296  29   -1.4  100   -1.4  0     0     979.8    NA       0.0000   9999     1540  0     0    
2019/08/28  22:55:01  BASE  0.65856  31   1.42296  29   -1.4  100   -1.4  0     0     979.8    NA       0.0000   9999     1510  0     0    
2019/08/28  22:56:01  BASE  0.72324  28   1.21128  25   -1.4  100   -1.4  0     0     979.8    NA       0.0000   9999     1570  0     0    
2019/08/28  22:57:01  BASE  0.77028  29   1.1172   22   -1.4  100   -1.4  0     0     979.8    NA       0.0000   9999     1570  0     0    
2019/08/28  22:58:01  BASE  0.87024  40   1.1172   49   -1.4  100   -1.4  0     0     979.8    NA       0.0000   9999     1480  0     0    
2019/08/28  22:59:01  BASE  1.04664  49   1.24068  49   -1.4  100   -1.4  0     0     979.8    NA       0.0000   9999     1440  0     0    
2019/08/28  23:00:01  BASE  1.09368  51   1.24068  49   -1.4  100   -1.4  0     0     979.8    NA       0.0000   9999     0     0     0    
2019/08/28  23:01:01  BASE  0.93492  66   1.24068  49   -1.4  100   -1.4  0     0     979.8    NA       0.0000   9999     0     0     0    
2019/08/28  23:02:01  BASE  0.78204  75   1.42296  64   -1.4  100   -1.4  0     0     979.8    NA       0.0000   9999     2100  0     0    
2019/08/28  23:03:01  BASE  1.15836  66   2.058    66   -1.4  100   -1.4  0     0     979.8    NA       0.0000   9999     2100  0     0    
2019/08/28  23:04:01  BASE  1.18776  54   2.058    66   -1.4  100   -1.4  0     0     979.8    NA       0.0000   9999     2070  0     0    
2019/08/28  23:05:01  BASE  0.39396  97   2.058    66   -1.3  100   -1.3  0     0     979.8    NA       0.0000   9999     2130  0     0    
2019/08/28  23:06:01  BASE  0        102  2.058    66   -1.3  100   -1.3  0     0     979.8    NA       0.0000   9999     2130  0     0    
2019/08/28  23:07:01  BASE  0.0294   89   2.058    66   -1.2  100   -1.2  0     0     979.8    NA       0.0000   9999     0     0     0    
2019/08/28  23:08:01  BASE  0.0294   170  2.058    66   -1.2  100   -1.2  0     0     979.8    NA       0.0000   9999     0     0     0    
2019/08/28  23:09:01  BASE  0        232  2.058    66   -1.2  100   -1.2  0     0     979.8    NA       0.0000   9999     0     0     0    
2019/08/28  23:10:01  BASE  0.0294   202  2.058    66   -1.2  100   -1.2  0     0     979.8    NA       0.0000   9999     0     0     0    
2019/08/28  23:11:01  BASE  0.07644  186  2.058    66   -1.2  100   -1.2  0     0     979.8    NA       0.0000   9999     0     0     0    
2019/08/28  23:12:01  BASE  0.05292  184  2.058    66   -1.2  100   -1.2  0     0     979.8    NA       0.0000   9999     2230  0     0    
2019/08/28  23:13:01  BASE  0        182  1.69344  47   -1.1  100   -1.1  0     0     979.8    NA       0.0000   9999     2260  0     0    
2019/08/28  23:14:01  BASE  0        258  0.69384  174  -1.1  100   -1.1  0     0     979.8    NA       0.0000   9999     2300  0     0    
2019/08/28  23:15:01  BASE  0        287  0.69384  174  -1.1  100   -1.1  0     0     979.8    NA       0.0000   9999     2300  0     0    
2019/08/28  23:16:01  BASE  0        271  0.69384  174  -1.1  100   -1.1  0     0     979.8    NA       0.0000   9999     0     0     0    
2019/08/28  23:17:01  BASE  0        254  0.63504  175  -1.1  100   -1.1  0     0     979.8    NA       0.0000   9999     0     0     0    
2019/08/28  23:18:01  BASE  0.0294   213  0.63504  214  -1.1  100   -1.1  0     0     979.8    NA       0.0000   9999     0     0     0    
2019/08/28  23:19:01  BASE  0.0294   196  0.63504  214  -1.1  100   -1.1  0     0     979.8    NA       0.0000   9999     0     0     0    
2019/08/28  23:20:01  BASE  0        209  0.63504  214  -1.1  100   -1.1  0     0     979.8    NA       0.0000   9999     0     0     0    
2019/08/28  23:21:01  BASE  0        196  0.63504  214  -1.2  100   -1.2  0     0     979.8    NA       0.0000   9999     2430  0     0    
2019/08/28  23:22:01  BASE  0        173  0.63504  214  -1.2  100   -1.2  0     0     979.8    NA       0.0000   9999     2430  0     0    
2019/08/28  23:23:01  BASE  0        173  0.63504  214  -1.2  100   -1.2  0     0     979.8    NA       0.0000   9999     2430  0     0    
2019/08/28  23:24:01  BASE  0.28812  329  0.93492  332  -1.3  100   -1.3  0     0     979.8    NA       0.0000   9999     2490  0     0    
2019/08/28  23:25:01  BASE  0.79968  349  1.93452  1    -1.3  100   -1.3  0     0     979.8    NA       0.0000   9999     1080  2560  0    
2019/08/28  23:26:01  BASE  1.19364  354  1.93452  1    -1.3  100   -1.3  0     0     979.8    NA       0.0000   9999     1020  2620  0    
2019/08/28  23:27:01  BASE  1.17012  349  1.93452  1    -1.3  100   -1.3  0     0     979.8    NA       0.0000   9999     1050  0     0    
2019/08/28  23:28:01  BASE  0.9996   344  1.93452  1    -1.3  100   -1.3  0     0     979.8    NA       0.0000   9999     1050  0     0    
2019/08/28  23:29:01  BASE  1.32888  303  2.29908  231  -1.3  100   -1.3  0     0     979.8    NA       0.0000   9999     1050  0     0    
2019/08/28  23:30:01  BASE  1.59936  226  2.29908  231  -1.3  100   -1.3  0     0     979.8    NA       0.0000   9999     1050  2590  0    
2019/08/28  23:31:01  BASE  1.22304  206  2.29908  231  -1.3  100   -1.3  0     0     979.9    NA       0.0000   9999     1020  2560  0    
2019/08/28  23:32:01  BASE  0.92904  234  2.29908  231  -1.2  100   -1.2  0     0     979.8    NA       0.0000   9999     1020  0     0    
2019/08/28  23:33:01  BASE  1.09368  223  2.29908  231  -1.2  100   -1.2  0     0     979.9    NA       0.0000   9999     1020  0     0    
2019/08/28  23:34:01  BASE  0.98784  220  2.29908  231  -1.3  100   -1.3  0     0     979.9    NA       0.0000   9999     980   0     0    
2019/08/28  23:35:01  BASE  1.0584   250  2.29908  231  -1.3  100   -1.3  0     0     979.9    NA       0.0000   9999     980   0     0    
2019/08/28  23:36:01  BASE  1.25244  249  2.29908  231  -1.3  100   -1.3  0     0     979.9    NA       0.0000   9999     1020  0     0    
2019/08/28  23:37:01  BASE  1.35828  234  2.38728  221  -1.3  100   -1.3  0     0     979.9    NA       0.0000   9999     1020  0     0    
2019/08/28  23:38:01  BASE  1.75224  221  2.38728  221  -1.3  100   -1.3  0     0     979.9    NA       0.0000   9999     1020  0     0    
2019/08/28  23:39:01  BASE  1.71108  209  2.38728  221  -1.2  100   -1.2  0     0     979.8    NA       0.0000   9999     980   0     0    
2019/08/28  23:40:01  BASE  1.56408  211  2.38728  221  -1.2  100   -1.2  0     0     979.8    NA       0.0000   9999     980   0     0    
2019/08/28  23:41:01  BASE  1.61112  216  2.38728  221  -1.2  100   -1.2  0     0     979.8    NA       0.0000   9999     950   0     0    
2019/08/28  23:42:01  BASE  1.35828  221  2.38728  221  -1.2  100   -1.2  0     0     979.8    NA       0.0000   9999     950   2430  0    
2019/08/28  23:43:01  BASE  1.15836  220  2.38728  221  -1.2  100   -1.2  0     0     979.8    NA       0.0000   9999     980   0     0    
2019/08/28  23:44:01  BASE  0.95844  219  2.38728  221  -1.2  100   -1.2  0     0     979.8    NA       0.0000   9999     950   2430  0    
2019/08/28  23:45:01  BASE  1.13484  218  2.38728  221  -1.3  100   -1.3  0     0     979.8    NA       0.0000   9999     920   0     0    
2019/08/28  23:46:01  BASE  1.77576  216  2.38728  221  -1.3  100   -1.3  0     0     979.8    NA       0.0000   9999     920   2260  0    
2019/08/28  23:47:01  BASE  1.6464   213  2.35788  214  -1.3  100   -1.3  0     0     979.8    NA       0.0000   9999     890   2360  0    
2019/08/28  23:48:01  BASE  1.13484  199  2.35788  214  -1.3  100   -1.3  0     0     979.8    NA       0.0000   9999     890   2330  0    
2019/08/28  23:49:01  BASE  0.9996   196  2.35788  214  -1.4  100   -1.4  0     0     979.8    NA       0.0000   9999     890   2400  0    
2019/08/28  23:50:01  BASE  0.81144  202  2.35788  214  -1.4  100   -1.4  0     0     979.8    NA       0.0000   9999     850   0     0    
2019/08/28  23:51:01  BASE  0.3234   180  2.35788  214  -1.4  100   -1.4  0     0     979.8    NA       0.0000   9999     850   0     0    
2019/08/28  23:52:01  BASE  0.18816  156  2.35788  214  -1.5  100   -1.5  0     0     979.8    NA       0.0000   9999     850   2300  0    
2019/08/28  23:53:01  BASE  0.34104  158  2.35788  214  -1.5  100   -1.5  0     0     979.8    NA       0.0000   9999     850   2300  0    
2019/08/28  23:54:01  BASE  0.31752  167  2.35788  214  -1.5  100   -1.5  0     0     979.8    NA       0.0000   9999     850   2490  0    
2019/08/28  23:55:01  BASE  0.74088  175  2.35788  214  -1.5  100   -1.5  0     0     979.8    NA       0.0000   9999     820   0     0    
2019/08/28  23:56:01  BASE  1.12308  186  1.54056  217  -1.5  100   -1.5  0     0     979.8    NA       0.0000   9999     820   0     0    
2019/08/28  23:57:01  BASE  0.80556  192  1.45236  181  -1.5  100   -1.5  0     0     979.8    NA       0.0000   9999     820   0     0    
2019/08/28  23:58:01  BASE  0.2646   170  1.45236  181  -1.5  100   -1.5  0     0     979.8    NA       0.0000   9999     820   0     0    
2019/08/28  23:59:01  BASE  0.15876  166  1.45236  181  -1.5  100   -1.5  0     0     979.9    NA       0.0000   9999     750   0     0